Date StartTime U_cm/s V_cm/s W_cm/s Ustd_cm/s Vstd_cm/s Wstd_cm/s Uvar_(cm/s)^2 Vvar_(cm/s)^2 Wvar_(cm/s)^2 KE_(m/s)^2 TurbulentKE_(m/s)^2 HorizWindSpeed_cm/s FrictionSpeec_cm/s DragCoef SpeedOfSound_m/s SonicTemperature_C Pressure_mb 
05/14/2013  00:00:00     -326.909      -45.282       -4.256      147.808       72.735       58.110    21847.140     5290.410     3376.809        6.972        1.526      330.031       63.786        0.037      343.840       20.232      862.633
05/14/2013  00:01:00     -330.119      -68.921      -19.572      117.504       91.043       46.189    13807.109     8288.814     2133.450        6.917        1.211      337.237       42.989        0.016      343.879       20.299      862.639
05/14/2013  00:02:00     -358.315      -38.555      -22.860      137.691       98.487       60.302    18958.707     9699.760     3636.368        8.134        1.615      360.383       57.547        0.025      343.896       20.328      862.652
05/14/2013  00:03:00     -307.195      -34.822      -18.909       91.540       94.787       55.689     8379.637     8984.556     3101.245        5.820        1.023      309.163       60.127        0.038      343.876       20.296      862.644
05/14/2013  00:04:00     -404.309      -27.485      -43.974       90.748       93.491       48.539     8235.142     8740.633     2356.001        9.274        0.967      405.242       35.075        0.007      343.951       20.420      862.633
05/14/2013  00:05:00     -376.029      -16.044      -48.082       79.982       90.031       51.023     6397.051     8105.557     2603.336        8.053        0.855      376.371       35.992        0.009      343.902       20.338      862.632
05/14/2013  00:06:00     -266.414      -42.028      -17.721      115.186       90.200       51.370    13267.906     8136.053     2638.839        4.855        1.202      269.709       60.171        0.050      343.855       20.258      862.642
05/14/2013  00:07:00     -295.545      -65.591      -28.289       80.562       82.258       51.016     6490.256     6766.309     2602.659        5.415        0.793      302.736       43.050        0.020      343.831       20.216      862.651
05/14/2013  00:08:00     -308.521      -46.149      -24.086      117.449       98.170       57.073    13794.370     9637.383     3257.348        6.229        1.334      311.954       58.244        0.035      343.821       20.199      862.640
05/14/2013  00:09:00     -343.762       -2.452      -24.738      114.382      107.293       57.913    13083.133    11511.754     3353.941        7.336        1.397      343.771       60.305        0.031      343.809       20.179      862.641
05/14/2013  00:10:00     -342.328      -43.310      -16.838       99.390       86.439       51.084     9878.314     7471.735     2609.556        6.965        0.998      345.057       48.304        0.020      343.805       20.172      862.655
05/14/2013  00:11:00     -376.457      -51.286      -31.213      108.222       99.846       54.708    11711.901     9969.276     2993.003        8.500        1.234      379.934       53.146        0.020      343.785       20.136      862.658
05/14/2013  00:12:00     -366.138      -57.277      -31.353       79.779       97.458       46.070     6364.637     9497.979     2122.415        7.815        0.899      370.591       34.687        0.009      343.802       20.166      862.657
05/14/2013  00:13:00     -402.674      -10.318      -32.523      104.662      104.049       60.937    10954.100    10826.298     3713.306        9.440        1.275      402.806       51.497        0.016      343.819       20.197      862.669
05/14/2013  00:14:00     -215.895     -100.075       -6.148       92.728       77.580       44.976     8598.516     6018.689     2022.809        3.665        0.832      237.961       40.763        0.029      343.721       20.030      862.677
05/14/2013  00:15:00     -114.848      -59.639       -6.712       81.585       74.855       47.185     6656.035     5603.219     2226.425        1.564        0.724      129.409       38.000        0.086      343.618       19.854      862.681
05/14/2013  00:16:00     -153.058       -9.380      -19.999       59.464       53.056       42.682     3535.994     2814.957     1821.758        1.604        0.409      153.345       20.300        0.018      343.552       19.744      862.686
05/14/2013  00:17:00     -129.716      -25.840      -12.902       91.126       71.398       40.971     8303.897     5097.699     1678.658        1.637        0.754      132.265       44.620        0.114      343.423       19.523      862.711
05/14/2013  00:18:00      -98.324      -35.053       -6.749       84.989       60.646       40.646     7223.114     3677.880     1652.071        1.175        0.628      104.386       34.173        0.107      343.385       19.458      862.732
05/14/2013  00:19:00     -243.426      -63.923      -28.222       74.044       64.264       42.639     5482.523     4129.808     1818.082        3.778        0.572      251.679       28.080        0.012      343.317       19.339      862.748
05/14/2013  00:20:00     -208.096      -61.708      -21.998       71.793       60.809       38.170     5154.302     3697.760     1456.929        2.895        0.515      217.053       21.509        0.010      343.344       19.387      862.755
05/14/2013  00:21:00     -158.886      -78.738      -17.250       66.986       60.851       40.715     4487.161     3702.787     1657.741        2.079        0.492      177.326       34.555        0.038      343.279       19.275      862.768
05/14/2013  00:22:00     -160.151      -32.525      -18.023       50.710       55.644       35.881     2571.466     3096.223     1287.477        1.699        0.348      163.421       19.207        0.014      343.281       19.280      862.781
05/14/2013  00:23:00     -143.270      -55.430      -12.796       53.335       59.029       35.768     2844.649     3484.367     1279.365        1.568        0.380      153.619       11.121        0.005      343.271       19.265      862.792
05/14/2013  00:24:00     -139.773      -67.997      -12.128       61.708       50.570       32.044     3807.933     2557.364     1026.828        1.585        0.370      155.435       31.965        0.042      343.214       19.166      862.796
05/14/2013  00:25:00     -149.152      -42.085      -12.573       36.712       43.986       32.611     1347.775     1934.796     1063.486        1.426        0.217      154.976       19.111        0.015      343.294       19.302      862.799
05/14/2013  00:26:00     -146.903      -13.998      -23.359       61.452       50.371       45.009     3776.379     2537.288     2025.807        1.533        0.417      147.568       33.868        0.053      343.354       19.405      862.815
05/14/2013  00:27:00     -104.872      -21.274      -15.619       43.908       51.657       40.974     1927.931     2668.466     1678.873        0.898        0.314      107.008       32.353        0.091      343.310       19.332      862.824
05/14/2013  00:28:00     -133.490      -42.602      -15.697       49.200       49.221       30.217     2420.610     2422.739      913.093        1.282        0.288      140.124       21.006        0.022      343.337       19.378      862.832
05/14/2013  00:29:00     -202.184      -50.394      -30.286       55.308       62.483       31.242     3058.940     3904.097      976.091        2.614        0.397      208.370       21.135        0.010      343.272       19.263      862.842
05/14/2013  00:30:00     -171.057      -28.319      -19.169       57.953       68.652       31.560     3358.502     4713.044      996.059        1.975        0.453      173.385       23.850        0.019      343.217       19.171      862.842
05/14/2013  00:31:00     -202.030      -51.441      -22.528       93.976       55.715       37.967     8831.459     3104.192     1441.469        2.867        0.669      208.476       31.363        0.023      343.168       19.088      862.851
05/14/2013  00:32:00     -213.010      -56.950      -27.071       65.668       56.102       31.256     4312.252     3147.489      976.965        2.889        0.422      220.492       26.126        0.014      343.108       18.984      862.845
05/14/2013  00:33:00     -249.782      -70.944      -17.210       62.030       49.780       35.418     3847.765     2478.085     1254.411        3.765        0.379      259.661       26.068        0.010      343.142       19.042      862.825
05/14/2013  00:34:00     -202.499      -75.021      -18.625       59.809       51.058       38.777     3577.153     2606.874     1503.693        2.733        0.384      215.949       28.134        0.017      343.140       19.039      862.809
05/14/2013  00:35:00     -267.053      -85.577      -20.009       70.444       70.501       47.321     4962.410     4970.437     2239.242        4.560        0.609      280.430       39.338        0.020      343.098       18.965      862.806
05/14/2013  00:36:00     -200.775      -69.571       -6.521       88.091       71.038       44.546     7760.070     5046.377     1984.312        2.999        0.740      212.488       42.563        0.040      343.097       18.965      862.799
05/14/2013  00:37:00     -223.735      -56.887      -31.048       57.228       57.229       33.106     3275.007     3275.154     1096.013        3.095        0.382      230.854       18.287        0.006      343.139       19.037      862.782
05/14/2013  00:38:00     -204.048      -82.287      -23.084       54.373       50.550       33.867     2956.414     2555.352     1146.979        2.780        0.333      220.015       19.758        0.008      343.072       18.923      862.780
05/14/2013  00:39:00     -152.630      -34.266      -16.963       85.653       80.716       34.790     7336.419     6515.142     1210.366        1.991        0.753      156.429       34.960        0.050      343.113       18.994      862.779
05/14/2013  00:40:00     -186.728      -47.748      -19.560       66.783       57.264       27.386     4459.932     3279.207      750.006        2.301        0.424      192.736       21.886        0.013      343.077       18.934      862.801
05/14/2013  00:41:00     -124.134      -48.045      -10.097       66.040       58.962       32.409     4361.321     3476.464     1050.316        1.335        0.444      133.107       20.777        0.024      343.035       18.864      862.804
05/14/2013  00:42:00     -160.516      -52.961       -1.397       52.156       59.863       39.825     2720.215     3583.569     1586.040        1.823        0.394      169.027       29.895        0.031      343.060       18.905      862.804
05/14/2013  00:43:00     -128.438      -50.592      -23.447       51.100       47.393       37.327     2611.256     2246.105     1393.289        1.293        0.313      138.043       19.434        0.020      343.038       18.868      862.816
05/14/2013  00:44:00     -159.664      -49.888      -28.261       55.673       37.128       34.197     3099.524     1378.510     1169.431        1.721        0.282      167.277       23.141        0.019      343.053       18.894      862.819
05/14/2013  00:45:00     -177.462      -49.758      -20.838       50.609       60.038       32.367     2561.260     3604.536     1047.610        2.081        0.361      184.305       21.498        0.014      342.911       18.650      862.819
05/14/2013  00:46:00     -154.935      -25.199      -25.133       71.644       58.700       35.135     5132.894     3445.641     1234.495        1.754        0.491      156.971       18.596        0.014      342.920       18.666      862.813
05/14/2013  00:47:00     -163.039      -35.097      -30.224       41.946       47.841       30.906     1759.462     2288.735      955.176        1.686        0.250      166.774       23.321        0.020      342.990       18.785      862.814
05/14/2013  00:48:00     -191.007      -60.475      -16.472       91.272       62.928       37.283     8330.581     3959.920     1389.986        2.704        0.684      200.352       35.720        0.032      343.008       18.814      862.823
05/14/2013  00:49:00     -149.940      -46.930      -10.011       63.425       88.134       43.144     4022.760     7767.583     1861.422        1.922        0.683      157.113       31.978        0.041      342.960       18.734      862.821
05/14/2013  00:50:00     -187.146      -13.628      -19.813       82.026       85.714       45.919     6728.259     7346.896     2108.548        2.589        0.809      187.641       44.175        0.055      343.000       18.802      862.823
05/14/2013  00:51:00     -268.452      -41.337      -33.182       56.234       76.331       37.386     3162.252     5826.419     1397.749        4.263        0.519      271.616       29.659        0.012      343.000       18.798      862.826
05/14/2013  00:52:00     -226.098      -92.206      -14.907       50.795       61.535       32.472     2580.138     3786.567     1054.459        3.363        0.371      244.177       22.500        0.008      343.019       18.830      862.831
05/14/2013  00:53:00     -228.045      -59.712      -20.643       63.315       52.531       30.898     4008.837     2759.514      954.700        3.186        0.386      235.733       30.874        0.017      343.053       18.890      862.830
05/14/2013  00:54:00     -253.683       -9.225      -28.397       52.206       44.859       36.535     2725.515     2012.335     1334.784        3.566        0.304      253.851       27.454        0.012      343.015       18.824      862.827
05/14/2013  00:55:00     -247.254       -9.687      -21.530       64.577       51.757       33.025     4170.201     2678.742     1090.660        3.481        0.397      247.443       36.601        0.022      342.961       18.732      862.828
05/14/2013  00:56:00     -261.765      -10.325      -22.314       60.885       45.820       34.820     3706.986     2099.514     1212.405        3.807        0.351      261.969       34.634        0.017      342.902       18.633      862.808
05/14/2013  00:57:00     -247.630        6.025      -23.042       71.730       51.420       30.391     5145.220     2643.979      923.603        3.530        0.436      247.704       28.057        0.013      342.943       18.702      862.787
05/14/2013  00:58:00     -185.599      -30.056      -10.032       59.609       62.307       34.982     3553.244     3882.132     1223.768        2.205        0.433      188.017       29.954        0.025      342.837       18.523      862.759
05/14/2013  00:59:00     -267.906      -33.706      -31.370       68.908       48.683       32.427     4748.340     2370.073     1051.486        4.103        0.408      270.018       32.537        0.015      343.023       18.839      862.740
05/14/2013  01:00:00     -195.981        5.948      -16.141       49.365       47.407       27.715     2436.892     2247.456      768.098        2.208        0.273      196.071       24.534        0.016      342.847       18.543      862.719
05/14/2013  01:01:00     -209.578      -40.677       -7.026       63.016       65.774       38.355     3971.028     4326.274     1471.136        2.770        0.488      213.489       33.565        0.025      342.805       18.469      862.698
05/14/2013  01:02:00     -270.421       -8.729      -20.775       83.878       48.044       38.741     7035.444     2308.242     1500.839        4.224        0.542      270.562       42.805        0.025      342.791       18.443      862.686
05/14/2013  01:03:00     -280.616      -12.443      -23.710       80.827       55.617       44.360     6533.065     3093.286     1967.794        4.553        0.580      280.892       41.609        0.022      342.832       18.515      862.688
05/14/2013  01:04:00     -285.087      -30.040      -16.359       72.594       51.915       35.646     5269.869     2695.178     1270.645        4.584        0.462      286.665       36.174        0.016      342.960       18.731      862.687
05/14/2013  01:05:00     -234.144      -42.311      -13.496       65.631       50.365       38.644     4307.389     2536.649     1493.392        3.257        0.417      237.936       29.632        0.016      343.030       18.852      862.690
05/14/2013  01:06:00     -253.007      -34.546      -24.381       48.755       48.629       32.484     2377.092     2364.787     1055.186        3.580        0.290      255.355       28.517        0.012      342.866       18.569      862.687
05/14/2013  01:07:00     -277.224      -38.349      -21.636       86.421       66.801       37.464     7468.658     4462.321     1403.563        4.606        0.667      279.863       34.108        0.015      343.009       18.815      862.696
05/14/2013  01:08:00     -256.173      -82.713       -5.459      111.115       71.307       48.795    12346.504     5084.674     2380.910        4.615        0.991      269.195       52.210        0.038      343.180       19.106      862.686
05/14/2013  01:09:00     -290.688      -54.926       -6.979      127.134       82.305       53.526    16163.037     6774.191     2864.985        5.668        1.290      295.831       60.508        0.042      343.098       18.967      862.686
05/14/2013  01:10:00     -280.311      -48.889       -9.765      108.377       81.342       50.608    11745.468     6616.537     2561.136        5.099        1.046      284.542       58.117        0.042      343.080       18.936      862.690
05/14/2013  01:11:00     -292.252      -13.361       -3.798       90.983       69.108       49.507     8277.962     4775.862     2450.969        5.055        0.775      292.557       49.752        0.029      343.016       18.828      862.703
05/14/2013  01:12:00     -208.160      -59.681        2.780       82.022       88.506       45.367     6727.647     7833.229     2058.171        3.176        0.831      216.546       44.866        0.043      342.966       18.743      862.704
05/14/2013  01:13:00     -220.982      -42.648       -7.975       99.388       82.022       40.603     9878.005     6727.567     1648.567        3.448        0.913      225.060       35.337        0.025      342.955       18.725      862.702
05/14/2013  01:14:00     -238.882      -40.094       -6.450      115.099       76.995       50.808    13247.718     5928.239     2581.437        4.023        1.088      242.223       62.909        0.067      343.006       18.810      862.711
05/14/2013  01:15:00     -241.807      -44.160       -6.302      105.602       71.111       51.336    11151.877     5056.727     2635.361        3.965        0.942      245.807       50.033        0.041      342.972       18.753      862.715
05/14/2013  01:16:00     -221.247      -27.959       -5.259       98.831       79.993       47.308     9767.519     6398.835     2238.015        3.408        0.920      223.006       44.985        0.041      342.994       18.790      862.728
05/14/2013  01:17:00     -196.543      -58.580        7.067       86.271       69.804       55.755     7442.660     4872.650     3108.585        2.876        0.771      205.087       53.590        0.068      342.950       18.717      862.745
05/14/2013  01:18:00     -203.462      -56.467       -9.732       83.455       66.410       39.376     6964.764     4410.284     1550.486        2.880        0.646      211.152       36.409        0.030      342.944       18.705      862.758
05/14/2013  01:19:00     -209.969      -37.144       -5.151      110.555       61.384       39.729    12222.509     3768.042     1578.418        3.153        0.878      213.229       38.154        0.032      342.922       18.668      862.758
05/14/2013  01:20:00     -211.673      -55.819        1.676       95.012       70.128       36.096     9027.345     4917.945     1302.910        3.158        0.762      218.909       32.849        0.023      342.921       18.666      862.758
05/14/2013  01:21:00     -195.429      -41.941       -7.639       72.646       75.470       36.537     5277.403     5695.792     1334.981        2.616        0.615      199.879       34.263        0.029      342.868       18.576      862.747
05/14/2013  01:22:00     -203.299      -47.972       -6.562      100.941       58.779       37.585    10189.053     3454.977     1412.631        2.936        0.753      208.882       41.494        0.039      342.853       18.550      862.739
05/14/2013  01:23:00     -133.603      -79.040       -2.214       63.574       61.922       38.017     4041.665     3834.332     1445.317        1.671        0.466      155.233       37.885        0.060      342.808       18.476      862.743
05/14/2013  01:24:00      -95.127      -25.282        2.734       75.018       50.687       34.049     5627.682     2569.175     1159.321        0.952        0.468       98.429       39.591        0.162      342.779       18.426      862.755
05/14/2013  01:25:00     -132.724      -34.967        2.939       50.666       65.999       29.675     2567.060     4355.818      880.584        1.332        0.390      137.253       28.622        0.043      342.736       18.354      862.755
05/14/2013  01:26:00      -75.258       -4.520        5.214       65.459       37.436       29.099     4284.842     1401.443      846.750        0.612        0.327       75.394       34.852        0.214      342.714       18.317      862.747
05/14/2013  01:27:00      -85.563      -20.576       -1.587       48.775       39.054       23.628     2379.047     1525.247      558.292        0.610        0.223       88.002       24.272        0.076      342.778       18.424      862.742
05/14/2013  01:28:00       -2.550       -5.069        7.621       30.874       22.635       13.997      953.200      512.348      195.918        0.088        0.083        5.674       15.185        7.161      342.621       18.158      862.731
05/14/2013  01:29:00       46.835       36.588       14.293       22.990       40.054       32.873      528.559     1604.354     1080.646        0.347        0.161       59.432       32.216        0.294      342.503       17.957      862.731
05/14/2013  01:30:00       76.778       43.489        0.393       37.638       27.723       25.372     1416.588      768.551      643.750        0.531        0.141       88.240       19.267        0.048      342.437       17.846      862.738
05/14/2013  01:31:00       72.364       50.762       30.638       37.696       31.808       30.730     1420.979     1011.744      944.339        0.606        0.169       88.393       22.427        0.064      342.402       17.787      862.752
05/14/2013  01:32:00      116.438       81.428       30.718       30.350       23.645       23.665      921.133      559.080      560.028        1.159        0.102      142.086       15.705        0.012      342.441       17.852      862.745
05/14/2013  01:33:00      117.398       81.054        0.076       39.664       17.382       21.185     1573.234      302.137      448.799        1.134        0.116      142.661       16.504        0.013      342.400       17.782      862.740
05/14/2013  01:34:00       32.629       95.464       -2.596       26.997       43.030       31.601      728.826     1851.579      998.602        0.688        0.179      100.887       27.959        0.077      342.347       17.694      862.740
05/14/2013  01:35:00       39.124       70.184        2.901       33.101       39.010       23.676     1095.644     1521.818      560.539        0.482        0.159       80.352       22.075        0.075      342.462       17.889      862.742
05/14/2013  01:36:00       21.193      103.083      -11.532       24.005       39.041       25.353      576.233     1524.221      642.753        0.698        0.137      105.239       14.627        0.019      342.613       18.145      862.760
05/14/2013  01:37:00      -42.842       69.984       -3.861       28.962       22.130       18.788      838.793      489.727      352.998        0.421        0.084       82.056       12.572        0.023      342.662       18.229      862.784
05/14/2013  01:38:00       -2.226       72.798      -11.473       22.714       22.225       11.824      515.946      493.970      139.806        0.329        0.057       72.832        6.412        0.008      342.747       18.370      862.788
05/14/2013  01:39:00       -7.600        0.574        1.237       14.566       19.953       13.269      212.157      398.128      176.060        0.042        0.039        7.622        6.231        0.668      342.634       18.183      862.789
05/14/2013  01:40:00       63.569       15.098        5.454       31.711       22.151       14.437     1005.584      490.672      208.438        0.300        0.085       65.338        8.577        0.017      342.582       18.093      862.801
05/14/2013  01:41:00       51.582        2.243        3.075       31.653       21.215       17.593     1001.888      450.082      309.519        0.222        0.088       51.631        4.690        0.008      342.733       18.349      862.801
05/14/2013  01:42:00       16.425      -16.325       25.049       23.986       37.951       21.011      575.304     1440.310      441.458        0.181        0.123       23.158       17.662        0.582      342.594       18.114      862.801
05/14/2013  01:43:00       46.841      -71.012      -18.883       25.462       34.844       21.134      648.331     1214.127      446.665        0.495        0.115       85.070       12.838        0.023      342.651       18.210      862.792
05/14/2013  01:44:00       62.098      -89.012       -6.262       31.944       21.285       19.052     1020.410      453.057      362.972        0.683        0.092      108.532        7.800        0.005      342.724       18.334      862.794
05/14/2013  01:45:00       29.985      -82.391      -11.736       34.258       29.851       16.307     1173.625      891.076      265.928        0.508        0.117       87.678       11.681        0.018      342.656       18.217      862.786
05/14/2013  01:46:00       68.960      -92.489        1.737       32.854       39.526       26.719     1079.372     1562.333      713.924        0.833        0.168      115.367       24.153        0.044      342.653       18.214      862.793
05/14/2013  01:47:00       58.877      -68.495      -15.404       50.808       33.403       20.491     2581.481     1115.745      419.870        0.626        0.206       90.323       23.894        0.070      342.646       18.201      862.801
05/14/2013  01:48:00       -1.409      -33.565       -0.135       39.070       17.227       19.558     1526.485      296.758      382.509        0.167        0.110       33.594        9.392        0.078      342.488       17.931      862.817
05/14/2013  01:49:00      -17.819      -14.396       -5.846       27.604       17.559        8.313      761.991      308.305       69.100        0.085        0.057       22.908        7.344        0.103      342.518       17.984      862.820
05/14/2013  01:50:00      -52.997       32.534      -11.803       13.863       15.416        6.782      192.173      237.654       45.990        0.224        0.024       62.186        7.916        0.016      342.444       17.857      862.818
05/14/2013  01:51:00      -70.286       26.876      -13.697       17.244       31.687       10.726      297.345     1004.064      115.056        0.363        0.071       75.249        4.999        0.004      342.437       17.845      862.829
05/14/2013  01:52:00       -9.945      -13.053        1.809       13.758       14.656       16.589      189.284      214.796      275.202        0.048        0.034       16.410       15.293        0.868      342.608       18.136      862.812
05/14/2013  01:53:00      -80.085      -17.832       -7.512       39.428       20.994       14.113     1554.579      440.764      199.165        0.449        0.110       82.046        9.178        0.013      342.550       18.037      862.787
05/14/2013  01:54:00     -104.072      -53.384       -3.272       48.644       23.101       16.714     2366.264      533.644      279.345        0.843        0.159      116.965       18.848        0.026      342.336       17.674      862.793
05/14/2013  01:55:00      -27.985       -2.533        7.081       36.433       21.733       13.611     1327.328      472.311      185.246        0.141        0.099       28.099       17.610        0.393      342.323       17.653      862.806
05/14/2013  01:56:00       37.525      -52.302       -4.915       25.027       49.247       18.758      626.332     2425.284      351.873        0.379        0.170       64.371       21.930        0.116      342.379       17.746      862.790
05/14/2013  01:57:00      -20.090      -28.781        1.587       40.314       43.648       25.493     1625.181     1905.163      649.886        0.271        0.209       35.100       28.742        0.671      342.486       17.928      862.797
05/14/2013  01:58:00       -3.873        4.184       12.770       13.903        9.403       12.407      193.291       88.413      153.925        0.032        0.022        5.702        8.050        1.993      342.268       17.558      862.807
05/14/2013  01:59:00       12.092       -9.658        9.986       12.675        9.689        9.355      160.646       93.882       87.514        0.034        0.017       15.475        7.889        0.260      342.229       17.493      862.811
05/14/2013  02:00:00       31.855       -3.442       -0.707       16.224       15.920       13.520      263.230      253.441      182.784        0.086        0.035       32.040       11.226        0.123      342.454       17.875      862.811
05/14/2013  02:01:00       14.080        7.587       -1.718        8.944       12.051        5.139       79.992      145.228       26.414        0.026        0.013       15.994        6.221        0.151      342.454       17.872      862.807
05/14/2013  02:02:00        6.483       21.290        0.083        5.650        4.058        3.773       31.925       16.470       14.233        0.028        0.003       22.255        1.719        0.006      342.371       17.730      862.797
05/14/2013  02:03:00        0.667        1.862       -3.770        4.896        7.846        4.652       23.967       61.561       21.643        0.006        0.005        1.978        3.057        2.388      342.324       17.655      862.775
05/14/2013  02:04:00       -8.120      -21.741        0.721       17.816       10.631        8.904      317.403      113.016       79.283        0.052        0.025       23.208        3.241        0.020      342.455       17.876      862.754
05/14/2013  02:05:00      -24.236      -25.254       -1.253       14.764       11.212        7.593      217.973      125.712       57.658        0.081        0.020       35.002        5.100        0.021      342.364       17.721      862.739
05/14/2013  02:06:00      -25.550      -39.542       -7.881       16.545       14.440       11.147      273.740      208.522      124.261        0.144        0.030       47.079        9.487        0.041      342.234       17.503      862.715
05/14/2013  02:07:00      -42.952      -12.468       -0.950        9.312       10.875        8.421       86.712      118.257       70.906        0.114        0.014       44.725        4.268        0.009      342.109       17.288      862.691
05/14/2013  02:08:00      -17.502       -5.378        0.008       14.710        6.876        5.017      216.385       47.281       25.175        0.031        0.014       18.310        1.869        0.010      342.154       17.365      862.685
05/14/2013  02:09:00      -35.657       -3.402       -6.006       12.100       11.549        6.604      146.418      133.375       43.618        0.082        0.016       35.819        4.975        0.019      342.118       17.304      862.669
05/14/2013  02:10:00      -32.525      -10.977       -1.818        8.476        9.786        4.526       71.842       95.759       20.488        0.068        0.009       34.328        2.170        0.004      342.090       17.255      862.664
05/14/2013  02:11:00       -7.860      -42.939       -5.328       17.606       17.265       10.464      309.969      298.089      109.495        0.133        0.036       43.653        5.294        0.015      342.093       17.260      862.657
05/14/2013  02:12:00      -10.546      -11.649        0.061       17.579       16.673       10.613      309.011      277.993      112.637        0.047        0.035       15.714       10.772        0.470      342.017       17.134      862.656
05/14/2013  02:13:00      -34.690      -28.149        2.457       28.159       19.159       11.858      792.908      367.082      140.604        0.165        0.065       44.674        6.026        0.018      341.997       17.098      862.657
05/14/2013  02:14:00      -34.159      -37.470        6.810       41.380       26.828       17.620     1712.329      719.751      310.463        0.268        0.137       50.703       13.895        0.075      341.916       16.961      862.659
05/14/2013  02:15:00      -72.026      -62.894      -16.273       52.641       34.993       35.844     2771.119     1224.526     1284.810        0.734        0.264       95.621       31.905        0.111      341.870       16.883      862.654
05/14/2013  02:16:00      -60.717      -61.108       -6.451       49.583       27.569       21.412     2458.455      760.028      458.473        0.557        0.184       86.144       18.473        0.046      341.827       16.809      862.659
05/14/2013  02:17:00      -83.121      -54.587      -10.269       23.358       24.097       15.022      545.590      580.662      225.666        0.567        0.068       99.443        3.922        0.002      341.842       16.835      862.654
05/14/2013  02:18:00      -74.922      -61.595       -9.747       24.324       21.659       17.092      591.647      469.131      292.139        0.543        0.068       96.991       13.252        0.019      341.967       17.048      862.648
05/14/2013  02:19:00      -67.461      -47.965        3.073       29.530       23.018       14.690      872.028      529.825      215.790        0.424        0.081       82.774        6.811        0.007      341.979       17.068      862.638
05/14/2013  02:20:00      -42.900      -36.633        2.317       45.029       26.349       21.783     2027.656      694.244      474.518        0.319        0.160       56.413       21.461        0.145      341.910       16.952      862.643
05/14/2013  02:21:00      -85.476      -70.666       11.576       75.608       49.207       40.916     5716.589     2421.284     1674.131        1.112        0.491      110.905       32.218        0.084      341.660       16.527      862.660
05/14/2013  02:22:00      -54.210      -62.798        9.166       77.561       52.477       32.841     6015.732     2753.800     1078.502        0.841        0.492       82.959       33.009        0.158      341.596       16.420      862.662
05/14/2013  02:23:00      -82.568      -72.070        1.873       61.901       33.842       32.806     3831.699     1145.287     1076.253        0.903        0.303      109.597       24.931        0.052      341.496       16.247      862.652
05/14/2013  02:24:00      -72.537      -49.960        8.134       66.011       48.975       29.529     4357.437     2398.576      871.951        0.772        0.381       88.078       30.393        0.119      341.435       16.144      862.645
05/14/2013  02:25:00      -70.239      -51.780       11.955       60.259       42.104       34.581     3631.111     1772.715     1195.872        0.718        0.330       87.263       29.687        0.116      341.449       16.168      862.640
05/14/2013  02:26:00     -101.418      -64.708       -4.044       72.246       48.217       36.166     5219.491     2324.871     1307.990        1.167        0.443      120.302       29.409        0.060      341.400       16.086      862.644
05/14/2013  02:27:00     -115.584      -83.704      -11.385       46.053       38.167       27.043     2120.839     1456.706      731.311        1.240        0.215      142.709       17.504        0.015      341.370       16.034      862.645
05/14/2013  02:28:00      -47.501      -44.229       -0.220       30.202       35.591       20.315      912.185     1266.717      412.715        0.340        0.130       64.904       19.039        0.086      341.277       15.877      862.632
05/14/2013  02:29:00      -29.678      -51.292       -2.929       37.400       22.049       23.716     1398.752      486.165      562.452        0.298        0.122       59.260       16.808        0.080      341.327       15.963      862.628
05/14/2013  02:30:00      -50.637      -27.206       10.177       42.111       30.822       28.277     1773.326      949.993      799.575        0.346        0.176       57.483       18.417        0.103      341.294       15.908      862.639
05/14/2013  02:31:00      -66.021      -66.780        7.946       51.688       42.633       32.888     2671.653     1817.569     1081.596        0.723        0.279       93.906       26.212        0.078      341.272       15.870      862.655
05/14/2013  02:32:00     -102.047     -150.349      -10.218       51.067       52.727       29.735     2607.793     2780.156      884.181        1.970        0.314      181.710       26.096        0.021      341.226       15.792      862.656
05/14/2013  02:33:00      -41.086     -130.598        4.184       65.299       48.711       31.447     4264.015     2372.802      988.916        1.319        0.381      136.908       25.625        0.035      341.261       15.851      862.651
05/14/2013  02:34:00     -115.915     -148.603       -6.100       51.462       46.068       29.027     2648.380     2122.298      842.556        2.058        0.281      188.465       15.923        0.007      341.173       15.701      862.652
05/14/2013  02:35:00      -50.010      -85.981        4.206       59.778       59.389       31.605     3573.451     3527.052      998.875        0.900        0.405       99.467       24.194        0.059      341.183       15.721      862.641
05/14/2013  02:36:00      -71.703      -49.996        9.116       57.549       54.414       34.594     3311.873     2960.896     1196.721        0.760        0.373       87.412       32.373        0.137      341.094       15.569      862.631
05/14/2013  02:37:00     -112.614     -100.823       -0.267       60.476       58.956       32.488     3657.347     3475.787     1055.460        1.552        0.409      151.153       29.934        0.039      341.058       15.507      862.638
05/14/2013  02:38:00     -121.982      -75.114       -0.349       55.360       57.784       35.447     3064.763     3339.048     1256.471        1.409        0.383      143.254       30.225        0.045      341.019       15.441      862.634
05/14/2013  02:39:00     -127.212     -119.191       -9.887       56.081       65.894       36.381     3145.032     4342.040     1323.553        1.965        0.441      174.325       31.983        0.034      341.035       15.467      862.621
05/14/2013  02:40:00      -66.341      -59.448       21.337       75.269       52.411       34.625     5665.432     2746.863     1198.914        0.900        0.481       89.079       33.100        0.138      341.015       15.432      862.611
05/14/2013  02:41:00      -60.012      -44.080        9.418       68.844       49.066       34.209     4739.522     2407.456     1170.279        0.697        0.416       74.461       25.627        0.118      341.050       15.494      862.612
05/14/2013  02:42:00      -85.265      -58.950        2.261       80.097       53.903       35.567     6415.533     2905.507     1265.023        1.067        0.529      103.660       36.667        0.125      340.991       15.393      862.598
05/14/2013  02:43:00      -86.974      -57.898        8.988       65.812       40.447       31.513     4331.245     1635.979      993.095        0.898        0.348      104.483       29.365        0.079      341.008       15.423      862.594
05/14/2013  02:44:00      -11.238      -42.928       14.059       49.167       36.344       28.608     2417.393     1320.915      818.396        0.336        0.228       44.375       21.322        0.231      341.043       15.483      862.591
05/14/2013  02:45:00      -30.221      -47.403        9.881       56.214       39.947       22.806     3160.068     1595.752      520.115        0.427        0.264       56.217       16.810        0.089      341.024       15.449      862.583
05/14/2013  02:46:00       -8.607      -41.550       18.625       34.405       31.538       24.948     1183.676      994.644      622.409        0.247        0.140       42.432       19.482        0.211      341.067       15.523      862.583
05/14/2013  02:47:00      -28.925      -56.314        7.727       51.365       43.787       31.873     2638.329     1917.318     1015.877        0.482        0.279       63.308       27.406        0.187      341.071       15.529      862.587
05/14/2013  02:48:00      -66.121      -49.096        9.495       74.766       50.709       27.223     5589.967     2571.386      741.087        0.789        0.445       82.356       31.749        0.149      340.985       15.382      862.574
05/14/2013  02:49:00     -100.884      -77.642        5.565       54.791       53.864       35.747     3002.054     2901.356     1277.856        1.171        0.359      127.302       35.089        0.076      340.988       15.389      862.579
05/14/2013  02:50:00     -142.549     -120.721       -5.724       50.300       39.179       29.313     2530.093     1534.966      859.226        1.992        0.246      186.799       23.100        0.015      340.927       15.284      862.567
05/14/2013  02:51:00     -105.830      -84.652        7.581       81.408       55.609       40.155     6627.189     3092.383     1612.387        1.488        0.567      135.521       49.485        0.133      340.893       15.226      862.558
05/14/2013  02:52:00      -36.793      -28.491       16.664       66.794       40.666       24.313     4461.467     1653.725      591.130        0.457        0.335       46.534       27.697        0.354      340.883       15.210      862.559
05/14/2013  02:53:00      -49.342      -21.373       11.732       57.446       37.652       22.918     3300.008     1417.636      525.245        0.414        0.262       53.772       18.165        0.114      340.889       15.221      862.548
05/14/2013  02:54:00      -45.111      -38.401       16.094       49.942       48.818       28.849     2494.188     2383.173      832.258        0.474        0.285       59.242       28.583        0.233      340.967       15.352      862.533
05/14/2013  02:55:00      -65.259      -47.331        8.986       44.284       49.495       32.597     1961.088     2449.751     1062.569        0.603        0.274       80.616       20.194        0.063      340.955       15.332      862.520
05/14/2013  02:56:00      -43.351      -45.775       -4.177       69.276       34.969       24.219     4799.114     1222.849      586.569        0.530        0.330       63.045       16.626        0.070      340.943       15.313      862.510
05/14/2013  02:57:00      -64.675      -50.331        0.890       50.299       36.823       23.068     2529.999     1355.916      532.138        0.557        0.221       81.951       14.712        0.032      340.897       15.235      862.510
05/14/2013  02:58:00      -35.160      -42.711        7.644       54.539       35.349       32.806     2974.499     1249.566     1076.246        0.421        0.265       55.321       29.138        0.277      340.893       15.227      862.502
05/14/2013  02:59:00      -54.623      -42.581        0.296       56.745       33.641       25.681     3220.005     1131.717      659.505        0.490        0.251       69.259       22.210        0.103      340.915       15.266      862.497
05/14/2013  03:00:00     -115.115     -101.696       -1.036       64.013       58.245       32.797     4097.640     3392.466     1075.649        1.608        0.428      153.602       33.185        0.047      340.882       15.208      862.506
05/14/2013  03:01:00     -100.129      -99.372        1.423       44.620       47.031       31.103     1990.960     2211.880      967.425        1.254        0.259      141.070       30.726        0.047      340.842       15.142      862.504
05/14/2013  03:02:00     -141.531     -107.009      -10.023       54.940       40.404       29.067     3018.442     1632.456      844.907        1.854        0.275      177.432       20.343        0.013      340.837       15.131      862.518
05/14/2013  03:03:00     -119.227     -106.145       -0.078       56.386       48.321       31.588     3179.360     2334.907      997.821        1.600        0.326      159.631       25.087        0.025      340.836       15.130      862.521
05/14/2013  03:04:00     -149.671     -134.157       -6.761       51.856       56.241       31.279     2689.003     3163.089      978.396        2.364        0.342      200.996       30.832        0.024      340.820       15.102      862.515
05/14/2013  03:05:00     -132.395      -79.374       -3.113       70.626       47.551       34.334     4988.085     2261.122     1178.850        1.613        0.421      154.365       35.431        0.053      340.768       15.015      862.524
05/14/2013  03:06:00      -99.398      -80.483       -0.573       71.519       56.312       30.704     5114.975     3171.016      942.761        1.279        0.461      127.896       31.044        0.059      340.739       14.968      862.527
05/14/2013  03:07:00     -123.164      -89.765       -1.389       71.936       67.779       42.671     5174.847     4593.966     1820.849        1.741        0.579      152.404       39.480        0.067      340.711       14.919      862.526
05/14/2013  03:08:00     -151.247     -129.933       -4.725       80.929       80.572       44.553     6549.574     6491.889     1984.947        2.740        0.751      199.395       46.916        0.055      340.683       14.870      862.538
05/14/2013  03:09:00     -138.358      -92.953        4.148       65.219       60.992       37.475     4253.568     3720.059     1404.400        1.859        0.469      166.683       33.693        0.041      340.639       14.796      862.545
05/14/2013  03:10:00     -140.275     -100.007        3.620       63.778       65.233       37.771     4067.642     4255.351     1426.684        1.972        0.487      172.275       35.589        0.043      340.600       14.730      862.542
05/14/2013  03:11:00     -122.844      -79.351        6.883       85.949       50.683       43.579     7387.198     2568.748     1899.094        1.664        0.593      146.244       48.441        0.110      340.587       14.709      862.542
05/14/2013  03:12:00      -68.755      -85.154       11.677       80.362       57.106       36.080     6458.075     3261.092     1301.787        1.157        0.551      109.446       40.486        0.137      340.625       14.775      862.542
05/14/2013  03:13:00     -146.192      -92.624       -0.220       86.042       62.002       45.763     7403.193     3844.186     2094.286        2.164        0.667      173.065       49.416        0.082      340.564       14.668      862.539
05/14/2013  03:14:00     -159.279     -128.572       -4.491       72.257       57.231       44.282     5221.140     3275.401     1960.908        2.619        0.523      204.696       38.920        0.036      340.594       14.719      862.559
05/14/2013  03:15:00     -151.782     -125.522       -2.844       70.886       71.084       38.261     5024.827     5052.950     1463.877        2.517        0.577      196.961       42.093        0.046      340.548       14.640      862.558
05/14/2013  03:16:00     -154.671      -97.871       -8.529       45.514       42.375       27.257     2071.511     1795.646      742.954        1.909        0.231      183.035       20.443        0.012      340.540       14.629      862.561
05/14/2013  03:17:00      -84.159      -78.033       -0.133       69.091       55.321       32.141     4773.529     3060.443     1033.043        1.102        0.443      114.769       35.840        0.098      340.525       14.606      862.558
05/14/2013  03:18:00      -96.496      -60.109       -4.066       45.556       46.048       23.055     2075.376     2120.410      531.525        0.883        0.236      113.687       23.917        0.044      340.550       14.647      862.541
05/14/2013  03:19:00      -77.847       -6.764       -1.152       44.351       30.390       23.324     1967.014      923.535      543.989        0.477        0.172       78.141       19.569        0.063      340.480       14.531      862.527
05/14/2013  03:20:00     -104.927        4.321       -0.643       54.716       32.800       26.265     2993.865     1075.824      689.827        0.789        0.238      105.016       26.914        0.066      340.338       14.288      862.535
05/14/2013  03:21:00      -86.424        3.509        4.779       64.339       42.126       27.904     4139.568     1774.631      778.658        0.710        0.335       86.495       28.747        0.110      340.161       13.990      862.523
05/14/2013  03:22:00     -111.521       -9.361        5.004       51.050       47.337       28.450     2606.089     2240.773      809.398        0.910        0.283      111.913       30.786        0.076      340.134       13.944      862.526
05/14/2013  03:23:00     -111.591      -27.549        5.208       44.860       39.121       20.884     2012.391     1530.432      436.140        0.861        0.199      114.941       16.227        0.020      340.080       13.852      862.522
05/14/2013  03:24:00      -95.674      -20.949       -0.193       39.941       32.149       21.843     1595.271     1033.571      477.118        0.635        0.155       97.941       20.499        0.044      340.111       13.906      862.531
05/14/2013  03:25:00      -74.460      -20.927        0.439       30.398       25.132       14.367      924.023      631.626      206.415        0.387        0.088       77.345       11.596        0.022      340.066       13.831      862.537
05/14/2013  03:26:00      -52.372      -32.158       -1.491       18.640       12.227       15.193      347.451      149.509      230.838        0.225        0.036       61.457        9.560        0.024      340.072       13.841      862.538
05/14/2013  03:27:00      -71.604       -0.622       -8.933       21.888       22.272       13.228      479.106      496.025      174.983        0.318        0.058       71.607        8.567        0.014      340.061       13.821      862.547
05/14/2013  03:28:00      -66.630       -2.316       -6.404       29.449       22.807       13.014      867.230      520.172      169.353        0.302        0.078       66.671        8.973        0.018      340.078       13.851      862.550
05/14/2013  03:29:00      -86.567        5.895       -6.337       14.966       14.268       13.390      223.975      203.589      179.296        0.409        0.030       86.767        2.334        0.001      340.214       14.081      862.536
05/14/2013  03:30:00      -73.284      -17.994       -3.516       20.984       15.351       12.365      440.319      235.668      152.904        0.327        0.041       75.461        8.305        0.012      340.220       14.090      862.535
05/14/2013  03:31:00      -67.917      -17.402        1.742       18.004       20.261       11.104      324.147      410.527      123.300        0.289        0.043       70.111        8.815        0.016      340.253       14.145      862.530
05/14/2013  03:32:00      -72.770      -28.517      -10.472       15.354       16.037        9.572      235.750      257.200       91.621        0.340        0.029       78.159        6.107        0.006      340.269       14.172      862.522
05/14/2013  03:33:00      -31.265      -22.899        5.653       28.467       12.984       11.513      810.366      168.583      132.538        0.132        0.056       38.754       15.478        0.160      340.298       14.220      862.532
05/14/2013  03:34:00      -22.382      -12.055        1.515       23.106       18.642        9.242      533.895      347.520       85.418        0.081        0.048       25.422       10.162        0.160      340.295       14.216      862.531
05/14/2013  03:35:00        3.738      -30.981        6.474       20.791       14.076        9.912      432.270      198.127       98.253        0.087        0.036       31.205        9.518        0.093      340.391       14.379      862.526
05/14/2013  03:36:00      -64.216      -38.958        0.046       29.225       19.932       13.760      854.089      397.303      189.325        0.354        0.072       75.109       11.270        0.023      340.349       14.308      862.534
05/14/2013  03:37:00      -33.471      -23.438        5.968       31.291       17.890       14.668      979.103      320.045      215.149        0.161        0.076       40.862       14.953        0.134      340.369       14.343      862.544
05/14/2013  03:38:00      -23.396      -27.769        5.584       25.704       22.170       15.520      660.711      491.492      240.869        0.137        0.070       36.311       16.065        0.196      340.371       14.345      862.535
05/14/2013  03:39:00      -37.116      -14.926       13.957       31.355       23.667       17.967      983.113      560.104      322.813        0.183        0.093       40.005       18.225        0.208      340.323       14.264      862.526
05/14/2013  03:40:00      -78.503      -33.899        1.256       36.980       28.230       21.684     1367.518      796.937      470.178        0.497        0.132       85.509       21.650        0.064      340.334       14.282      862.527
05/14/2013  03:41:00      -54.054      -45.085        1.755       40.255       29.085       22.248     1620.504      845.923      494.983        0.396        0.148       70.388       17.223        0.060      340.320       14.259      862.526
05/14/2013  03:42:00      -68.368      -44.849        8.853       44.753       34.032       21.654     2002.852     1158.177      468.912        0.520        0.181       81.766       21.146        0.067      340.323       14.264      862.512
05/14/2013  03:43:00      -79.815      -57.206       -6.504       20.748       26.708       16.706      430.471      713.326      279.093        0.555        0.071       98.199       11.738        0.014      340.377       14.355      862.506
05/14/2013  03:44:00      -67.131      -30.475        5.790       33.594       25.045       16.803     1128.533      627.253      282.346        0.375        0.102       73.724       15.198        0.042      340.328       14.273      862.493
05/14/2013  03:45:00      -88.930      -22.717       -3.059       24.557       33.684       14.971      603.065     1134.590      224.118        0.520        0.098       91.785       11.500        0.016      340.332       14.279      862.488
05/14/2013  03:46:00      -80.662      -15.930       -1.803       23.728       21.463       15.004      563.003      460.672      225.112        0.401        0.062       82.220       12.470        0.023      340.339       14.291      862.479
05/14/2013  03:47:00      -78.523      -24.319        5.386       27.840       24.887       17.878      775.089      619.373      319.615        0.425        0.086       82.203       15.127        0.034      340.303       14.230      862.478
05/14/2013  03:48:00     -104.456      -24.677        2.368       37.685       30.031       19.311     1420.150      901.860      372.900        0.711        0.135      107.332       20.423        0.036      340.289       14.206      862.479
05/14/2013  03:49:00     -107.367      -55.672       -0.623       24.997       25.132       18.088      624.832      631.637      327.159        0.811        0.079      120.943       15.028        0.015      340.399       14.391      862.473
05/14/2013  03:50:00     -131.463      -36.411        0.966       26.344       23.716       14.949      694.010      562.437      223.485        1.004        0.074      136.412       12.713        0.009      340.486       14.540      862.460
05/14/2013  03:51:00      -82.989      -48.724        0.590       28.740       26.209       14.676      826.004      686.909      215.399        0.549        0.086       96.235       14.154        0.022      340.466       14.505      862.467
05/14/2013  03:52:00      -62.977      -29.808       -0.464       30.574       29.712       16.222      934.779      882.810      263.166        0.347        0.104       69.675       13.374        0.037      340.466       14.505      862.474
05/14/2013  03:53:00      -34.366      -24.627        2.379       27.176       25.154       16.350      738.546      632.729      267.338        0.172        0.082       42.279       14.994        0.126      340.399       14.392      862.483
05/14/2013  03:54:00      -75.341      -29.846        9.174       53.304       26.880       18.618     2841.322      722.543      346.646        0.528        0.196       81.038       28.725        0.126      340.295       14.216      862.492
05/14/2013  03:55:00      -87.490      -22.248       -1.270       38.034       39.729       18.841     1446.616     1578.409      354.966        0.577        0.169       90.275       20.384        0.051      340.320       14.260      862.490
05/14/2013  03:56:00      -71.812      -18.488       -0.869       25.230       27.432       19.570      636.577      752.537      382.998        0.364        0.089       74.153       13.553        0.033      340.066       13.830      862.497
05/14/2013  03:57:00      -84.292       27.760      -16.439       48.911       29.788       24.297     2392.334      887.304      590.360        0.601        0.193       88.745       24.661        0.077      339.760       13.314      862.484
05/14/2013  03:58:00     -138.267       33.117      -13.624       69.093       43.583       27.016     4773.794     1899.505      729.865        1.390        0.370      142.178       31.194        0.048      339.751       13.299      862.478
05/14/2013  03:59:00     -148.392       26.656      -13.047       54.919       47.220       24.710     3016.080     2229.755      610.562        1.438        0.293      150.767       18.612        0.015      339.741       13.283      862.472
05/14/2013  04:00:00     -133.921      -19.276       -9.735       47.693       39.281       28.812     2274.613     1542.973      830.142        1.152        0.232      135.301       24.681        0.033      339.695       13.204      862.476
05/14/2013  04:01:00     -183.291      -25.158      -22.754       57.214       49.783       26.266     3273.429     2478.374      689.909        2.059        0.322      185.009       26.164        0.020      339.756       13.305      862.459
05/14/2013  04:02:00     -192.231      -61.818      -16.582       40.481       35.983       27.140     1638.727     1294.750      736.587        2.236        0.184      201.926       22.148        0.012      339.795       13.373      862.442
05/14/2013  04:03:00     -190.333      -46.079      -13.275       46.555       53.442       29.528     2167.378     2856.032      871.918        2.221        0.295      195.831       21.738        0.012      339.662       13.148      862.427
05/14/2013  04:04:00     -189.627      -11.325       -9.326       50.062       30.460       26.528     2506.211      927.784      703.754        2.015        0.207      189.965       25.543        0.018      339.601       13.044      862.423
05/14/2013  04:05:00     -189.599        7.499      -14.019       42.083       37.508       27.696     1770.981     1406.845      767.073        2.007        0.197      189.747       26.218        0.019      339.559       12.974      862.432
05/14/2013  04:06:00     -121.385      -24.127       -1.612       48.480       39.865       26.805     2350.276     1589.253      718.507        0.999        0.233      123.760       21.212        0.029      339.570       12.992      862.426
05/14/2013  04:07:00     -121.208      -14.163      -10.160       45.713       28.038       19.287     2089.724      786.109      371.985        0.912        0.162      122.033       20.633        0.029      339.541       12.944      862.428
05/14/2013  04:08:00     -108.675       -9.242       -5.863       31.680       31.768       19.834     1003.598     1009.220      393.390        0.717        0.120      109.067       16.996        0.024      339.524       12.917      862.449
05/14/2013  04:09:00     -120.108       -8.828       -5.764       34.140       39.027       16.911     1165.537     1523.131      285.986        0.876        0.149      120.432       16.813        0.019      339.633       13.103      862.454
05/14/2013  04:10:00     -151.117        8.595      -10.833       34.134       28.720       19.538     1165.146      824.853      381.724        1.270        0.119      151.361       14.831        0.010      339.758       13.310      862.451
05/14/2013  04:11:00     -188.473       12.242       -7.121       56.319       39.332       28.950     3171.848     1547.045      838.076        2.064        0.278      188.870       27.931        0.022      339.797       13.375      862.453
05/14/2013  04:12:00     -162.575        0.048       -8.461       40.731       32.477       20.460     1659.029     1054.773      418.631        1.482        0.157      162.575       17.950        0.012      339.773       13.338      862.450
05/14/2013  04:13:00     -129.886      -46.622       -0.710       41.528       30.998       18.643     1724.579      960.879      347.549        1.104        0.152      138.000       21.856        0.025      339.781       13.350      862.441
05/14/2013  04:14:00     -114.466      -52.759       -3.452       33.027       29.099       19.786     1090.790      846.775      391.481        0.911        0.116      126.039       17.143        0.018      339.805       13.390      862.447
05/14/2013  04:15:00     -157.963      -71.537       -1.902       51.210       46.078       22.381     2622.466     2123.213      500.929        1.766        0.262      173.407       23.625        0.019      339.730       13.264      862.452
05/14/2013  04:16:00     -188.045      -77.059       -0.101       37.316       30.655       27.502     1392.492      939.699      756.366        2.219        0.154      203.222       21.934        0.012      339.698       13.209      862.445
05/14/2013  04:17:00     -142.413      -49.810        3.192       48.439       44.539       25.930     2346.335     1983.732      672.370        1.389        0.250      150.873       25.932        0.030      339.691       13.198      862.450
05/14/2013  04:18:00     -148.564      -38.374       -2.880       48.366       35.504       22.603     2339.247     1260.502      510.907        1.383        0.206      153.440       22.231        0.021      339.705       13.221      862.455
05/14/2013  04:19:00     -116.375      -67.839        2.746       45.678       44.258       24.734     2086.453     1958.759      611.752        1.140        0.233      134.704       24.558        0.033      339.748       13.293      862.451
05/14/2013  04:20:00     -137.135      -47.309        1.940       39.590       38.777       21.024     1567.404     1503.675      442.003        1.228        0.176      145.066       20.931        0.021      339.805       13.391      862.459
05/14/2013  04:21:00     -115.101      -58.745       -1.151       37.074       27.420       17.325     1374.453      751.858      300.160        0.956        0.121      129.226       13.694        0.011      339.846       13.459      862.469
05/14/2013  04:22:00     -153.025      -39.753       -7.352       26.968       28.419       16.810      727.289      807.644      282.576        1.343        0.091      158.105       11.654        0.005      339.784       13.354      862.461
05/14/2013  04:23:00     -106.737      -35.140       -5.922       32.321       31.562       14.029     1044.651      996.175      196.804        0.745        0.112      112.373       16.763        0.022      339.743       13.286      862.466
05/14/2013  04:24:00      -76.286      -51.298        0.520       26.671       31.665       16.772      711.327     1002.685      281.311        0.522        0.100       91.929       13.175        0.021      339.772       13.335      862.468
05/14/2013  04:25:00      -33.785      -83.422       -3.304       33.547       17.568       15.844     1125.415      308.651      251.022        0.490        0.084       90.004       15.052        0.028      340.056       13.815      862.465
05/14/2013  04:26:00      -33.035      -32.388       10.009       36.484       47.817       19.452     1331.083     2286.467      378.380        0.312        0.200       46.263       26.816        0.336      340.010       13.735      862.469
05/14/2013  04:27:00      -33.466       -0.045        5.380       24.305       16.569       21.913      590.720      274.529      480.160        0.125        0.067       33.466       16.667        0.248      339.927       13.595      862.472
05/14/2013  04:28:00      -59.546        4.615       -4.465       23.914       15.562       13.161      571.897      242.179      173.224        0.229        0.049       59.725        7.753        0.017      339.978       13.683      862.468
05/14/2013  04:29:00      -36.240      -52.687        3.584       29.212       23.764       15.682      853.361      564.720      245.915        0.288        0.083       63.947       10.246        0.026      339.924       13.591      862.468
05/14/2013  04:30:00      -27.704      -41.802       10.206       47.440       29.928       23.822     2250.597      895.696      567.497        0.317        0.186       50.149       28.152        0.315      339.891       13.536      862.462
05/14/2013  04:31:00      -43.329      -48.916        7.482       44.047       29.784       21.837     1940.176      887.088      476.834        0.381        0.165       65.346       19.363        0.088      339.869       13.498      862.454
05/14/2013  04:32:00      -75.694      -68.168       -1.304       45.721       35.329       25.332     2090.448     1248.107      641.710        0.718        0.199      101.865       21.802        0.046      339.843       13.453      862.449
05/14/2013  04:33:00      -61.862      -31.983        8.106       36.957       25.057       21.116     1365.836      627.860      445.877        0.368        0.122       69.641       20.059        0.083      339.795       13.373      862.456
05/14/2013  04:34:00      -13.367      -38.987       14.334       33.929       21.830       21.186     1151.169      476.564      448.846        0.199        0.104       41.215       19.062        0.214      339.834       13.440      862.454
05/14/2013  04:35:00      -67.242      -64.767       -2.211       28.320       24.506       20.398      802.008      600.541      416.067        0.527        0.091       93.361       17.660        0.036      339.832       13.436      862.461
05/14/2013  04:36:00      -61.357      -73.079       -4.266       28.902       25.215       20.114      835.342      635.772      404.554        0.550        0.094       95.421       20.456        0.046      339.881       13.519      862.461
05/14/2013  04:37:00      -71.494      -66.072       -7.080       40.588       24.355       16.914     1647.398      593.162      286.071        0.603        0.126       97.350       18.494        0.036      339.930       13.601      862.474
05/14/2013  04:38:00      -79.520      -55.564       -1.573       46.991       35.585       25.454     2208.137     1266.259      647.881        0.677        0.206       97.010       31.154        0.103      339.903       13.554      862.483
05/14/2013  04:39:00      -97.858      -54.911       -3.214       39.421       30.009       17.867     1554.000      900.564      319.246        0.769        0.139      112.211       11.949        0.011      339.908       13.564      862.486
05/14/2013  04:40:00     -102.906      -54.459       -3.304       51.911       31.276       24.352     2694.793      978.173      593.044        0.892        0.213      116.428       24.576        0.045      339.820       13.417      862.480
05/14/2013  04:41:00     -129.294      -50.744       -5.184       35.265       29.949       20.382     1243.599      896.963      415.423        1.094        0.128      138.895       15.638        0.013      339.759       13.311      862.479
05/14/2013  04:42:00     -130.676      -62.744       -1.133       35.330       28.790       21.297     1248.218      828.853      453.564        1.177        0.127      144.959       17.221        0.014      339.723       13.252      862.475
05/14/2013  04:43:00     -103.670      -65.927        2.883       36.656       34.569       19.935     1343.695     1195.039      397.406        0.902        0.147      122.857       21.338        0.030      339.727       13.261      862.457
05/14/2013  04:44:00     -128.732      -52.721      -14.325       19.116       22.952       14.888      365.435      526.810      221.646        1.034        0.056      139.109        6.117        0.002      339.652       13.131      862.436
05/14/2013  04:45:00     -103.561       -3.543       -6.670       45.239       29.096       20.219     2046.553      846.549      408.810        0.704        0.165      103.621       21.919        0.045      339.619       13.076      862.429
05/14/2013  04:46:00      -86.195        7.230       -1.882       33.156       26.996       24.038     1099.298      728.765      577.844        0.495        0.120       86.498       23.705        0.075      339.537       12.938      862.413
05/14/2013  04:47:00      -81.868        0.699       -7.299       19.908       20.475       14.467      396.343      419.235      209.290        0.389        0.051       81.871       13.466        0.027      339.614       13.070      862.407
05/14/2013  04:48:00      -51.438      -15.365       -7.202       14.006       24.670       11.812      196.169      608.613      139.529        0.194        0.047       53.684        5.857        0.012      339.618       13.075      862.404
05/14/2013  04:49:00      -76.962      -42.576       -4.833       18.089       16.984       14.392      327.208      288.448      207.123        0.429        0.041       87.953        8.161        0.009      339.580       13.012      862.416
05/14/2013  04:50:00      -96.513      -54.281       -4.700       27.724       22.998       15.788      768.628      528.924      249.251        0.691        0.077      110.731       11.236        0.010      339.619       13.077      862.436
05/14/2013  04:51:00     -111.803      -61.073       -4.289       25.475       24.140       14.365      648.967      582.754      206.351        0.884        0.072      127.397       11.184        0.008      339.685       13.188      862.448
05/14/2013  04:52:00      -64.924      -45.923       -2.543       39.520       27.162       18.903     1561.809      737.754      357.332        0.449        0.133       79.524       18.568        0.055      339.676       13.173      862.461
05/14/2013  04:53:00      -32.729      -48.672        3.053       35.842       28.643       19.679     1284.656      820.411      387.276        0.297        0.125       58.653       17.730        0.091      339.710       13.231      862.470
05/14/2013  04:54:00      -49.827      -44.841       -2.698       28.582       22.236       14.413      816.955      494.447      207.722        0.301        0.076       67.033       14.516        0.047      339.741       13.284      862.486
05/14/2013  04:55:00      -50.002      -42.395       -2.325       17.828       14.436       10.972      317.844      208.408      120.385        0.247        0.032       65.555        5.264        0.006      339.782       13.352      862.498
05/14/2013  04:56:00      -14.639      -35.816       -2.491       17.928       12.558       11.550      321.399      157.704      133.399        0.106        0.031       38.692        7.016        0.033      339.860       13.484      862.498
05/14/2013  04:57:00      -23.519      -46.541       -6.578       17.909       12.549       12.587      320.733      157.465      158.439        0.170        0.032       52.146        3.648        0.005      339.910       13.569      862.483
05/14/2013  04:58:00      -32.819      -49.588       -6.151       19.116       17.046       13.773      365.407      290.559      189.695        0.221        0.042       59.465        8.040        0.018      339.831       13.433      862.466
05/14/2013  04:59:00      -53.202      -48.881       -0.586       22.932       23.001       16.500      525.863      529.053      272.250        0.327        0.066       72.248       12.261        0.029      339.803       13.387      862.446
05/14/2013  05:00:00      -58.501      -39.343       -8.487       25.480       16.684       13.234      649.232      278.353      175.147        0.307        0.055       70.500        4.970        0.005      339.824       13.420      862.445
05/14/2013  05:01:00      -67.090      -28.797       -5.523       18.383       19.578       11.115      337.929      383.308      123.545        0.310        0.042       73.009        8.567        0.014      339.874       13.505      862.442
05/14/2013  05:02:00      -49.706      -43.453       -4.206       27.363       17.446        9.293      748.741      304.360       86.363        0.276        0.057       66.022        7.450        0.013      339.923       13.590      862.450
05/14/2013  05:03:00      -24.271      -22.103        7.763       28.898       17.653       12.565      835.093      311.634      157.880        0.122        0.065       32.827       10.117        0.095      339.890       13.533      862.447
05/14/2013  05:04:00      -44.619      -35.720       -4.218       26.968       22.859       13.553      727.259      522.540      183.671        0.236        0.072       57.156       11.755        0.042      339.899       13.549      862.449
05/14/2013  05:05:00     -106.261      -52.434      -11.262       31.867       20.888       15.740     1015.521      436.309      247.743        0.793        0.085      118.494        6.900        0.003      339.918       13.583      862.442
05/14/2013  05:06:00     -103.901      -50.536       -3.548       38.825       24.314       20.494     1507.343      591.188      420.015        0.794        0.126      115.539       19.979        0.030      339.805       13.390      862.440
05/14/2013  05:07:00      -64.232      -46.130       -0.450       43.342       25.319       20.797     1878.509      641.066      432.506        0.460        0.148       79.081       17.047        0.046      339.735       13.271      862.443
05/14/2013  05:08:00      -98.805      -73.171       -4.449       50.045       32.187       20.668     2504.486     1035.987      427.174        0.955        0.198      122.950       22.828        0.034      339.791       13.366      862.445
05/14/2013  05:09:00     -102.771      -71.995        0.728       50.434       34.188       24.052     2543.542     1168.826      578.476        1.002        0.215      125.479       20.980        0.028      339.746       13.292      862.442
05/14/2013  05:10:00      -87.263      -66.743        2.205       58.069       36.578       24.208     3372.060     1337.917      586.010        0.868        0.265      109.862       24.326        0.049      339.733       13.270      862.446
05/14/2013  05:11:00      -66.758      -56.122        5.872       43.548       34.915       26.532     1896.425     1219.026      703.952        0.573        0.191       87.214       20.574        0.056      339.730       13.263      862.455
05/14/2013  05:12:00      -30.861      -53.952       16.852       42.320       39.771       24.842     1790.954     1581.733      617.121        0.407        0.199       62.155       23.742        0.146      339.738       13.279      862.486
05/14/2013  05:13:00      -56.236      -74.228       -7.986       34.862       28.257       17.742     1215.330      798.436      314.777        0.553        0.116       93.125        9.228        0.010      339.790       13.365      862.516
05/14/2013  05:14:00      -20.453      -75.714        1.645       22.579       30.413       21.607      509.805      924.951      466.861        0.403        0.095       78.428       18.370        0.055      339.848       13.463      862.519
05/14/2013  05:15:00      -43.508      -76.566       -4.934       26.511       47.865       17.245      702.816     2291.039      297.401        0.553        0.165       88.064        7.898        0.008      339.832       13.435      862.516
05/14/2013  05:16:00      -23.522      -26.715       15.531       39.935       31.315       24.152     1594.780      980.625      583.310        0.233        0.158       35.595       20.145        0.320      339.731       13.266      862.511
05/14/2013  05:17:00      -55.200      -56.205        9.596       46.423       39.374       25.665     2155.061     1550.324      658.701        0.533        0.218       78.779       31.798        0.163      339.629       13.092      862.505
05/14/2013  05:18:00      -88.020      -67.906        2.855       54.153       39.545       27.437     2932.586     1563.791      752.804        0.881        0.262      111.169       26.618        0.057      339.612       13.065      862.499
05/14/2013  05:19:00      -84.560      -49.283        4.920       51.471       38.085       28.653     2649.258     1450.470      821.008        0.726        0.246       97.874       30.333        0.096      339.500       12.874      862.515
05/14/2013  05:20:00      -99.577      -94.365       -0.698       45.126       39.220       30.886     2036.352     1538.244      953.923        1.167        0.226      137.187       31.091        0.051      339.520       12.908      862.528
05/14/2013  05:21:00     -101.314      -97.032       -4.744       30.829       23.032       18.654      950.413      530.485      347.957        1.077        0.091      140.284       19.055        0.018      339.483       12.846      862.531
05/14/2013  05:22:00      -85.988      -80.186        2.432       37.463       24.759       21.391     1403.469      613.031      457.583        0.815        0.124      117.575       22.698        0.037      339.496       12.867      862.531
05/14/2013  05:23:00     -107.064      -94.820       -4.427       44.128       24.762       21.853     1947.319      613.137      477.547        1.175        0.152      143.015       19.326        0.018      339.479       12.840      862.534
05/14/2013  05:24:00     -114.030      -90.087       -4.447       27.234       31.129       25.560      741.682      968.988      653.307        1.175        0.118      145.322       23.094        0.025      339.481       12.842      862.532
05/14/2013  05:25:00     -114.620      -84.975        3.509       52.435       32.412       25.936     2749.413     1050.509      672.665        1.242        0.224      142.683       28.139        0.039      339.448       12.788      862.523
05/14/2013  05:26:00      -71.962      -47.307        8.905       47.265       29.332       22.997     2233.986      860.355      528.876        0.556        0.181       86.119       22.751        0.070      339.438       12.771      862.504
05/14/2013  05:27:00      -76.766      -43.373       -3.325       48.297       31.378       23.034     2332.556      984.593      530.546        0.582        0.192       88.172       18.829        0.046      339.470       12.825      862.491
05/14/2013  05:28:00      -83.713      -64.675       -0.106       34.994       26.325       19.566     1224.567      692.984      382.838        0.675        0.115      105.786       15.432        0.021      339.461       12.808      862.484
05/14/2013  05:29:00      -57.315      -58.669        2.406       32.464       27.439       18.576     1053.904      752.893      345.070        0.444        0.108       82.018       16.399        0.040      339.512       12.896      862.471
05/14/2013  05:30:00      -71.866      -69.643        0.154       26.489       28.412       13.482      701.657      807.226      181.760        0.585        0.085      100.074        9.821        0.010      339.583       13.015      862.460
05/14/2013  05:31:00      -92.483      -51.945        4.706       37.892       27.042       19.251     1435.792      731.295      370.620        0.691        0.127      106.072       18.401        0.030      339.425       12.749      862.442
05/14/2013  05:32:00      -53.323      -38.800        9.431       45.112       24.868       24.141     2035.073      618.442      582.787        0.384        0.162       65.945       23.836        0.131      339.479       12.840      862.443
05/14/2013  05:33:00      -90.973      -52.016       -8.248       22.012       20.581       13.263      484.527      423.570      175.918        0.607        0.054      104.794       12.367        0.014      339.473       12.830      862.432
05/14/2013  05:34:00      -99.901      -22.128       -3.681       29.698       19.475       18.218      881.959      379.267      331.884        0.604        0.080      102.322       16.972        0.028      339.433       12.762      862.426
05/14/2013  05:35:00     -100.157      -33.765       -6.421       25.622       23.921       17.290      656.466      572.223      298.958        0.637        0.076      105.695       13.640        0.017      339.376       12.666      862.428
05/14/2013  05:36:00      -74.942      -29.969       -4.398       12.769       14.848       12.335      163.051      220.454      152.160        0.353        0.027       80.712        6.139        0.006      339.434       12.766      862.437
05/14/2013  05:37:00      -25.119      -49.942        4.009       25.623       14.143       15.255      656.537      200.024      232.722        0.212        0.054       55.903       14.920        0.071      339.483       12.847      862.442
05/14/2013  05:38:00      -13.690      -29.374        9.938       13.194       13.427       12.753      174.072      180.288      162.638        0.083        0.026       32.407        3.152        0.009      339.505       12.883      862.438
05/14/2013  05:39:00      -76.331      -55.390       -5.013       22.305        9.623       13.168      497.515       92.593      173.406        0.484        0.038       94.311       12.761        0.018      339.399       12.705      862.439
05/14/2013  05:40:00      -88.614      -52.644       -7.850       16.527       11.253       17.946      273.158      126.641      322.060        0.570        0.036      103.072       11.239        0.012      339.418       12.737      862.440
05/14/2013  05:41:00      -92.801      -40.009       -2.258       16.715       18.231       14.117      279.376      332.380      199.283        0.551        0.041      101.058        4.109        0.002      339.309       12.553      862.434
05/14/2013  05:42:00      -31.607      -41.620        4.560       31.695       21.364       17.836     1004.562      456.406      318.106        0.227        0.089       52.261       16.252        0.097      339.403       12.713      862.437
05/14/2013  05:43:00      -23.307      -51.157        9.470       30.775       26.198       20.530      947.092      686.357      421.464        0.265        0.103       56.216       14.926        0.070      339.390       12.691      862.441
05/14/2013  05:44:00      -51.184      -66.144        2.531       36.548       31.419       25.276     1335.733      987.128      638.898        0.498        0.148       83.635       21.509        0.066      339.434       12.765      862.454
05/14/2013  05:45:00      -57.572      -46.203       -1.847       38.725       13.630       17.990     1499.663      185.785      323.657        0.373        0.100       73.819       19.506        0.070      339.454       12.797      862.457
05/14/2013  05:46:00      -79.283      -58.553        0.145       40.001       18.257       18.386     1600.074      333.327      338.030        0.599        0.114       98.560       12.068        0.015      339.362       12.643      862.459
05/14/2013  05:47:00      -50.331      -49.196        1.593       33.756       28.925       18.035     1139.498      836.679      325.245        0.363        0.115       70.381       17.819        0.064      339.343       12.610      862.458
05/14/2013  05:48:00      -68.793      -47.024        7.107       53.099       38.883       23.215     2819.478     1511.879      538.948        0.593        0.244       83.329       28.706        0.119      339.348       12.620      862.453
05/14/2013  05:49:00     -100.959      -78.456        0.942       36.947       29.384       22.446     1365.056      863.416      503.827        0.954        0.137      127.860       19.423        0.023      339.297       12.533      862.445
05/14/2013  05:50:00      -86.657      -70.128        1.304       45.912       38.006       25.676     2107.950     1444.478      659.245        0.832        0.211      111.478       23.688        0.045      339.261       12.473      862.447
05/14/2013  05:51:00      -45.125      -55.490        3.469       39.754       32.935       24.620     1580.388     1084.692      606.140        0.420        0.164       71.522       19.163        0.072      339.313       12.561      862.449
05/14/2013  05:52:00      -60.902      -73.656        8.971       43.713       33.775       23.432     1910.840     1140.767      549.059        0.641        0.180       95.574       21.064        0.049      339.320       12.571      862.450
05/14/2013  05:53:00      -63.665      -78.079       -0.012       66.935       41.305       31.904     4480.240     1706.075     1017.844        0.868        0.360      100.745       29.996        0.089      339.263       12.477      862.456
05/14/2013  05:54:00       -4.430      -43.549       15.554       48.318       42.958       31.521     2334.655     1845.355      993.579        0.366        0.259       43.774       22.169        0.256      339.202       12.374      862.453
05/14/2013  05:55:00      -43.228      -43.485        1.551       50.990       49.117       30.324     2600.007     2412.508      919.549        0.485        0.297       61.315       21.605        0.124      339.167       12.316      862.463
05/14/2013  05:56:00     -121.790      -81.030       10.184       86.762       48.593       37.890     7527.576     2361.306     1435.626        1.641        0.566      146.283       30.153        0.042      339.144       12.276      862.461
05/14/2013  05:57:00     -103.976      -95.412        5.708       67.621       60.119       34.655     4572.544     3614.291     1200.935        1.467        0.469      141.119       41.452        0.086      339.111       12.219      862.462
05/14/2013  05:58:00      -98.247      -85.598        1.186       57.603       42.526       32.379     3318.152     1808.478     1048.375        1.158        0.309      130.305       31.118        0.057      339.148       12.283      862.476
05/14/2013  05:59:00      -81.893      -93.497        9.438       53.005       39.676       28.985     2809.532     1574.203      840.154        1.038        0.261      124.291       32.618        0.069      339.240       12.437      862.496
05/14/2013  06:00:00      -77.610      -62.171       13.390       57.796       39.223       35.545     3340.420     1538.444     1263.440        0.810        0.307       99.441       33.698        0.115      339.204       12.377      862.510
05/14/2013  06:01:00     -152.508     -135.328      -13.689       51.523       34.579       29.281     2654.635     1195.704      857.362        2.323        0.235      203.893       27.157        0.018      339.137       12.263      862.512
05/14/2013  06:02:00     -176.085     -132.389       -2.688       42.678       52.269       34.494     1821.430     2732.070     1189.802        2.714        0.287      220.301       29.791        0.018      339.165       12.308      862.503
05/14/2013  06:03:00     -176.393     -130.242       -3.232       65.967       52.725       34.909     4351.688     2779.930     1218.664        2.822        0.418      219.266       31.258        0.020      339.108       12.212      862.501
05/14/2013  06:04:00     -152.130     -125.763        2.956       74.824       48.813       40.752     5598.668     2382.721     1660.740        2.430        0.482      197.383       42.564        0.047      339.065       12.140      862.502
05/14/2013  06:05:00     -160.015     -120.260       -2.315       63.687       49.288       32.950     4055.979     2429.309     1085.687        2.382        0.379      200.168       37.196        0.035      339.111       12.217      862.499
05/14/2013  06:06:00     -120.540      -85.281      -15.357       41.687       42.401       23.795     1737.829     1797.826      566.187        1.307        0.205      147.657       20.151        0.019      339.134       12.259      862.508
05/14/2013  06:07:00      -83.159      -47.934        1.969       40.027       36.349       29.612     1602.162     1321.221      876.889        0.651        0.190       95.984       19.615        0.042      339.167       12.314      862.511
05/14/2013  06:08:00      -66.748      -44.173        2.404       46.168       30.154       25.681     2131.512      909.290      659.525        0.506        0.185       80.040       25.456        0.101      339.205       12.378      862.517
05/14/2013  06:09:00      -56.447      -40.071       10.227       40.927       24.872       22.037     1675.049      618.632      485.637        0.384        0.139       69.224       21.919        0.100      339.223       12.409      862.526
05/14/2013  06:10:00      -24.881      -50.159       -0.463       23.063       25.485       14.181      531.883      649.474      201.094        0.226        0.069       55.991       13.092        0.055      339.268       12.484      862.534
05/14/2013  06:11:00      -49.432      -25.154      -12.123       18.293       18.676       12.599      334.642      348.798      158.728        0.203        0.042       55.464        6.402        0.013      339.297       12.534      862.539
05/14/2013  06:12:00      -61.558      -23.543       -5.598       18.603       16.203        9.383      346.090      262.539       88.041        0.254        0.035       65.906        6.959        0.011      339.265       12.478      862.541
05/14/2013  06:13:00      -68.880      -17.007       -7.228       23.663       18.340       15.426      559.914      336.365      237.960        0.311        0.057       70.949       12.012        0.029      339.261       12.473      862.536
05/14/2013  06:14:00      -60.334      -26.221       -5.371       14.636       17.546       10.170      214.213      307.864      103.436        0.249        0.031       65.785        6.542        0.010      339.141       12.272      862.540
05/14/2013  06:15:00      -46.605      -16.492       -6.159       23.602       12.712       10.183      557.061      161.601      103.700        0.165        0.041       49.437        6.027        0.015      339.212       12.391      862.545
05/14/2013  06:16:00      -13.401      -34.561       -4.419       23.136       12.772       14.318      535.260      163.131      205.019        0.115        0.045       37.068        4.294        0.013      339.295       12.530      862.560
05/14/2013  06:17:00      -15.147      -36.423       -8.727       22.709       13.857       11.814      515.686      192.004      139.580        0.124        0.042       39.447        6.070        0.024      339.241       12.441      862.575
05/14/2013  06:18:00       -7.981      -34.489      -10.670       12.448       12.698       14.355      154.943      161.239      206.079        0.094        0.026       35.400        5.396        0.023      339.325       12.581      862.582
05/14/2013  06:19:00      -12.857      -36.464       -2.265       29.975       17.211       14.239      898.528      296.235      202.751        0.145        0.070       38.664       12.822        0.110      339.348       12.621      862.592
05/14/2013  06:20:00      -41.414      -23.499       -6.389       24.433       16.059       15.615      596.979      257.905      243.831        0.170        0.055       47.616        8.811        0.034      339.288       12.517      862.594
05/14/2013  06:21:00      -56.227      -51.364       -3.639       33.576       25.116       16.241     1127.379      630.806      263.769        0.392        0.101       76.156       15.489        0.041      339.233       12.426      862.594
05/14/2013  06:22:00      -58.539      -58.789       -2.622       20.727       17.845       14.812      429.613      318.461      219.394        0.393        0.048       82.963        8.308        0.010      339.263       12.477      862.593
05/14/2013  06:23:00      -28.482      -63.675       -1.416       20.820       34.800       14.203      433.474     1211.058      201.713        0.336        0.092       69.755       13.718        0.039      339.272       12.493      862.599
05/14/2013  06:24:00       18.363      -45.347        6.959       19.010       18.059       16.302      361.387      326.141      265.741        0.170        0.048       48.924       10.615        0.047      339.401       12.709      862.604
05/14/2013  06:25:00      -13.709      -22.572        2.446       12.227       15.103       10.734      149.496      228.086      115.215        0.060        0.025       26.409        9.004        0.116      339.499       12.874      862.609
05/14/2013  06:26:00      -50.308      -44.378        0.346       15.793       17.312       12.003      249.434      299.715      144.062        0.260        0.035       67.085        4.974        0.005      339.434       12.765      862.615
05/14/2013  06:27:00      -60.124      -46.019       -2.583       38.521       25.829       16.594     1483.884      667.157      275.345        0.408        0.121       75.714       13.870        0.034      339.375       12.664      862.617
05/14/2013  06:28:00      -12.418      -24.317       15.176       23.775       22.322       18.128      565.260      498.274      328.641        0.118        0.070       27.305       13.647        0.250      339.456       12.802      862.623
05/14/2013  06:29:00      -55.088      -53.382       -6.239       41.662       23.295       16.996     1735.734      542.652      288.870        0.424        0.128       76.710       18.880        0.061      339.338       12.603      862.643
05/14/2013  06:30:00      -62.842      -58.858       -7.348       39.283       22.318       18.475     1543.123      498.078      341.310        0.492        0.119       86.101       11.655        0.018      339.340       12.609      862.665
05/14/2013  06:31:00     -102.918      -83.475       -2.980       38.601       40.225       26.018     1490.054     1618.016      676.912        1.068        0.189      132.515       21.786        0.027      339.326       12.583      862.654
05/14/2013  06:32:00     -103.486      -98.248       -5.366       46.981       43.006       26.982     2207.176     1849.548      728.008        1.259        0.239      142.695       31.347        0.048      339.366       12.649      862.666
05/14/2013  06:33:00      -89.540      -60.944        5.589       44.277       34.505       23.762     1960.434     1190.609      564.621        0.774        0.186      108.312       21.953        0.041      339.397       12.703      862.666
05/14/2013  06:34:00      -29.696      -33.079       13.140       40.643       29.429       24.494     1651.851      866.080      599.942        0.263        0.156       44.453       23.446        0.278      339.505       12.884      862.664
05/14/2013  06:35:00      -49.216      -59.781       -2.047       31.037       31.416       18.487      963.278      986.995      341.777        0.415        0.115       77.434       17.992        0.054      339.506       12.886      862.667
05/14/2013  06:36:00      -89.546      -49.706       -6.489       29.806       29.490       20.949      888.400      869.631      438.874        0.636        0.110      102.417       22.501        0.048      339.437       12.771      862.673
05/14/2013  06:37:00     -104.537      -36.733       -1.959       42.622       32.704       19.257     1816.599     1069.538      370.828        0.777        0.163      110.803       21.647        0.038      339.403       12.713      862.669
05/14/2013  06:38:00     -126.306      -35.729       -3.283       33.416       27.164       14.434     1116.642      737.874      208.329        0.965        0.103      131.262       11.418        0.008      339.477       12.836      862.671
05/14/2013  06:39:00      -99.081      -49.086       -4.636       25.733       33.299       17.742      662.199     1108.845      314.766        0.717        0.104      110.573       11.503        0.011      339.441       12.776      862.656
05/14/2013  06:40:00      -86.819      -24.941       -4.245       41.961       24.854       21.138     1760.736      617.739      446.802        0.550        0.141       90.330       22.761        0.063      339.459       12.806      862.655
05/14/2013  06:41:00      -64.808      -22.652        0.287       38.050       31.822       18.445     1447.808     1012.655      340.233        0.376        0.140       68.653       19.697        0.082      339.517       12.904      862.647
05/14/2013  06:42:00      -64.069      -76.351       -4.791       38.863       28.467       18.193     1510.315      810.389      330.995        0.630        0.133       99.671       18.115        0.033      339.463       12.813      862.652
05/14/2013  06:43:00      -55.971      -49.171       -9.007       22.395       24.032       15.334      501.548      577.527      235.138        0.347        0.066       74.502       11.162        0.022      339.472       12.827      862.645
05/14/2013  06:44:00      -67.065      -27.024       -0.437       25.859       19.262       12.523      668.689      371.026      156.816        0.321        0.060       72.305        9.202        0.016      339.497       12.870      862.647
05/14/2013  06:45:00      -87.670      -40.055       -7.804       23.396       19.471       15.283      547.371      379.111      233.572        0.526        0.058       96.387       11.911        0.015      339.525       12.916      862.639
05/14/2013  06:46:00      -48.054      -55.113        3.278       29.353       37.715       21.183      861.595     1422.407      448.708        0.404        0.137       73.120       19.510        0.071      339.572       12.998      862.644
05/14/2013  06:47:00      -41.899      -54.677       -3.720       23.594       23.002       14.688      556.698      529.077      215.730        0.303        0.065       68.885       12.671        0.034      339.600       13.046      862.647
05/14/2013  06:48:00      -61.920      -39.901        2.951       30.971       16.171       18.662      959.218      261.494      348.277        0.350        0.078       73.663       17.136        0.054      339.631       13.098      862.646
05/14/2013  06:49:00      -69.795      -56.366       -7.645       20.016       20.132       15.205      400.636      405.292      231.178        0.457        0.052       89.713       11.563        0.017      339.609       13.061      862.649
05/14/2013  06:50:00      -87.823      -43.752       -6.713       29.131       18.299       12.803      848.627      334.855      163.918        0.551        0.067       98.118       13.163        0.018      339.642       13.115      862.644
05/14/2013  06:51:00      -74.648      -49.613       -6.608       41.429       23.729       13.802     1716.363      563.067      190.489        0.527        0.123       89.632       13.892        0.024      339.670       13.164      862.637
05/14/2013  06:52:00      -96.604      -97.582       -1.874       49.168       36.654       30.602     2417.527     1343.507      936.465        1.178        0.235      137.312       32.148        0.055      339.658       13.142      862.643
05/14/2013  06:53:00      -92.572     -100.089        3.234       49.551       33.985       31.318     2455.351     1155.001      980.846        1.159        0.230      136.335       30.784        0.051      339.656       13.138      862.635
05/14/2013  06:54:00      -90.244      -79.571      -10.333       27.783       33.789       19.229      771.894     1141.703      369.749        0.843        0.114      120.314       19.943        0.027      339.694       13.205      862.644
05/14/2013  06:55:00      -67.643      -44.601       -1.180       26.959       28.047       14.890      726.784      786.650      221.714        0.415        0.087       81.023       16.939        0.044      339.753       13.304      862.653
05/14/2013  06:56:00      -43.880      -52.628       -0.218       30.948       28.080       19.871      957.782      788.500      394.858        0.342        0.107       68.522       19.491        0.081      339.863       13.488      862.666
05/14/2013  06:57:00      -80.969      -42.130       -3.481       25.831       35.652       19.925      667.263     1271.042      396.999        0.534        0.117       91.274       16.652        0.033      339.797       13.379      862.665
05/14/2013  06:58:00      -86.005      -51.113       -2.628       46.511       27.571       21.401     2163.313      760.138      457.988        0.670        0.169      100.047       26.544        0.070      339.877       13.511      862.672
05/14/2013  06:59:00      -66.056      -44.713        2.945       43.800       30.565       23.511     1918.442      934.207      552.763        0.489        0.170       79.766       25.370        0.101      339.821       13.418      862.663
05/14/2013  07:00:00      -77.396      -32.457      -10.818       23.228       30.421       13.138      539.547      925.420      172.606        0.440        0.082       83.926        8.050        0.009      339.850       13.466      862.662
05/14/2013  07:01:00      -51.738      -27.511       -2.670       48.162       27.290       21.947     2319.543      744.726      481.676        0.349        0.177       58.598       26.010        0.197      339.931       13.602      862.656
05/14/2013  07:02:00      -75.738      -10.443        4.874       63.345       34.887       26.885     4012.563     1217.074      722.796        0.591        0.298       76.455       32.049        0.176      340.232       14.111      862.656
05/14/2013  07:03:00     -113.602       -2.035       -4.476       62.068       39.157       31.551     3852.464     1533.285      995.467        0.965        0.319      113.620       32.486        0.082      340.212       14.077      862.658
05/14/2013  07:04:00     -141.222        0.703      -15.705       37.853       38.735       26.552     1432.830     1500.399      705.017        1.191        0.182      141.223       21.896        0.024      340.206       14.068      862.666
05/14/2013  07:05:00     -116.806       -3.462       -6.364       37.420       39.823       29.030     1400.243     1585.870      842.760        0.876        0.191      116.857       25.128        0.046      340.102       13.891      862.678
05/14/2013  07:06:00     -157.402       -0.701      -11.208       46.315       37.594       24.957     2145.034     1413.333      622.838        1.454        0.209      157.404       26.146        0.028      340.182       14.026      862.695
05/14/2013  07:07:00     -143.079      -32.533      -12.790       35.707       33.799       24.136     1274.990     1142.383      582.567        1.235        0.150      146.732       17.713        0.015      339.941       13.621      862.714
05/14/2013  07:08:00     -161.581      -49.184      -21.629       30.038       24.494       16.199      902.279      599.966      262.416        1.538        0.088      168.901       15.998        0.009      339.817       13.413      862.725
05/14/2013  07:09:00     -104.032      -50.769       -6.675       40.180       29.602       21.519     1614.427      876.295      463.063        0.820        0.148      115.758       17.723        0.023      339.825       13.425      862.736
05/14/2013  07:10:00     -132.892       -8.013       -7.146       29.471       24.991       15.061      868.550      624.575      226.820        0.975        0.086      133.133        6.321        0.002      339.828       13.430      862.755
05/14/2013  07:11:00      -88.507      -68.556       -3.709       31.681       18.252       16.609     1003.691      333.129      275.845        0.708        0.081      111.953       14.464        0.017      339.925       13.592      862.770
05/14/2013  07:12:00      -85.399      -61.985       -6.904       24.625       16.371       13.027      606.412      267.994      169.711        0.611        0.052      105.523        5.972        0.003      339.962       13.656      862.790
05/14/2013  07:13:00      -21.312      -46.060        3.840       19.345       12.979       10.817      374.211      168.453      117.010        0.162        0.033       50.751        7.509        0.022      340.015       13.746      862.799
05/14/2013  07:14:00      -26.903      -38.995        3.593       20.432       23.560       14.608      417.454      555.086      213.389        0.172        0.059       47.374       14.658        0.096      340.171       14.007      862.813
05/14/2013  07:15:00      -12.695      -43.944       -1.415       20.881       21.794       18.144      436.012      474.976      329.201        0.167        0.062       45.741       14.379        0.099      340.174       14.013      862.822
05/14/2013  07:16:00      -36.634      -65.577       -6.559       21.332       19.355       15.794      455.033      374.606      249.463        0.338        0.054       75.116       13.607        0.033      340.121       13.923      862.817
05/14/2013  07:17:00      -27.226      -55.462        0.725       10.105       13.125       11.594      102.118      172.263      134.431        0.211        0.020       61.784        6.721        0.012      340.130       13.938      862.813
05/14/2013  07:18:00      -38.058      -61.357      -14.956       10.747       16.517       10.004      115.489      272.812      100.075        0.296        0.024       72.202        4.794        0.004      340.093       13.876      862.808
05/14/2013  07:19:00      -45.524      -44.400       -8.869       23.623       15.895       14.518      558.033      252.646      210.761        0.257        0.051       63.590        6.007        0.009      340.190       14.038      862.795
05/14/2013  07:20:00      -53.705      -38.737       -7.273        7.737        9.502        6.818       59.858       90.288       46.489        0.232        0.010       66.218        5.090        0.006      340.236       14.116      862.788
05/14/2013  07:21:00      -40.631      -50.494       -7.124       12.311       15.335       10.006      151.570      235.163      100.125        0.237        0.024       64.812        6.462        0.010      340.269       14.173      862.768
05/14/2013  07:22:00      -28.556      -15.165        2.425       22.202       23.517       17.652      492.919      553.052      311.586        0.120        0.068       32.333       15.419        0.227      340.663       14.839      862.753
05/14/2013  07:23:00      -23.537      -28.212       -2.475       20.193       17.800        9.816      407.751      316.827       96.353        0.109        0.041       36.741        7.666        0.044      340.428       14.443      862.737
05/14/2013  07:24:00      -24.153       -6.093       -1.470        9.255        8.503        7.150       85.653       72.301       51.117        0.042        0.010       24.910        3.112        0.016      340.414       14.418      862.737
05/14/2013  07:25:00      -25.228        4.630       22.982       18.410       18.644       14.841      338.913      347.595      220.264        0.105        0.045       25.650        9.196        0.129      340.928       15.288      862.737
05/14/2013  07:26:00       -0.414       16.550       41.582       21.487       25.055       15.686      461.689      627.778      246.062        0.167        0.067       16.555        9.524        0.331      341.156       15.673      862.729
05/14/2013  07:27:00       -8.005      -19.856       30.864       21.303       33.076       21.892      453.806     1094.027      479.262        0.172        0.101       21.409       23.081        1.162      341.092       15.564      862.722
05/14/2013  07:28:00      -16.505      -29.360       10.007       22.937       26.189       15.675      526.092      685.839      245.694        0.135        0.073       33.682        9.429        0.078      340.770       15.021      862.720
05/14/2013  07:29:00        4.081      -35.016       12.491       42.900       39.773       44.001     1840.377     1581.872     1936.049        0.338        0.268       35.253       27.752        0.620      340.786       15.047      862.708
05/14/2013  07:30:00       -9.382      -47.388       31.971       44.769       34.375       26.545     2004.305     1181.649      704.661        0.362        0.195       48.307       20.441        0.179      340.867       15.184      862.702
05/14/2013  07:31:00      -27.354        7.577       38.216       24.316       44.657       17.020      591.279     1994.280      289.690        0.257        0.144       28.384        5.319        0.035      341.104       15.586      862.705
05/14/2013  07:32:00      -12.811      -23.954       36.707       26.822       30.615       21.819      719.443      937.303      476.061        0.211        0.107       27.165       16.115        0.352      341.179       15.713      862.709
05/14/2013  07:33:00      -16.048      -17.811       35.786       29.431       45.792       26.724      866.175     2096.865      714.171        0.277        0.184       23.974       20.758        0.750      341.128       15.625      862.712
05/14/2013  07:34:00      -38.182      -26.302       18.852       27.526       30.147       22.221      757.698      908.870      493.770        0.233        0.108       46.364       20.436        0.194      341.065       15.519      862.713
05/14/2013  07:35:00      -18.170      -12.220       29.482       26.016       23.455       16.299      676.822      550.115      265.647        0.142        0.075       21.897       11.742        0.288      341.316       15.945      862.727
05/14/2013  07:36:00       26.485       39.129       64.139       41.219       40.925       27.761     1698.992     1674.860      770.696        0.524        0.207       47.250       26.118        0.306      341.109       15.593      862.735
05/14/2013  07:37:00       11.998      -18.659       38.046       33.348       45.737       34.589     1112.078     2091.831     1196.401        0.317        0.220       22.183       36.409        2.694      341.387       16.065      862.740
05/14/2013  07:38:00       11.524       23.945       64.878       36.235       34.686       23.578     1312.988     1203.127      555.942        0.399        0.154       26.574       25.412        0.914      341.290       15.900      862.745
05/14/2013  07:39:00       -7.843      -21.601       20.290       29.034       24.914       29.990      842.976      620.689      899.394        0.165        0.118       22.981       19.407        0.713      341.273       15.873      862.745
05/14/2013  07:40:00       -9.098        4.996       24.735       26.102       18.194       19.958      681.314      331.019      398.302        0.106        0.071       10.379       13.594        1.715      341.391       16.071      862.749
05/14/2013  07:41:00        0.136        7.402       33.881       29.677       31.723       22.600      880.743     1006.371      510.758        0.180        0.120        7.404       20.592        7.736      341.401       16.088      862.744
05/14/2013  07:42:00       -4.624       31.852       54.409       28.516       29.680       24.815      813.160      880.920      615.797        0.315        0.115       32.186       22.088        0.471      341.304       15.924      862.738
05/14/2013  07:43:00       10.334       56.134       67.589       23.114       32.403       22.005      534.276     1049.933      484.229        0.495        0.103       57.077       21.645        0.144      341.083       15.550      862.739
05/14/2013  07:44:00       45.323       11.159        9.501       33.801       24.335       26.408     1142.476      592.198      697.397        0.235        0.122       46.677       19.283        0.171      341.057       15.506      862.736
05/14/2013  07:45:00       15.513        4.337       17.284       19.430       19.360       21.420      377.534      374.791      458.805        0.088        0.061       16.108       13.319        0.684      341.480       16.223      862.736
05/14/2013  07:46:00       -0.930      -32.119        5.526       29.242       24.454       18.254      855.104      597.974      333.193        0.142        0.089       32.133       18.308        0.325      341.461       16.190      862.727
05/14/2013  07:47:00      -38.770       -9.801        9.844       36.976       23.514       22.546     1367.208      552.894      508.336        0.206        0.121       39.990       23.681        0.351      341.415       16.114      862.722
05/14/2013  07:48:00      -57.590        7.608        8.425       31.910       32.640       28.312     1018.223     1065.402      801.565        0.316        0.144       58.090       28.543        0.241      341.053       15.498      862.711
05/14/2013  07:49:00      -32.263      -21.132       12.294       33.844       28.839       20.985     1145.395      831.695      440.353        0.203        0.121       38.567       21.811        0.320      341.438       16.151      862.704
05/14/2013  07:50:00      -39.356        2.034       24.008       33.635       29.017       29.494     1131.309      841.998      869.883        0.249        0.142       39.408       27.639        0.492      341.339       15.984      862.710
05/14/2013  07:51:00       -1.453      -17.216       22.932       12.947       24.390       20.222      167.631      594.883      408.949        0.100        0.059       17.277       14.925        0.746      341.657       16.522      862.708
05/14/2013  07:52:00      -33.571      -29.739       -3.867       18.464       13.268        8.848      340.917      176.035       78.290        0.131        0.030       44.848        6.412        0.020      340.992       15.396      862.707
05/14/2013  07:53:00      -38.728      -18.902       19.424       28.938       22.712       13.313      837.415      515.816      177.237        0.188        0.077       43.095       11.489        0.071      341.150       15.664      862.713
05/14/2013  07:54:00       -5.037       34.876       31.941       20.400       18.429       23.431      416.149      339.619      549.021        0.178        0.065       35.238       16.695        0.224      341.459       16.186      862.706
05/14/2013  07:55:00       -2.471       15.203       15.043       32.050       21.752       17.960     1027.181      473.134      322.559        0.114        0.091       15.402       12.826        0.693      341.512       16.277      862.688
05/14/2013  07:56:00        8.749       17.611       38.574       25.702       20.249       17.521      660.613      410.030      306.997        0.163        0.069       19.665       11.147        0.321      342.008       17.118      862.683
05/14/2013  07:57:00        2.445        2.629       23.983       16.873       21.435       20.268      284.710      459.480      410.778        0.087        0.058        3.590       10.583        8.691      342.135       17.333      862.682
05/14/2013  07:58:00       84.611       47.921       24.418       50.820       25.812       31.936     2582.715      666.277     1019.903        0.716        0.213       97.239       24.143        0.062      341.401       16.088      862.670
05/14/2013  07:59:00       97.559       53.064       15.294       36.205       33.925       25.258     1310.787     1150.925      637.961        0.783        0.155      111.057       19.950        0.032      341.137       15.641      862.664
05/14/2013  08:00:00       94.241       54.247        7.162       30.960       29.987       25.900      958.502      899.234      670.823        0.720        0.126      108.739       16.089        0.022      341.167       15.692      862.654
05/14/2013  08:01:00       70.239       53.163       11.062       28.783       25.357       28.036      828.441      642.961      786.008        0.507        0.113       88.090       19.759        0.050      341.300       15.916      862.643
05/14/2013  08:02:00       68.920       45.750       -0.616       22.379       19.146       17.636      500.816      366.559      311.041        0.401        0.059       82.723       11.549        0.019      341.296       15.909      862.628
05/14/2013  08:03:00       51.420       37.523       14.510       28.983       22.227       29.128      839.993      494.062      848.467        0.322        0.109       63.655       19.798        0.097      341.535       16.314      862.631
05/14/2013  08:04:00       65.015       42.341       21.365       27.529       19.001       19.048      757.872      361.056      362.809        0.398        0.074       77.587       12.685        0.027      341.414       16.111      862.636
05/14/2013  08:05:00       63.587       40.185       15.770       42.037       30.854       26.155     1767.085      951.967      684.066        0.465        0.170       75.221       15.965        0.045      341.792       16.751      862.633
05/14/2013  08:06:00       59.629       67.911       54.889       48.193       35.937       26.528     2322.579     1291.494      703.709        0.775        0.216       90.374       25.122        0.077      341.728       16.641      862.633
05/14/2013  08:07:00       46.168       41.783       42.907       34.962       47.898       31.658     1222.313     2294.251     1002.229        0.512        0.226       62.268       19.556        0.099      341.455       16.180      862.630
05/14/2013  08:08:00       21.841       -2.231       27.161       27.283       32.314       24.713      744.378     1044.165      610.739        0.181        0.120       21.954       22.151        1.018      341.588       16.406      862.626
05/14/2013  08:09:00       22.419       14.894       10.977       23.046       32.577       21.101      531.107     1061.255      445.248        0.144        0.102       26.915       11.062        0.169      341.546       16.334      862.610
05/14/2013  08:10:00       20.939       23.035       23.178       24.540       33.283       28.199      602.211     1107.761      795.188        0.201        0.125       31.129       16.986        0.298      341.734       16.652      862.594
05/14/2013  08:11:00       40.182       40.532       53.183       44.977       37.592       31.513     2022.960     1413.121      993.097        0.526        0.221       57.074       17.162        0.090      341.775       16.724      862.576
05/14/2013  08:12:00       70.877       39.672       11.009       19.336       22.661       23.746      373.894      513.510      563.859        0.408        0.073       81.225        8.672        0.011      341.324       15.958      862.562
05/14/2013  08:13:00       53.556       51.409       22.238       35.777       21.745       36.867     1280.009      472.832     1359.167        0.456        0.156       74.237       12.378        0.028      341.428       16.135      862.552
05/14/2013  08:14:00       10.618       12.254       16.077       23.060       20.013       15.263      531.756      400.531      232.947        0.084        0.058       16.214       12.441        0.589      342.001       17.106      862.542
05/14/2013  08:15:00       -1.177       -4.161       24.387       14.884       15.808       14.930      221.527      249.889      222.892        0.065        0.035        4.324       14.303       10.940      342.287       17.594      862.531
05/14/2013  08:16:00       12.168      -48.455       16.184       38.436       24.391       26.940     1477.337      594.921      725.756        0.278        0.140       49.959       19.347        0.150      341.579       16.390      862.530
05/14/2013  08:17:00       35.533      -50.667      -11.600       30.049       41.808       26.723      902.950     1747.876      714.141        0.366        0.168       61.885       17.475        0.080      341.312       15.937      862.519
05/14/2013  08:18:00       17.212      -29.752        9.642       39.530       41.535       41.311     1562.592     1725.120     1706.600        0.313        0.250       34.371       30.302        0.777      341.933       16.990      862.511
05/14/2013  08:19:00       38.040      -55.667        3.953       38.953       43.414       36.870     1517.344     1884.754     1359.411        0.466        0.238       67.423       19.229        0.081      341.786       16.741      862.499
05/14/2013  08:20:00        1.215        0.831       35.542       19.798       35.046       17.529      391.966     1228.206      307.259        0.160        0.096        1.472       15.151      105.928      342.460       17.885      862.488
05/14/2013  08:21:00       -0.261        7.504       24.335       21.450       35.919       22.267      460.082     1290.181      495.807        0.145        0.112        7.508       12.653        2.840      342.331       17.668      862.473
05/14/2013  08:22:00       -5.027      -14.980       18.366       16.800       27.365       24.266      282.233      748.859      588.818        0.110        0.081       15.801       10.215        0.418      342.283       17.585      862.462
05/14/2013  08:23:00       33.126       16.612       29.640       26.930       26.069       31.067      725.201      679.577      965.180        0.231        0.118       37.058       22.987        0.385      342.287       17.591      862.449
05/14/2013  08:24:00       57.830       54.533       -0.668       22.092       20.417       22.373      488.073      416.850      500.563        0.386        0.070       79.487       15.798        0.040      341.628       16.471      862.429
05/14/2013  08:25:00        8.395       38.621       -9.831       10.425       24.536       16.341      108.689      602.002      267.036        0.132        0.049       39.523       16.599        0.176      341.915       16.959      862.411
05/14/2013  08:26:00        1.634        7.020       24.815       14.424       20.216       13.627      208.037      408.680      185.686        0.073        0.040        7.208       13.178        3.343      342.655       18.217      862.402
05/14/2013  08:27:00        3.623        7.843       17.543       15.104       17.604       18.383      228.140      309.905      337.933        0.063        0.044        8.640       11.803        1.866      342.657       18.222      862.388
05/14/2013  08:28:00      -25.148       15.997        3.493       20.757       16.049       20.276      430.859      257.562      411.111        0.100        0.055       29.804       11.138        0.140      342.253       17.533      862.388
05/14/2013  08:29:00      -26.038       -3.436        4.808       18.989       16.250       13.826      360.564      264.054      191.168        0.076        0.041       26.264        7.476        0.081      342.152       17.362      862.383
05/14/2013  08:30:00       -9.303       16.294       30.150       19.132       17.585       11.497      366.031      309.229      132.186        0.103        0.040       18.763        9.289        0.245      342.968       18.751      862.373
05/14/2013  08:31:00      -15.162      -28.172       12.664       15.393       36.722       24.455      236.930     1348.491      598.032        0.168        0.109       31.993       23.957        0.561      342.284       17.585      862.381
05/14/2013  08:32:00       31.762       -7.394       18.736       24.993       24.954       29.630      624.667      622.716      877.916        0.177        0.106       32.611       18.992        0.339      342.024       17.145      862.371
05/14/2013  08:33:00        0.925      -10.857       18.491       15.589       24.587       20.802      243.030      604.518      432.736        0.087        0.064       10.896        9.614        0.778      342.615       18.150      862.369
05/14/2013  08:34:00        2.081       -5.556       24.497       19.959       23.791       21.662      398.352      566.030      469.252        0.103        0.072        5.933       13.229        4.971      342.696       18.286      862.367
05/14/2013  08:35:00       -7.317       52.755       35.198       17.963       44.466       23.267      322.670     1977.269      541.352        0.346        0.142       53.260       22.996        0.186      343.208       19.159      862.356
05/14/2013  08:36:00       10.554       22.571       23.595       40.157       39.113       25.302     1612.588     1529.789      640.207        0.248        0.189       24.916       20.929        0.706      342.942       18.706      862.352
05/14/2013  08:37:00       13.333      -43.349       11.581       35.493       38.447       25.301     1259.788     1478.144      640.151        0.278        0.169       45.353       23.309        0.264      342.307       17.626      862.348
05/14/2013  08:38:00      -13.788       27.336       16.368       32.674       37.219       23.815     1067.564     1385.220      567.144        0.211        0.151       30.616       11.836        0.149      342.590       18.106      862.338
05/14/2013  08:39:00      -13.740       -3.387       33.999       22.278       51.185       22.988      496.313     2619.856      528.448        0.250        0.182       14.151       25.641        3.283      342.921       18.670      862.333
05/14/2013  08:40:00      -45.252      -47.983        0.139       41.845       32.442       15.962     1751.012     1052.473      254.794        0.370        0.153       65.956       11.843        0.032      342.487       17.932      862.318
05/14/2013  08:41:00      -72.733      -73.724        1.886       47.012       45.004       31.493     2210.108     2025.328      991.784        0.798        0.261      103.563       29.975        0.084      342.203       17.449      862.306
05/14/2013  08:42:00      -34.531      -45.509       10.184       48.535       47.930       29.506     2355.658     2297.240      870.624        0.444        0.276       57.127       33.898        0.352      342.518       17.985      862.296
05/14/2013  08:43:00      -49.909      -82.097       10.560       46.940       48.637       33.431     2203.392     2365.534     1117.616        0.751        0.284       96.077       37.976        0.156      342.288       17.592      862.288
05/14/2013  08:44:00      -43.969      -98.467       -6.726       32.509       36.759       23.650     1056.834     1351.210      559.346        0.732        0.148      107.838       15.295        0.020      342.258       17.542      862.295
05/14/2013  08:45:00      -33.561      -44.821        0.851       46.952       43.795       30.507     2204.502     1917.995      930.705        0.409        0.253       55.993       31.805        0.323      342.567       18.067      862.291
05/14/2013  08:46:00      -46.398      -71.685       -0.617       29.413       17.654       14.080      865.133      311.648      198.244        0.433        0.069       85.390       14.046        0.027      342.158       17.371      862.296
05/14/2013  08:47:00      -13.704      -59.934        8.723       10.822       23.937       11.012      117.111      572.994      121.261        0.233        0.041       61.481        7.813        0.016      342.252       17.529      862.304
05/14/2013  08:48:00       -8.543     -104.918        5.251       15.158       21.124       13.321      229.774      446.204      177.436        0.598        0.043      105.266        4.242        0.002      342.226       17.489      862.308
05/14/2013  08:49:00      -15.764      -99.584       -5.223       35.856       20.008       14.310     1285.678      400.309      204.782        0.604        0.095      100.824        7.470        0.005      342.262       17.549      862.311
05/14/2013  08:50:00      -25.573      -46.679      -11.923       24.298       21.346       14.497      590.387      455.641      210.172        0.212        0.063       53.225       10.330        0.038      342.332       17.670      862.312
05/14/2013  08:51:00       -9.101      -52.292       -7.223       17.582       17.742       14.279      309.111      314.764      203.904        0.185        0.041       53.078       10.544        0.039      342.352       17.702      862.307
05/14/2013  08:52:00      -31.386      -50.493      -15.814       30.718       27.144       17.995      943.610      736.820      323.823        0.289        0.100       59.452       20.259        0.116      342.423       17.821      862.287
05/14/2013  08:53:00      -34.756      -34.552       17.572       19.658       36.262       20.742      386.438     1314.950      430.240        0.242        0.107       49.008       17.624        0.129      342.586       18.099      862.276
05/14/2013  08:54:00      -13.815      -45.860       14.012       17.820       31.495       16.703      317.548      991.919      278.989        0.204        0.079       47.896        8.540        0.032      342.554       18.045      862.262
05/14/2013  08:55:00        8.234       28.259       23.082       30.459       22.194       18.219      927.724      492.571      331.935        0.158        0.088       29.434       13.326        0.205      343.224       19.185      862.243
05/14/2013  08:56:00        1.658       40.005        9.269       17.212       35.978       22.015      296.259     1294.390      484.669        0.188        0.104       40.039       23.298        0.339      343.262       19.251      862.232
05/14/2013  08:57:00       36.915       71.162       -2.422       34.387       25.655       22.802     1182.452      658.182      519.915        0.440        0.118       80.167       17.154        0.046      342.894       18.625      862.213
05/14/2013  08:58:00        3.546       28.401       10.993       31.985       23.615       26.644     1023.015      557.676      709.891        0.161        0.115       28.621       15.165        0.281      343.045       18.880      862.206
05/14/2013  08:59:00       -3.493       14.657        5.645       12.777       22.796       17.632      163.242      519.665      310.902        0.063        0.050       15.068       11.033        0.536      343.353       19.405      862.192
05/14/2013  09:00:00        2.603       45.551       28.872       29.286       29.872       22.914      857.669      892.308      525.045        0.259        0.114       45.626       10.267        0.051      343.309       19.331      862.179
05/14/2013  09:01:00       11.814       38.906        2.690       22.159       20.719       28.239      491.024      429.283      797.427        0.169        0.086       40.660       16.813        0.171      343.134       19.031      862.179
05/14/2013  09:02:00       38.604       40.957       16.876       43.292       22.050       25.485     1874.232      486.216      649.472        0.323        0.150       56.283       10.637        0.036      343.258       19.244      862.170
05/14/2013  09:03:00       19.389       25.800       19.884       40.528       26.381       25.434     1642.517      695.967      646.883        0.221        0.149       32.274       22.783        0.498      343.781       20.136      862.163
05/14/2013  09:04:00       25.792       41.810       11.705       40.502       37.710       29.036     1640.410     1422.058      843.068        0.323        0.195       49.126       24.209        0.243      343.534       19.714      862.161
05/14/2013  09:05:00       48.003       66.932        2.115       45.434       24.660       29.160     2064.275      608.128      850.294        0.516        0.176       82.366       19.569        0.056      343.181       19.112      862.144
05/14/2013  09:06:00       73.696       73.842       -5.877       45.150       44.494       27.871     2038.494     1979.748      776.767        0.786        0.240      104.325       19.079        0.033      343.418       19.516      862.126
05/14/2013  09:07:00       71.675       91.502       -4.562       47.901       54.037       36.889     2294.540     2919.955     1360.783        1.005        0.329      116.232       26.513        0.052      343.265       19.255      862.120
05/14/2013  09:08:00       95.067       88.362       37.710       56.556       34.729       35.588     3198.532     1206.103     1266.512        1.197        0.284      129.790       29.511        0.052      343.250       19.228      862.117
05/14/2013  09:09:00       78.206       87.521       39.990       26.139       28.144       34.430      683.241      792.113     1185.395        0.902        0.133      117.372       20.483        0.030      342.931       18.686      862.121
05/14/2013  09:10:00       41.182       42.248       -2.611       19.220       19.973       17.844      369.397      398.902      318.394        0.229        0.054       58.999        6.938        0.014      343.040       18.871      862.125
05/14/2013  09:11:00        8.464       44.713        2.782       25.732       25.758       33.067      662.151      663.464     1093.440        0.225        0.121       45.507       20.655        0.206      343.518       19.687      862.115
05/14/2013  09:12:00       -8.568       57.476        2.687       37.099       22.784       31.629     1376.325      519.095     1000.407        0.314        0.145       58.111       18.288        0.099      343.370       19.434      862.115
05/14/2013  09:13:00      -10.785        7.912       27.140       24.081       24.764       15.222      579.881      613.265      231.713        0.117        0.071       13.376       18.576        1.929      344.219       20.884      862.109
05/14/2013  09:14:00      -16.816        6.341       15.838       28.944       12.599       15.077      837.757      158.734      227.302        0.090        0.061       17.972       16.196        0.812      343.870       20.287      862.099
05/14/2013  09:15:00      -35.777       12.425       13.673       32.080       23.891       20.010     1029.115      570.769      400.393        0.181        0.100       37.873       12.192        0.104      343.508       19.671      862.087
05/14/2013  09:16:00       21.669       24.775        3.885       29.491       23.646       20.587      869.747      559.130      423.839        0.148        0.093       32.914       17.235        0.274      343.669       19.944      862.085
05/14/2013  09:17:00       52.431       32.491       15.372       41.208       41.910       29.023     1698.139     1756.429      842.332        0.417        0.215       61.682       27.691        0.202      344.059       20.609      862.076
05/14/2013  09:18:00      106.821       56.452       18.881       53.254       31.979       34.835     2835.946     1022.673     1213.466        1.001        0.254      120.820       25.547        0.045      343.701       19.998      862.058
05/14/2013  09:19:00       28.509       40.516       31.446       40.100       31.713       54.238     1608.030     1005.706     2941.709        0.450        0.278       49.540       32.735        0.437      343.459       19.587      862.044
05/14/2013  09:20:00       27.654       68.459       77.629       41.144       46.141       29.677     1692.869     2128.966      880.733        0.809        0.235       73.834       22.373        0.092      343.563       19.763      862.018
05/14/2013  09:21:00       52.717       55.981       62.345       69.523       45.495       30.473     4833.389     2069.819      928.585        0.881        0.392       76.896       15.182        0.039      343.768       20.115      861.999
05/14/2013  09:22:00      107.328       94.538       33.101       47.903       21.109       34.185     2294.678      445.596     1168.648        1.273        0.195      143.026       22.267        0.024      343.219       19.176      861.982
05/14/2013  09:23:00       32.975       51.103       41.202       30.328       27.951       30.465      919.812      781.265      928.133        0.401        0.131       60.818       13.796        0.051      343.680       19.962      861.974
05/14/2013  09:24:00       53.590       40.078        6.723       23.470       27.768       23.306      550.853      771.073      543.157        0.319        0.093       66.919       19.708        0.087      343.567       19.771      861.961
05/14/2013  09:25:00       47.064       21.470       34.711       25.881       24.885       22.650      669.823      619.241      513.029        0.284        0.090       51.730        9.152        0.031      343.624       19.866      861.942
05/14/2013  09:26:00       46.614       50.377       19.212       29.846       28.000       30.334      890.780      784.017      920.177        0.384        0.130       68.634       20.332        0.088      343.699       19.994      861.929
05/14/2013  09:27:00       28.245       26.419       26.503       23.772       24.926       23.447      565.089      621.319      549.755        0.197        0.087       38.675       14.253        0.136      344.010       20.527      861.910
05/14/2013  09:28:00      -10.539       44.341        2.005       20.516       23.113       28.668      420.897      534.199      821.880        0.193        0.089       45.576       14.943        0.107      343.893       20.326      861.886
05/14/2013  09:29:00       16.534       25.249       33.078       27.788       26.027       20.390      772.149      677.390      415.755        0.193        0.093       30.181       14.857        0.242      344.249       20.935      861.875
05/14/2013  09:30:00       68.388       50.664        9.123       57.924       46.337       31.905     3355.219     2147.076     1017.903        0.692        0.326       85.111       24.627        0.084      343.953       20.429      861.869
05/14/2013  09:31:00       53.325        5.391       17.153       29.539       37.726       29.333      872.560     1423.231      860.396        0.316        0.158       53.597       20.572        0.147      343.768       20.112      861.858
05/14/2013  09:32:00       21.010       12.781       24.374       32.059       21.342       25.990     1027.783      455.487      675.486        0.168        0.108       24.593       10.640        0.187      344.230       20.902      861.851
05/14/2013  09:33:00       64.835       29.782       15.013       55.231       51.932       37.491     3050.450     2696.899     1405.554        0.623        0.358       71.348       31.350        0.193      344.067       20.623      861.845
05/14/2013  09:34:00      106.204       93.916       53.237       41.902       31.271       42.672     1755.800      977.895     1820.937        1.374        0.228      141.773       22.901        0.026      343.695       19.988      861.843
05/14/2013  09:35:00       62.399       62.014       -4.373       35.918       39.037       29.526     1290.099     1523.885      871.775        0.572        0.184       87.974       14.039        0.025      343.744       20.073      861.834
05/14/2013  09:36:00       95.877       60.926       18.367       58.436       43.540       30.293     3414.807     1895.749      917.680        0.973        0.311      113.597       23.350        0.042      344.221       20.886      861.823
05/14/2013  09:37:00       75.272       72.457        7.305       53.971       43.712       26.195     2912.879     1910.770      686.161        0.824        0.275      104.479       23.568        0.051      344.003       20.513      861.811
05/14/2013  09:38:00        8.373      -30.701        1.866       32.767       53.959       21.950     1073.654     2911.596      481.813        0.274        0.223       31.822       12.681        0.159      344.020       20.544      861.798
05/14/2013  09:39:00        4.290      -88.450        6.435       47.502       58.133       32.845     2256.411     3379.432     1078.786        0.730        0.336       88.554       25.401        0.082      343.932       20.393      861.786
05/14/2013  09:40:00       12.551      -21.264       37.261       37.857       78.073       44.049     1433.126     6095.412     1940.326        0.573        0.473       24.692       51.145        4.290      344.310       21.038      861.767
05/14/2013  09:41:00      113.692       67.247       58.318       68.551       70.486       34.519     4699.199     4968.275     1191.571        1.585        0.543      132.091       23.182        0.031      344.057       20.606      861.772
05/14/2013  09:42:00       47.798       13.669       11.037       69.370       47.525       38.581     4812.195     2258.614     1488.496        0.557        0.428       49.714       13.972        0.079      344.394       21.181      861.761
05/14/2013  09:43:00       52.578       84.115       49.773       61.264       50.984       39.439     3753.322     2599.359     1555.442        1.011        0.395       99.196       33.852        0.116      344.581       21.503      861.753
05/14/2013  09:44:00      110.154       66.543        2.854       32.029       46.903       34.355     1025.857     2199.924     1180.263        1.049        0.220      128.693       20.261        0.025      343.946       20.416      861.750
05/14/2013  09:45:00       85.625       61.465       24.822       28.100       23.746       34.164      789.602      563.859     1167.153        0.712        0.126      105.402       21.743        0.043      343.936       20.397      861.739
05/14/2013  09:46:00       -7.722       -3.785       22.647       23.089       28.729       25.508      533.092      825.330      650.667        0.130        0.100        8.600        6.146        0.511      344.583       21.506      861.727
05/14/2013  09:47:00       11.495       38.384       48.094       31.404       40.266       20.828      986.239     1621.383      433.823        0.348        0.152       40.069       18.494        0.213      344.745       21.781      861.705
05/14/2013  09:48:00        9.456      -15.717       25.715       25.463       53.986       36.204      648.365     2914.452     1310.710        0.293        0.244       18.342       39.411        4.617      344.305       21.030      861.704
05/14/2013  09:49:00       76.735       42.054       26.942       44.183       37.912       37.110     1952.141     1437.352     1377.156        0.657        0.238       87.503       33.441        0.146      344.590       21.517      861.686
05/14/2013  09:50:00       95.852       77.004        8.165       21.410       27.454       27.395      458.377      753.732      750.477        0.857        0.098      122.952        8.404        0.005      343.996       20.502      861.676
05/14/2013  09:51:00       51.577       46.002        5.137       38.286       33.156       23.845     1465.847     1099.336      568.603        0.397        0.157       69.111       17.831        0.067      344.320       21.056      861.658
05/14/2013  09:52:00       17.523       21.710       18.958       40.244       45.849       31.823     1619.555     2102.110     1012.724        0.294        0.237       27.900       26.496        0.902      345.007       22.231      861.639
05/14/2013  09:53:00       91.045       62.828       51.636       71.684       43.254       42.426     5138.640     1870.866     1799.998        1.185        0.440      110.619       29.928        0.073      345.018       22.249      861.632
05/14/2013  09:54:00      153.411       90.316       22.946       69.100       50.663       46.923     4774.797     2566.773     2201.776        2.088        0.477      178.022       21.231        0.014      344.403       21.195      861.608
05/14/2013  09:55:00       58.100       57.698       21.825       41.420       29.777       29.095     1715.604      886.691      846.523        0.531        0.172       81.882       19.486        0.057      344.630       21.586      861.608
05/14/2013  09:56:00       66.988       53.142       -1.448       40.234       30.439       39.002     1618.771      926.514     1521.178        0.569        0.203       85.507       19.304        0.051      344.447       21.271      861.580
05/14/2013  09:57:00       56.519       23.142       25.401       56.650       62.142       36.096     3209.170     3861.590     1302.938        0.637        0.419       61.073       24.712        0.164      344.754       21.798      861.567
05/14/2013  09:58:00       -5.684       32.420       66.289       27.513       43.052       32.529      756.961     1853.456     1058.134        0.457        0.183       32.914       22.774        0.479      345.554       23.168      861.545
05/14/2013  09:59:00       39.580       51.671       58.534       35.123       42.078       33.490     1233.660     1770.593     1121.564        0.589        0.206       65.088       11.250        0.030      345.227       22.608      861.541
05/14/2013  10:00:00       10.598       26.464       26.828       35.092       51.731       30.855     1231.480     2676.095      952.013        0.320        0.243       28.507       18.266        0.411      345.298       22.730      861.530
05/14/2013  10:01:00       33.789       54.305       -2.880       45.443       44.518       29.512     2065.068     1981.851      870.978        0.451        0.246       63.958       26.009        0.165      345.083       22.362      861.520
05/14/2013  10:02:00       27.416      104.811        5.555       41.921       63.324       44.187     1757.374     4009.985     1952.518        0.974        0.386      108.338       38.481        0.126      345.164       22.499      861.502
05/14/2013  10:03:00       65.847       61.379       21.570       48.179       52.542       41.902     2321.244     2760.633     1755.761        0.770        0.342       90.018       36.866        0.168      344.875       22.003      861.488
05/14/2013  10:04:00       68.399       47.990       11.665       36.899       34.232       28.236     1361.547     1171.832      797.247        0.522        0.167       83.555       17.973        0.046      345.058       22.318      861.474
05/14/2013  10:05:00       52.889       48.357        4.690       35.258       32.524       28.148     1243.136     1057.778      792.295        0.412        0.155       71.663       23.758        0.110      345.179       22.526      861.466
05/14/2013  10:06:00        3.953      105.844       -6.351       24.854       77.113       31.354      617.733     5946.377      983.093        0.940        0.377      105.918       38.803        0.134      344.729       21.755      861.452
05/14/2013  10:07:00      -21.764      126.108       -4.780       37.300       57.179       32.727     1391.290     3269.437     1071.076        1.106        0.287      127.973       33.403        0.068      344.880       22.013      861.439
05/14/2013  10:08:00      -85.683       96.188       -5.206       35.724       57.087       29.112     1276.176     3258.941      847.520        1.100        0.269      128.816       22.765        0.031      344.647       21.613      861.418
05/14/2013  10:09:00      -48.505       43.349       10.206       48.728       42.269       26.759     2374.427     1786.652      716.036        0.461        0.244       65.053       15.148        0.054      344.791       21.863      861.420
05/14/2013  10:10:00       10.886       96.337        7.382       28.445       53.973       35.323      809.117     2913.090     1247.698        0.721        0.248       96.950       32.960        0.116      345.319       22.764      861.420
05/14/2013  10:11:00       -8.440       93.291        7.273       27.880       49.435       31.229      777.305     2443.834      975.248        0.651        0.210       93.672       32.324        0.119      345.358       22.831      861.416
05/14/2013  10:12:00       14.362      184.783      -15.926       37.506       49.360       36.713     1406.724     2436.434     1347.839        1.990        0.260      185.340       31.545        0.029      344.851       21.962      861.421
05/14/2013  10:13:00        5.478      194.917      -25.423       23.808       37.148       26.196      566.830     1380.007      686.233        2.065        0.132      194.994       20.497        0.011      344.690       21.689      861.404
05/14/2013  10:14:00      -53.624      132.373      -18.221       34.978       51.268       26.082     1223.440     2628.450      680.260        1.263        0.227      142.822       19.459        0.019      344.805       21.886      861.396
05/14/2013  10:15:00      -51.386       35.598       13.644       56.445       39.007       35.643     3186.034     1521.571     1270.430        0.503        0.299       62.512       39.288        0.395      345.256       22.659      861.371
05/14/2013  10:16:00      -11.408       57.504       11.077       30.842       53.048       33.150      951.225     2814.115     1098.898        0.421        0.243       58.624       26.244        0.200      345.772       23.543      861.380
05/14/2013  10:17:00       56.965       46.142       25.678       62.469       35.827       37.339     3902.438     1283.546     1394.184        0.631        0.329       73.308       30.141        0.169      345.494       23.064      861.365
05/14/2013  10:18:00       91.550       92.845       -3.918       53.336       38.538       48.358     2844.733     1485.202     2338.542        1.184        0.333      130.390       24.610        0.036      345.257       22.658      861.358
05/14/2013  10:19:00       31.327      126.768      -10.182       54.904       68.130       39.251     3014.421     4641.748     1540.612        1.317        0.460      130.582       44.361        0.115      345.246       22.640      861.356
05/14/2013  10:20:00       18.028       16.817       29.994       33.361       32.294       34.601     1112.984     1042.883     1197.257        0.243        0.168       24.654       19.661        0.636      345.683       23.390      861.357
05/14/2013  10:21:00        8.100       67.041       -2.021       55.527       50.406       24.946     3083.250     2540.761      622.290        0.540        0.312       67.529       18.591        0.076      345.285       22.708      861.349
05/14/2013  10:22:00       32.418     -105.393       -9.071       65.735       50.395       38.102     4321.125     2539.615     1451.761        1.028        0.416      110.266       12.918        0.014      345.196       22.555      861.343
05/14/2013  10:23:00       22.305       14.885       41.787       40.767       47.121       34.229     1661.989     2220.356     1171.654        0.376        0.253       26.816       37.936        2.001      345.971       23.883      861.339
05/14/2013  10:24:00      103.452       65.170       27.343      107.585       57.888       51.688    11574.449     3350.998     2671.694        1.664        0.880      122.268       59.126        0.234      345.760       23.520      861.331
05/14/2013  10:25:00       82.652       92.325        4.552       51.928       54.794       44.667     2696.488     3002.429     1995.131        1.153        0.385      123.916       30.308        0.060      345.259       22.662      861.325
05/14/2013  10:26:00       46.024      146.360      -13.158       62.809       46.080       37.587     3944.916     2123.373     1412.779        1.560        0.374      153.426       23.771        0.024      345.201       22.563      861.315
05/14/2013  10:27:00       62.334       26.955       44.702       77.041       80.792       50.443     5935.249     6527.400     2544.474        1.081        0.750       67.913       29.796        0.192      345.429       22.954      861.312
05/14/2013  10:28:00       98.999       73.202       11.377       71.934       51.589       40.812     5174.491     2661.431     1665.617        1.239        0.475      123.123       27.795        0.051      345.208       22.574      861.303
05/14/2013  10:29:00      -28.305       35.197        5.518       38.657       28.855       36.836     1494.389      832.632     1356.922        0.288        0.184       45.166       30.627        0.460      345.499       23.075      861.292
05/14/2013  10:30:00       22.954       23.824       41.890       44.317       28.444       30.156     1964.023      809.063      909.357        0.327        0.184       33.083       26.186        0.627      345.941       23.832      861.278
05/14/2013  10:31:00       91.421       61.216       51.794       51.295       47.647       53.292     2631.154     2270.258     2840.075        1.126        0.387      110.024       40.228        0.134      344.957       22.145      861.280
05/14/2013  10:32:00      -44.055      -29.852       -8.839       49.028       20.900       20.110     2403.713      436.806      404.431        0.308        0.162       53.216       24.436        0.211      344.788       21.856      861.271
05/14/2013  10:33:00      -89.132      -35.667      -15.569       26.460       16.225       15.779      700.141      263.263      248.968        0.534        0.061       96.003       15.366        0.026      344.718       21.734      861.245
05/14/2013  10:34:00     -169.925       -6.762      -15.892       63.422       39.187       23.815     4022.295     1535.604      567.135        1.765        0.306      170.059       28.449        0.028      344.753       21.794      861.231
05/14/2013  10:35:00       38.290       43.615       20.152       56.827       29.891       34.471     3229.324      893.479     1188.226        0.454        0.266       58.038       18.327        0.100      345.677       23.378      861.236
05/14/2013  10:36:00       31.339       87.618       11.776       35.828       41.806       35.436     1283.651     1747.757     1255.689        0.654        0.214       93.054       26.855        0.083      345.576       23.206      861.245
05/14/2013  10:37:00        5.770       16.504        8.467       23.672       33.093       27.390      560.348     1095.136      750.216        0.139        0.120       17.484       12.714        0.529      345.751       23.505      861.237
05/14/2013  10:38:00       28.511       -2.433       57.431       50.928       81.626       38.619     2593.646     6662.850     1491.421        0.743        0.537       28.615       49.754        3.023      345.940       23.830      861.235
05/14/2013  10:39:00       68.983      -72.983       11.928       62.195       88.074       48.137     3868.246     7757.067     2317.197        1.208        0.697      100.425       61.806        0.379      345.820       23.626      861.219
05/14/2013  10:40:00      -23.529      -22.154       39.685       36.218       47.616       30.428     1311.730     2267.300      925.889        0.356        0.225       32.318       28.868        0.798      345.914       23.786      861.232
05/14/2013  10:41:00      101.854       32.961       60.095      101.392       94.818       55.304    10280.324     8990.393     3058.480        1.870        1.116      107.054       50.074        0.219      345.501       23.076      861.236
05/14/2013  10:42:00      118.826       74.850       50.117       78.366       55.633       60.293     6141.202     3095.078     3635.228        1.755        0.644      140.436       53.643        0.146      345.419       22.934      861.244
05/14/2013  10:43:00      169.809      120.320        9.112       42.068       42.279       39.291     1769.755     1787.512     1543.788        2.425        0.255      208.116       17.133        0.007      345.311       22.747      861.249
05/14/2013  10:44:00       29.038       49.971       -4.247       96.040       56.183       35.121     9223.772     3156.503     1233.468        0.848        0.681       57.795       26.894        0.217      345.124       22.431      861.257
05/14/2013  10:45:00     -120.050        9.546       -4.588       52.503       53.903       37.340     2756.549     2905.572     1394.305        1.079        0.353      120.429       29.355        0.059      345.160       22.492      861.246
05/14/2013  10:46:00      -39.879       24.156       -9.640       32.605       39.427       22.523     1063.086     1554.489      507.279        0.270        0.156       46.624       20.550        0.194      345.245       22.638      861.240
05/14/2013  10:47:00      -25.605       -7.183        5.061       42.452       23.508       18.852     1802.189      552.620      355.380        0.172        0.136       26.594       13.726        0.266      345.427       22.950      861.219
05/14/2013  10:48:00      -84.687      -36.798       -6.231       38.524       25.810       20.492     1484.065      666.158      419.905        0.557        0.129       92.336       23.671        0.066      345.265       22.671      861.199
05/14/2013  10:49:00      -40.464      -17.086       13.901       43.886       33.663       24.991     1926.000     1133.183      624.536        0.290        0.184       43.923       27.065        0.380      346.123       24.145      861.183
05/14/2013  10:50:00       10.524       35.536       37.492       48.247       29.925       29.746     2327.732      895.479      884.815        0.344        0.205       37.062       24.927        0.452      346.643       25.040      861.168
05/14/2013  10:51:00      166.532       85.876        1.939       76.214       44.967       46.711     5808.529     2022.058     2181.947        2.256        0.501      187.371       30.171        0.026      345.565       23.184      861.161
05/14/2013  10:52:00      147.759       70.141       12.154       61.856       38.624       43.205     3826.187     1491.789     1866.668        1.704        0.359      163.562       17.473        0.011      345.305       22.739      861.149
05/14/2013  10:53:00       -7.696      127.510       -6.314       40.094       56.448       29.252     1607.500     3186.430      855.703        1.100        0.282      127.742       27.846        0.048      345.656       23.344      861.141
05/14/2013  10:54:00       -7.948       89.880        4.734       28.600       63.508       31.616      817.987     4033.296      999.564        0.701        0.293       90.230       36.399        0.163      345.985       23.908      861.131
05/14/2013  10:55:00       14.536       57.099        0.038       34.366       46.501       26.719     1180.998     2162.372      713.903        0.376        0.203       58.921       29.306        0.247      345.873       23.715      861.121
05/14/2013  10:56:00      124.560      166.779       -1.348      137.654       82.419       51.983    18948.580     6792.941     2702.234        3.588        1.422      208.159       59.473        0.082      345.572       23.195      861.109
05/14/2013  10:57:00      212.385      123.184       88.729       77.305       65.664       67.072     5976.092     4311.746     4498.628        4.147        0.739      245.523       41.804        0.029      345.604       23.249      861.088
05/14/2013  10:58:00      190.990       92.602       26.804       83.311       62.166       51.318     6940.775     3864.556     2633.570        2.960        0.672      212.255       12.558        0.004      345.613       23.267      861.084
05/14/2013  10:59:00      157.671      137.281       97.717      104.381       83.512      101.524    10895.435     6974.230    10307.151        4.071        1.409      209.060       66.031        0.100      345.840       23.655      861.068
05/14/2013  11:00:00       78.112      108.259       84.367       63.832       63.095       47.340     4074.535     3980.924     2241.106        1.762        0.515      133.497       43.309        0.105      345.443       22.975      861.088
05/14/2013  11:01:00       72.392       83.341       61.598       84.992       59.392       54.238     7223.599     3527.415     2941.794        1.483        0.685      110.391       49.150        0.198      345.801       23.591      861.074
05/14/2013  11:02:00      151.780      117.940       14.648       81.767       58.775       60.415     6685.833     3454.552     3649.993        2.547        0.690      192.216       25.371        0.017      345.460       23.003      861.079
05/14/2013  11:03:00      161.760       92.398       22.083       68.974       54.257       51.050     4757.452     2943.865     2606.090        2.275        0.515      186.289       39.457        0.045      345.704       23.423      861.068
05/14/2013  11:04:00      196.938      102.933       18.358      102.766       81.294       63.210    10560.779     6608.742     3995.480        3.544        1.058      222.215       46.170        0.043      345.579       23.208      861.047
05/14/2013  11:05:00      193.475      132.632      115.791      126.466      105.295       97.751    15993.691    11086.981     9555.163        5.253        1.832      234.571      102.269        0.190      345.627       23.287      861.021
05/14/2013  11:06:00       88.894      120.729      111.746      110.302       69.571       58.149    12166.472     4840.107     3381.265        2.767        1.019      149.925       50.995        0.116      345.530       23.123      861.047
05/14/2013  11:07:00        3.949       41.955       56.893       34.596       48.024       24.283     1196.873     2306.316      589.659        0.455        0.205       42.141       22.090        0.275      346.047       24.014      861.080
05/14/2013  11:08:00       -4.517      -30.108       11.747       42.541       53.874       40.107     1809.750     2902.454     1608.600        0.369        0.316       30.445       44.660        2.152      346.113       24.127      861.067
05/14/2013  11:09:00       16.575       34.499       38.255       26.891       25.519       29.571      723.132      651.222      874.450        0.259        0.112       38.274       16.781        0.192      346.387       24.598      861.070
05/14/2013  11:10:00       -6.936       87.038       -3.222       31.520       47.078       25.399      993.481     2216.299      645.099        0.574        0.193       87.314       25.669        0.086      346.168       24.222      861.068
05/14/2013  11:11:00        9.215      104.465       -2.843       30.695       49.036       30.448      942.153     2404.511      927.068        0.764        0.214      104.870       28.219        0.072      346.095       24.097      861.062
05/14/2013  11:12:00       43.389       44.672        8.599       30.793       35.508       27.860      948.238     1260.831      776.198        0.347        0.149       62.275       24.509        0.155      346.066       24.047      861.066
05/14/2013  11:13:00      -27.866       61.236       14.783       31.249       31.406       32.085      976.527      986.307     1029.470        0.387        0.150       67.278       22.236        0.109      346.560       24.897      861.064
05/14/2013  11:14:00      -37.172       76.476        3.483       53.199       63.482       36.204     2830.164     4029.994     1310.726        0.771        0.409       85.031       43.948        0.267      346.241       24.348      861.064
05/14/2013  11:15:00      -90.664       91.157      -32.292       23.465       50.547       20.099      550.586     2554.995      403.989        1.054        0.175      128.567        9.371        0.005      345.383       22.873      861.072
05/14/2013  11:16:00      -93.466       48.344      -19.780       28.293       33.454       24.982      800.497     1119.155      624.112        0.700        0.127      105.229       14.533        0.019      345.471       23.023      861.059
05/14/2013  11:17:00      -35.768       32.285       18.250       43.911       53.211       35.047     1928.167     2831.374     1228.259        0.432        0.299       48.184       37.159        0.595      346.441       24.692      861.039
05/14/2013  11:18:00      -30.728       10.121        8.578       48.625       28.970       22.640     2364.378      839.268      512.581        0.242        0.186       32.352       25.956        0.644      346.081       24.073      861.037
05/14/2013  11:19:00      -53.604      111.459       -6.152       51.774       50.486       33.913     2680.512     2548.840     1150.120        1.086        0.319      123.679       32.349        0.068      345.979       23.898      861.015
05/14/2013  11:20:00      -18.115       44.946       28.957       32.660       49.090       37.120     1066.691     2409.792     1377.860        0.402        0.243       48.459       30.080        0.385      346.509       24.807      861.008
05/14/2013  11:21:00      -25.807       16.667        2.161       38.788       39.165       31.926     1504.536     1533.894     1019.242        0.250        0.203       30.721       21.607        0.495      346.537       24.857      861.001
05/14/2013  11:22:00      -78.159       49.545      -14.222       34.305       44.082       24.587     1176.860     1943.221      604.533        0.624        0.186       92.539       14.445        0.024      345.843       23.664      860.981
05/14/2013  11:23:00       -3.823       81.673        2.192       84.978       70.587       45.606     7221.344     4982.468     2079.895        1.048        0.714       81.762       42.203        0.266      346.273       24.402      860.994
05/14/2013  11:24:00       89.111       84.016        6.027       85.840       69.611       47.646     7368.464     4845.659     2270.185        1.476        0.724      122.473       36.249        0.088      346.158       24.203      860.978
05/14/2013  11:25:00       15.733       95.058        5.131       69.253       72.365       41.814     4795.989     5236.683     1748.440        1.054        0.589       96.351       34.218        0.126      346.334       24.507      860.966
05/14/2013  11:26:00       82.084        3.617       39.047       77.211       43.661       47.109     5961.490     1906.271     2219.248        0.918        0.504       82.163       35.495        0.187      346.345       24.526      860.941
05/14/2013  11:27:00       90.369       53.323       34.380       83.225       64.594       46.223     6926.318     4172.340     2136.565        1.271        0.662      104.928       46.684        0.198      346.206       24.287      860.926
05/14/2013  11:28:00      186.720       93.579        6.662       77.805       64.906       52.230     6053.647     4212.743     2727.926        2.833        0.650      208.857       44.896        0.046      346.030       23.981      860.909
05/14/2013  11:29:00      112.724       80.327       14.634       62.284       54.947       43.588     3879.347     3019.141     1899.938        1.408        0.440      138.417       27.050        0.038      346.149       24.189      860.904
05/14/2013  11:30:00      184.652      123.094        8.109       85.409       66.990       49.046     7294.630     4487.709     2405.488        3.175        0.709      221.920       38.633        0.030      345.921       23.793      860.889
05/14/2013  11:31:00      106.978       47.737        5.298       82.412       50.693       35.036     6791.750     2569.815     1227.515        1.217        0.529      117.145       28.031        0.057      345.801       23.591      860.911
05/14/2013  11:32:00       -1.600       13.032       -9.776       40.133       45.240       24.091     1610.696     2046.667      580.364        0.225        0.212       13.130       17.358        1.748      345.737       23.482      860.919
05/14/2013  11:33:00      -59.445       30.847       -2.897       41.952       38.973       33.092     1759.973     1518.858     1095.051        0.443        0.219       66.972       29.326        0.192      346.048       24.016      860.901
05/14/2013  11:34:00      -49.694      221.540      -20.700       63.518       76.553       38.137     4034.505     5860.420     1454.455        3.166        0.567      227.045       38.984        0.029      345.914       23.781      860.893
05/14/2013  11:35:00       16.367      216.264      -24.209       53.101       86.386       41.202     2819.665     7462.469     1697.605        2.980        0.599      216.882       37.364        0.030      346.155       24.196      860.866
05/14/2013  11:36:00       33.876      116.134       -5.080       52.515       84.115       46.373     2757.789     7075.408     2150.473        1.332        0.599      120.974       42.260        0.122      346.488       24.771      860.860
05/14/2013  11:37:00       21.967      170.246      -12.616       47.203       81.283       42.511     2228.081     6606.889     1807.188        2.013        0.532      171.657       42.984        0.063      346.271       24.397      860.836
05/14/2013  11:38:00       42.613      145.345       -9.721       56.409       79.697       44.141     3181.935     6351.691     1948.444        1.726        0.574      151.463       43.963        0.084      346.210       24.293      860.826
05/14/2013  11:39:00       26.660       94.625       -5.171       48.186       78.797       42.365     2321.923     6209.014     1794.765        1.001        0.516       98.309       46.514        0.224      346.229       24.326      860.818
05/14/2013  11:40:00       -7.666       33.076       10.395       33.211       35.095       30.954     1102.953     1231.647      958.155        0.228        0.165       33.952       18.976        0.312      346.612       24.986      860.787
05/14/2013  11:41:00        9.084      137.443       -8.645       37.197       68.744       44.036     1383.602     4725.720     1939.167        1.355        0.402      137.743       42.077        0.093      346.195       24.268      860.778
05/14/2013  11:42:00       -9.150       61.453        0.427       26.399       55.011       31.028      696.908     3026.217      962.763        0.427        0.234       62.131       33.068        0.283      346.540       24.863      860.764
05/14/2013  11:43:00      -42.963       78.548        3.204       46.586       40.930       40.555     2170.286     1675.257     1644.733        0.676        0.275       89.530       37.980        0.180      346.599       24.961      860.760
05/14/2013  11:44:00      -15.296       56.004        3.186       40.078       50.439       30.180     1606.235     2544.110      910.843        0.422        0.253       58.055       26.380        0.206      346.477       24.753      860.731
05/14/2013  11:45:00       31.959      -95.291      -12.425       87.212       79.277       39.581     7605.864     6284.770     1566.670        1.285        0.773      100.508       30.124        0.090      346.397       24.614      860.710
05/14/2013  11:46:00      -53.406      -72.495      -14.035       52.627       51.701       34.213     2769.611     2673.040     1170.548        0.746        0.331       90.043       25.325        0.079      346.744       25.212      860.708
05/14/2013  11:47:00       16.020      -20.773       45.679       45.611       85.298       54.203     2080.351     7275.824     2937.962        0.753        0.615       26.233       34.289        1.709      347.064       25.763      860.704
05/14/2013  11:48:00      -52.054       21.572       15.276       86.459       71.338       41.388     7475.140     5089.099     1713.000        0.884        0.714       56.347       47.736        0.718      346.529       24.842      860.702
05/14/2013  11:49:00     -102.238     -107.395       11.061       68.543       68.656       44.844     4698.193     4713.662     2011.008        1.676        0.571      148.278       33.649        0.051      346.095       24.094      860.685
05/14/2013  11:50:00     -127.404     -122.815       -4.457       47.489      106.904       34.782     2255.171    11428.558     1209.815        2.311        0.745      176.961       36.591        0.043      346.045       24.008      860.670
05/14/2013  11:51:00       34.794      -20.917        6.064       85.010       59.622       37.873     7226.737     3554.816     1434.360        0.695        0.611       40.598       27.891        0.472      346.383       24.592      860.672
05/14/2013  11:52:00       18.080       14.345       14.860       34.721       33.115       28.735     1205.565     1096.627      825.672        0.194        0.156       23.080       19.372        0.705      346.666       25.078      860.651
05/14/2013  11:53:00      -40.627       51.118       -0.465       29.058       49.678       30.232      844.388     2467.864      913.969        0.424        0.211       65.297       27.495        0.177      346.488       24.772      860.640
05/14/2013  11:54:00      -58.832       42.428        5.501       51.754       41.119       29.031     2678.474     1690.780      842.824        0.525        0.261       72.535       29.492        0.165      346.869       25.428      860.629
05/14/2013  11:55:00      -10.912      132.676       -7.266       29.638       69.203       35.815      878.386     4788.992     1282.738        1.236        0.348      133.124       42.212        0.101      346.464       24.731      860.611
05/14/2013  11:56:00      -47.152      154.228      -15.276       27.936       42.419       28.740      780.405     1799.376      825.990        1.482        0.170      161.275       21.771        0.018      346.119       24.138      860.598
05/14/2013  11:57:00      -17.586      150.926       -7.393       30.279       50.713       25.980      916.818     2571.791      674.964        1.365        0.208      151.947       27.444        0.033      346.324       24.492      860.582
05/14/2013  11:58:00       24.547       50.965       15.696       52.041       39.541       37.442     2708.230     1563.470     1401.925        0.456        0.284       56.568       30.133        0.284      346.920       25.516      860.579
05/14/2013  11:59:00       41.674       15.670       68.883       75.761      192.936       79.577     5739.789    37224.227     6332.495        2.800        2.465       44.523       98.055        4.850      346.441       24.689      860.542
05/14/2013  12:00:00      103.054     -202.914      -33.665      106.369      125.132       53.073    11314.365    15657.903     2816.726        4.135        1.489      227.583       42.708        0.035      346.208       24.288      860.538
05/14/2013  12:01:00       99.806     -163.382      -44.231       91.527      109.749       56.696     8377.255    12044.863     3214.444        3.112        1.182      191.455       58.655        0.094      346.414       24.642      860.528
05/14/2013  12:02:00       -3.751      -73.040       36.570       90.015      111.485       60.021     8102.659    12428.980     3602.499        1.541        1.207       73.136       49.263        0.454      346.552       24.880      860.526
05/14/2013  12:03:00       29.457      -41.247       52.588       47.048       82.790       51.652     2213.540     6854.152     2667.940        0.853        0.587       50.686       57.240        1.275      346.718       25.166      860.514
05/14/2013  12:04:00       72.643     -128.871        0.731       72.709       88.196       59.372     5286.658     7778.499     3524.980        1.924        0.830      147.935       54.639        0.136      346.496       24.783      860.496
05/14/2013  12:05:00      107.149     -106.984       -3.564       55.347       93.570       44.551     3063.321     8755.305     1984.809        1.837        0.690      151.415       53.329        0.124      346.375       24.576      860.501
05/14/2013  12:06:00       41.977       29.498       34.175       48.927       31.680       27.546     2393.805     1003.593      758.793        0.398        0.208       51.305       26.640        0.270      346.190       24.258      860.493
05/14/2013  12:07:00       23.483      -43.085       14.960       49.368       57.651       26.270     2437.206     3323.649      690.097        0.454        0.323       49.069       28.038        0.327      346.633       25.021      860.481
05/14/2013  12:08:00       -4.195       42.465       69.377       26.449       41.700       28.001      699.545     1738.862      784.034        0.493        0.161       42.672       19.845        0.216      347.291       26.154      860.468
05/14/2013  12:09:00       74.081       69.671       32.591       78.569       46.762       28.633     6173.063     2186.685      819.866        1.029        0.459      101.696       23.528        0.054      346.736       25.200      860.458
05/14/2013  12:10:00      104.853       61.728       14.885       39.547       34.741       33.690     1563.937     1206.932     1135.021        0.947        0.195      121.674       15.433        0.016      346.266       24.390      860.454
05/14/2013  12:11:00       63.610       52.169       22.516       47.470       46.887       41.905     2253.380     2198.402     1756.053        0.674        0.310       82.267       32.075        0.152      346.500       24.792      860.448
05/14/2013  12:12:00       28.715      -36.671       17.508       37.619       51.500       33.574     1415.157     2652.238     1127.188        0.383        0.260       46.576       32.532        0.488      346.700       25.137      860.428
05/14/2013  12:13:00       94.230       62.945       18.957       70.400       47.046       35.815     4956.215     2213.326     1282.730        1.083        0.423      113.320       39.598        0.122      346.516       24.820      860.410
05/14/2013  12:14:00       62.627       85.774      -25.976       61.862       42.167       42.092     3826.867     1778.018     1771.725        0.966        0.369      106.204       26.127        0.061      346.222       24.316      860.410
05/14/2013  12:15:00       53.911       27.874       10.673       41.581       66.273       44.067     1728.960     4392.119     1941.861        0.593        0.403       60.690       28.682        0.223      346.815       25.333      860.384
05/14/2013  12:16:00      177.879     -148.744       -6.002      119.494      158.031      106.197    14278.912    24973.689    11277.873        5.216        2.527      231.874      112.632        0.236      346.616       24.989      860.358
05/14/2013  12:17:00      152.929     -157.910       -6.859      112.211      113.580       72.389    12591.245    12900.447     5240.232        3.955        1.537      219.825       86.062        0.153      346.467       24.734      860.375
05/14/2013  12:18:00      103.038     -112.989      -42.333       75.205       78.626       51.719     5655.854     6182.005     2674.818        1.984        0.726      152.917       54.063        0.125      346.511       24.811      860.367
05/14/2013  12:19:00       31.470      -23.993       11.229       48.854       68.350       42.169     2386.673     4671.671     1778.249        0.526        0.442       39.573       45.168        1.303      346.583       24.936      860.367
05/14/2013  12:20:00       90.612       80.534       54.734       60.894       47.215       40.171     3708.051     2229.278     1613.699        1.262        0.378      121.228       29.662        0.060      346.387       24.598      860.344
05/14/2013  12:21:00       56.547       75.619       11.515       47.835       36.908       28.846     2288.205     1362.187      832.068        0.676        0.224       94.423       12.056        0.016      346.450       24.706      860.310
05/14/2013  12:22:00       40.752       17.966       21.970       43.833       30.370       24.653     1921.361      922.337      607.746        0.296        0.173       44.536       18.966        0.181      346.847       25.389      860.283
05/14/2013  12:23:00       42.476       38.604       21.704       63.243       40.317       42.334     3999.617     1625.476     1792.199        0.559        0.371       57.398       36.632        0.407      346.666       25.078      860.284
05/14/2013  12:24:00       92.613       98.220       62.879       71.425       58.786       59.245     5101.586     3455.848     3509.916        1.712        0.603      134.998       50.331        0.139      346.517       24.821      860.270
05/14/2013  12:25:00      108.348       44.190       41.037       75.958       49.328       46.863     5769.554     2433.215     2196.102        1.289        0.520      117.013       39.684        0.115      346.847       25.389      860.269
05/14/2013  12:26:00       11.041      -24.355       44.887       49.527       67.682       41.600     2452.897     4580.841     1730.576        0.575        0.438       26.741       39.151        2.143      347.513       26.537      860.268
05/14/2013  12:27:00       37.240      -96.274       12.000       52.102       80.463       54.390     2714.597     6474.343     2958.312        1.147        0.607      103.225       48.962        0.225      347.030       25.704      860.261
05/14/2013  12:28:00       70.531     -139.339      -33.233       62.164       77.561       45.129     3864.424     6015.711     2036.662        1.870        0.596      156.173       25.165        0.026      346.702       25.139      860.261
05/14/2013  12:29:00       54.784      -66.692        4.452       63.624      117.582       65.655     4048.042    13825.492     4310.563        1.482        1.109       86.308       84.265        0.953      346.718       25.167      860.267
05/14/2013  12:30:00       91.928      -40.464       45.864       95.081      159.356       92.844     9040.349    25394.444     8619.982        2.762        2.153      100.440      116.769        1.352      346.664       25.073      860.250
05/14/2013  12:31:00      110.340     -201.442      -29.203       61.959       62.302       37.798     3838.924     3881.483     1428.702        3.138        0.457      229.682       33.669        0.021      346.503       24.794      860.232
05/14/2013  12:32:00      149.519     -163.526      -36.572       76.956       79.288       42.123     5922.266     6286.663     1774.311        3.221        0.699      221.578       23.959        0.012      346.392       24.604      860.224
05/14/2013  12:33:00       20.267       40.374       47.505       37.519       54.200       47.659     1407.705     2937.627     2271.375        0.546        0.331       45.175       25.608        0.321      346.643       25.038      860.229
05/14/2013  12:34:00       19.235       17.493       40.958       41.996       48.566       34.753     1763.650     2358.643     1207.756        0.384        0.267       26.000       35.336        1.847      347.071       25.774      860.194
05/14/2013  12:35:00       99.977       48.681       29.403       77.525       80.501       41.977     6010.073     6480.358     1762.085        1.374        0.713      111.199        8.622        0.006      346.579       24.926      860.144
05/14/2013  12:36:00       34.636       26.933       72.757       64.780       65.873       46.264     4196.511     4339.235     2140.348        0.895        0.534       43.876       32.409        0.546      347.170       25.946      860.110
05/14/2013  12:37:00       24.165       56.524       93.320       61.168       94.488       66.724     3741.531     8927.936     4452.090        1.480        0.856       61.473       67.120        1.192      347.160       25.929      860.090
05/14/2013  12:38:00       81.977     -215.896      -14.032       98.679      112.639       66.997     9737.494    12687.536     4488.661        4.022        1.346      230.936       47.754        0.043      346.530       24.840      860.071
05/14/2013  12:39:00       87.171      -71.975       33.581       91.030      127.583       68.270     8286.501    16277.541     4660.850        2.156        1.461      113.045       88.998        0.620      346.517       24.819      860.079
05/14/2013  12:40:00        5.047       -1.149       54.052       41.929       51.705       37.204     1758.061     2673.393     1384.114        0.438        0.291        5.176       27.351       27.923      346.990       25.637      860.085
05/14/2013  12:41:00      -12.817      -47.686       24.185       33.177       51.759       37.379     1100.741     2678.950     1397.189        0.410        0.259       49.378       20.555        0.173      346.951       25.569      860.082
05/14/2013  12:42:00       29.121       42.969       32.549       73.578       61.781       65.077     5413.779     3816.908     4234.965        0.861        0.673       51.908       56.901        1.202      346.560       24.895      860.085
05/14/2013  12:43:00      -34.210       66.082      -16.128       31.840       47.027       23.582     1013.761     2211.531      556.129        0.479        0.189       74.412       11.274        0.023      346.383       24.590      860.074
05/14/2013  12:44:00     -163.520       58.855      -31.257       33.480       34.979       26.333     1120.908     1223.503      693.414        1.711        0.152      173.790       16.350        0.009      346.136       24.166      860.044
05/14/2013  12:45:00      -39.881       37.327        6.475       53.208       36.181       24.176     2831.137     1309.039      584.471        0.387        0.236       54.624       28.942        0.281      346.954       25.573      860.028
05/14/2013  12:46:00        5.905       18.420       37.605       29.975       33.820       23.149      898.501     1143.781      535.856        0.218        0.129       19.343       16.167        0.699      347.505       26.523      860.020
05/14/2013  12:47:00       50.102       53.439       55.250       80.940       60.240       42.754     6551.355     3628.869     1827.909        1.021        0.600       73.253       21.070        0.083      347.161       25.929      860.000
05/14/2013  12:48:00       77.978       67.877       23.435       74.988       60.161       54.003     5623.190     3619.329     2916.307        1.170        0.608      103.382       22.060        0.046      347.186       25.971      859.972
05/14/2013  12:49:00       57.664       59.102       47.944       52.458       45.569       52.611     2751.840     2076.515     2767.917        0.836        0.380       82.572       16.209        0.039      346.876       25.440      859.964
05/14/2013  12:50:00       -9.760       22.407       -8.069       39.486       30.490       28.309     1559.120      929.647      801.379        0.198        0.165       24.440       26.143        1.144      346.764       25.246      859.973
05/14/2013  12:51:00       -6.611       30.490       15.519       30.452       36.597       26.670      927.351     1339.336      711.263        0.210        0.149       31.199       24.352        0.609      347.407       26.354      859.966
05/14/2013  12:52:00      -15.715        6.786       37.205       16.844       15.500       18.607      283.713      240.248      346.225        0.127        0.044       17.118        9.398        0.301      347.791       27.016      859.954
05/14/2013  12:53:00      -64.292      -15.481        3.740       52.483       30.157       31.036     2754.512      909.464      963.252        0.451        0.231       66.129       35.752        0.292      346.914       25.504      859.931
05/14/2013  12:54:00       14.596      -56.231        1.254       24.290       27.390       19.297      590.027      750.217      372.385        0.254        0.086       58.095       10.470        0.032      346.790       25.293      859.904
05/14/2013  12:55:00       13.557       25.350       41.384       25.994       42.257       27.209      675.685     1785.667      740.339        0.287        0.160       28.748       22.117        0.592      347.276       26.130      859.896
05/14/2013  12:56:00       62.589      -43.630       30.819       55.388       53.915       42.366     3067.783     2906.815     1794.858        0.727        0.388       76.295       26.671        0.122      346.852       25.399      859.870
05/14/2013  12:57:00       91.285       -3.479       60.470       61.785       71.195       56.588     3817.434     5068.684     3202.190        1.204        0.604       91.352       54.045        0.350      346.953       25.575      859.856
05/14/2013  12:58:00       65.131       12.126       41.014       58.788       66.813       45.795     3456.035     4463.982     2097.209        0.804        0.501       66.250       45.563        0.473      346.652       25.053      859.867
05/14/2013  12:59:00       39.814      -74.999       -8.224       36.966       27.387       21.906     1366.450      750.064      479.855        0.494        0.130       84.912       14.626        0.030      346.423       24.661      859.876
05/14/2013  13:00:00       86.508        1.925       37.568       42.672       77.573       39.118     1820.876     6017.494     1530.201        0.913        0.468       86.530       45.577        0.277      346.767       25.252      859.863
05/14/2013  13:01:00       89.673       54.127       56.532       43.401       45.658       45.182     1883.688     2084.678     2041.427        1.009        0.300      104.742       18.205        0.030      346.681       25.104      859.821
05/14/2013  13:02:00        4.356       -0.924       13.969       39.695       41.223       28.027     1575.663     1699.331      785.514        0.214        0.203        4.453       15.826       12.629      347.447       26.423      859.807
05/14/2013  13:03:00      -36.180     -120.401       -5.449      125.496       85.295       39.673    15749.186     7275.169     1573.972        2.021        1.230      125.720       50.080        0.159      346.796       25.300      859.835
05/14/2013  13:04:00     -140.820     -147.207      -11.977       71.912       86.754       38.814     5171.356     7526.224     1506.529        2.792        0.710      203.716       24.405        0.014      346.860       25.410      859.828
05/14/2013  13:05:00     -236.312     -207.904      -15.945      100.306       61.122       54.921    10061.341     3735.839     3016.293        5.806        0.841      314.750       54.507        0.030      346.872       25.430      859.810
05/14/2013  13:06:00     -213.828     -177.864       -2.144       99.047       74.208       50.480     9810.375     5506.835     2548.262        4.761        0.893      278.133       55.035        0.039      346.621       24.996      859.818
05/14/2013  13:07:00     -171.071     -130.054      -30.674       79.985       60.193       35.179     6397.629     3623.257     1237.535        2.919        0.563      214.894       35.511        0.027      346.577       24.921      859.799
05/14/2013  13:08:00     -121.105      -11.060       -7.227       53.113       61.875       29.556     2820.946     3828.536      873.559        1.118        0.376      121.609       33.229        0.075      346.843       25.382      859.767
05/14/2013  13:09:00     -235.048      -82.839      -16.752      117.481       96.404       48.107    13801.758     9293.779     2314.329        4.390        1.270      249.219       59.699        0.057      346.640       25.031      859.755
05/14/2013  13:10:00      -93.527      -53.207      -11.956       94.395       80.210       43.178     8910.329     6433.610     1864.329        1.446        0.860      107.602       34.665        0.104      346.881       25.447      859.740
05/14/2013  13:11:00     -165.831      -49.518      -18.268       43.700       73.919       27.876     1909.731     5463.988      777.068        1.922        0.408      173.066       16.265        0.009      346.585       24.937      859.714
05/14/2013  13:12:00      -44.405       42.453       -2.859       73.946       78.880       41.596     5468.048     6221.979     1730.231        0.860        0.671       61.434       35.920        0.342      347.030       25.704      859.696
05/14/2013  13:13:00      -34.052      -20.692       15.731       72.529       63.371       41.943     5260.460     4015.929     1759.205        0.643        0.552       39.846       41.574        1.089      347.387       26.319      859.688
05/14/2013  13:14:00       98.555     -115.234      -10.468       94.921      122.512       70.295     9009.920    15009.281     4941.390        2.603        1.448      151.630       64.190        0.179      347.019       25.684      859.650
05/14/2013  13:15:00       -3.126     -113.318      -18.438      100.197      139.056       67.462    10039.431    19336.442     4551.054        2.355        1.696      113.361       73.094        0.416      347.217       26.024      859.601
05/14/2013  13:16:00      -11.431     -185.658       -6.971       82.439      126.323       63.000     6796.190    15957.563     3969.044        3.068        1.336      186.010       62.725        0.114      347.258       26.095      859.631
05/14/2013  13:17:00     -130.045     -191.761       -9.079      105.372      119.773       51.857    11103.356    14345.654     2689.196        4.095        1.407      231.698       50.763        0.048      347.219       26.026      859.635
05/14/2013  13:18:00      -96.892     -269.544        5.224       88.849       85.738       51.831     7894.135     7351.079     2686.438        5.000        0.897      286.430       42.981        0.023      346.784       25.277      859.650
05/14/2013  13:19:00     -142.064     -161.089       -8.586       88.733      122.478       54.098     7873.577    15000.979     2926.621        3.600        1.290      214.783       53.296        0.062      346.788       25.284      859.639
05/14/2013  13:20:00     -120.866     -112.497      -18.526      109.429       69.354       38.268    11974.798     4809.935     1464.407        2.293        0.912      165.119       35.799        0.047      346.594       24.951      859.657
05/14/2013  13:21:00      -28.129      -18.716       28.195       62.865       69.484       46.643     3951.983     4827.977     2175.566        0.644        0.548       33.786       36.657        1.177      347.182       25.966      859.648
05/14/2013  13:22:00     -157.026      -43.627        9.471      129.097       56.185       43.752    16665.942     3156.731     1914.200        2.419        1.087      162.974       35.069        0.046      347.055       25.745      859.633
05/14/2013  13:23:00     -158.230      -13.600      -23.410       56.604       56.378       29.278     3203.970     3178.437      857.201        1.650        0.362      158.813       19.560        0.015      346.608       24.978      859.600
05/14/2013  13:24:00      -25.163       -5.851       -7.644       23.087       35.965       21.960      533.026     1293.467      482.250        0.152        0.115       25.834       15.954        0.381      346.743       25.211      859.567
05/14/2013  13:25:00       21.022        4.221       12.947       19.987       18.360       19.594      399.469      337.076      383.941        0.087        0.056       21.442       12.571        0.344      347.032       25.708      859.544
05/14/2013  13:26:00       42.998      -26.174        3.069       25.524       46.002       20.729      651.455     2116.145      429.687        0.287        0.160       50.338       17.799        0.125      346.919       25.512      859.531
05/14/2013  13:27:00       60.794      -69.275      -18.405       48.564       35.575       34.038     2358.483     1265.555     1158.614        0.681        0.239       92.168       24.174        0.069      346.767       25.251      859.526
05/14/2013  13:28:00       22.449      -53.604       -1.773       42.159       36.207       39.002     1777.414     1310.953     1521.177        0.399        0.230       58.115       20.570        0.125      347.068       25.769      859.519
05/14/2013  13:29:00       41.683       -8.280       54.092       54.586       90.047       54.610     2979.590     8108.403     2982.222        0.940        0.704       42.498       53.556        1.588      347.420       26.376      859.508
05/14/2013  13:30:00       74.086      -17.528       81.911       97.033      157.341       94.237     9415.326    24756.310     8880.603        2.777        2.153       76.131      108.908        2.046      347.476       26.471      859.463
05/14/2013  13:31:00       81.437       34.592       98.428       96.613      110.072       71.189     9334.030    12115.787     5067.924        2.201        1.326       88.479       72.018        0.663      347.365       26.279      859.457
05/14/2013  13:32:00       83.927      -54.413       12.733       47.755       78.247       48.885     2280.577     6122.550     2389.727        1.048        0.540      100.023       34.364        0.118      347.153       25.917      859.439
05/14/2013  13:33:00       53.286      -87.266        1.771       63.701       84.957       38.636     4057.771     7217.693     1492.761        1.161        0.638      102.249       43.155        0.178      347.455       26.437      859.432
05/14/2013  13:34:00       59.200      -89.731       10.958       99.581       79.320       46.178     9916.457     6291.595     2132.384        1.501        0.917      107.500       36.329        0.114      347.416       26.369      859.417
05/14/2013  13:35:00       44.749      -99.258       27.900       72.752       91.045       59.629     5292.807     8289.266     3555.632        1.488        0.857      108.879       55.609        0.261      347.362       26.276      859.401
05/14/2013  13:36:00       -7.573      -55.156       22.555       79.694       99.639       50.965     6351.128     9927.840     2597.469        1.124        0.944       55.674       49.432        0.788      347.482       26.483      859.380
05/14/2013  13:37:00      -68.244     -159.615       -5.579      126.505       74.433       52.409    16003.520     5540.214     2746.698        2.722        1.215      173.592       25.856        0.022      347.094       25.813      859.373
05/14/2013  13:38:00      -77.930     -118.696       -5.953       97.478       77.656       46.354     9501.882     6030.412     2148.725        1.894        0.884      141.993       31.782        0.050      347.081       25.790      859.356
05/14/2013  13:39:00      -83.241      -94.813        7.003      108.664       74.020       54.153    11807.974     5479.025     2932.514        1.809        1.011      126.169       48.892        0.150      347.163       25.931      859.351
05/14/2013  13:40:00      -54.354     -109.554       -1.021       71.592       85.202       39.213     5125.353     7259.460     1537.624        1.444        0.696      122.297       35.879        0.086      347.190       25.979      859.341
05/14/2013  13:41:00      -82.953     -141.142        3.469      113.040       84.360       43.073    12778.019     7116.541     1855.295        2.428        1.087      163.714       38.473        0.055      347.012       25.672      859.338
05/14/2013  13:42:00       55.093      -49.380       12.807       57.230      109.365       49.356     3275.248    11960.628     2436.033        1.165        0.884       73.984       61.841        0.699      346.972       25.603      859.334
05/14/2013  13:43:00       91.419       -7.080       42.562       53.984       57.612       47.923     2914.232     3319.160     2296.604        0.937        0.426       91.692       39.319        0.184      347.055       25.748      859.307
05/14/2013  13:44:00       59.981       -9.245       -7.054       64.463       63.928       47.911     4155.432     4086.739     2295.490        0.713        0.527       60.689       40.804        0.452      347.053       25.743      859.294
05/14/2013  13:45:00       13.842       50.545       39.378       71.107       57.856       46.416     5056.198     3347.280     2154.443        0.743        0.528       52.406       12.806        0.060      347.525       26.558      859.262
05/14/2013  13:46:00       28.470      211.181      -16.736       52.857      109.061       43.513     2793.841    11894.209     1893.420        3.113        0.829      213.092       44.394        0.043      346.996       25.642      859.249
05/14/2013  13:47:00       15.196      153.063      -15.485       45.270       67.543       29.138     2049.400     4562.069      849.005        1.568        0.373      153.815       24.507        0.025      346.953       25.571      859.242
05/14/2013  13:48:00       27.182       31.479        5.536       40.664       53.335       42.689     1653.601     2844.628     1822.339        0.404        0.316       41.591       18.039        0.188      347.130       25.878      859.238
05/14/2013  13:49:00      148.712      110.421       34.455       67.284       44.878       54.115     4527.079     2014.041     2928.452        2.248        0.473      185.224       25.699        0.019      347.103       25.827      859.227
05/14/2013  13:50:00       71.079     -111.475        2.456       52.553       66.370       37.848     2761.803     4404.957     1432.486        1.304        0.430      132.208       35.165        0.071      347.382       26.309      859.214
05/14/2013  13:51:00       49.030      -52.210       22.238       96.061      112.433       46.429     9227.680    12641.146     2155.646        1.482        1.201       71.623       61.920        0.747      347.585       26.658      859.192
05/14/2013  13:52:00       97.796     -114.118       58.133       93.783      125.395       89.883     8795.212    15723.909     8079.023        2.928        1.630      150.289       90.448        0.362      347.759       26.959      859.201
05/14/2013  13:53:00      161.860     -161.769       -5.687      117.021      168.850       89.006    13693.975    28510.172     7922.037        5.125        2.506      228.840      109.136        0.227      347.145       25.900      859.200
05/14/2013  13:54:00       73.563      -99.176       20.780       66.981       90.318       74.331     4486.483     8157.319     5525.109        1.692        0.908      123.481       79.170        0.411      347.084       25.796      859.219
05/14/2013  13:55:00       22.813      -77.807       -4.083       32.732       66.531       45.695     1071.367     4426.343     2088.013        0.709        0.379       81.083       44.251        0.298      347.419       26.375      859.194
05/14/2013  13:56:00       35.301      -72.789        5.129       45.195       67.920       42.234     2042.545     4613.080     1783.673        0.750        0.422       80.898       43.512        0.289      347.462       26.449      859.174
05/14/2013  13:57:00       41.647     -149.529       24.235      102.348      146.707       95.168    10475.137    21522.987     9056.946        3.286        2.053      155.220      101.088        0.424      347.604       26.692      859.144
05/14/2013  13:58:00      101.456      -99.196       23.028       66.471      117.795       71.493     4418.358    13875.695     5111.318        2.203        1.170      141.891       82.254        0.336      347.221       26.031      859.183
05/14/2013  13:59:00       51.510       63.604       43.188       59.575       45.451       37.464     3549.214     2065.797     1403.586        0.779        0.351       81.846       33.115        0.164      347.356       26.265      859.160
05/14/2013  14:00:00       77.413       21.740        8.192       45.153       55.815       39.258     2038.788     3115.361     1541.195        0.661        0.335       80.408       30.357        0.143      347.149       25.910      859.119
05/14/2013  14:01:00       42.625      -59.985       17.850       75.152       97.023       55.220     5647.870     9413.542     3049.234        1.192        0.906       73.587       52.081        0.501      347.466       26.456      859.126
05/14/2013  14:02:00       40.618       -4.679       58.103       83.871       78.007       52.832     7034.400     6085.051     2791.210        1.048        0.796       40.887       41.487        1.030      347.922       27.243      859.121
05/14/2013  14:03:00       35.806      -21.006       51.665       96.439       97.206       58.405     9300.416     9448.983     3411.112        1.327        1.108       41.513       62.707        2.282      347.793       27.019      859.099
05/14/2013  14:04:00      125.472     -125.863       15.778      110.293      138.633       83.884    12164.583    19219.090     7036.580        3.512        1.921      177.722       91.009        0.262      347.651       26.773      859.082
05/14/2013  14:05:00       18.375      -59.576       65.599       75.014      106.326       82.852     5627.132    11305.190     6864.485        1.599        1.190       62.345       75.303        1.459      347.823       27.070      859.077
05/14/2013  14:06:00        5.090     -129.715        7.856       85.506      103.393       63.641     7311.191    10690.030     4050.154        1.948        1.103      129.815       51.631        0.158      347.952       27.292      859.090
05/14/2013  14:07:00      -21.670     -158.927       -6.244       61.141       84.407       58.454     3738.236     7124.549     3416.819        2.002        0.714      160.398       44.552        0.077      348.043       27.450      859.082
05/14/2013  14:08:00       94.380     -137.988      -23.527       86.293       86.973       60.421     7446.459     7564.223     3650.715        2.358        0.933      167.177       50.060        0.090      347.344       26.243      859.106
05/14/2013  14:09:00       57.629       59.555       52.083       72.782       70.596       36.180     5297.270     4983.843     1308.985        1.058        0.580       82.873       23.881        0.083      347.278       26.132      859.066
05/14/2013  14:10:00       41.155      -11.139       45.914       57.508       60.652       55.632     3307.184     3678.646     3094.868        0.700        0.504       42.636       42.272        0.983      347.661       26.792      859.025
05/14/2013  14:11:00       28.428       53.594       81.692       59.850       65.973       64.968     3582.064     4352.395     4220.852        1.125        0.608       60.667       55.399        0.834      347.467       26.458      859.012
05/14/2013  14:12:00      146.568     -186.541       -6.401       82.502       81.279       53.222     6806.619     6606.265     2832.564        3.628        0.812      237.234       36.530        0.024      347.482       26.480      859.003
05/14/2013  14:13:00       90.025      -12.367       83.202      127.170      154.315      104.960    16172.196    23813.113    11016.687        3.308        2.550       90.870      122.715        1.824      347.969       27.322      858.971
05/14/2013  14:14:00       88.374     -201.750      -12.832       85.647      133.653       94.122     7335.368    17863.227     8858.876        4.136        1.703      220.256       88.613        0.162      347.791       27.014      858.995
05/14/2013  14:15:00       42.452     -109.419       13.268       81.092      117.006       59.917     6575.904    13690.386     3590.010        1.890        1.193      117.366       65.140        0.308      347.719       26.891      859.036
05/14/2013  14:16:00        2.156      -83.791       15.816      105.696       82.491       59.182    11171.580     6804.710     3502.475        1.437        1.074       83.819       62.485        0.556      347.531       26.567      859.008
05/14/2013  14:17:00       19.907      -75.209       18.696       81.416       76.220       53.087     6628.627     5809.499     2818.239        1.083        0.763       77.799       46.383        0.355      347.709       26.874      859.031
05/14/2013  14:18:00       30.572     -123.864       -2.339       75.224       92.609       51.105     5658.661     8576.372     2611.751        1.656        0.842      127.581       41.647        0.107      347.454       26.433      859.029
05/14/2013  14:19:00       48.885     -203.291       -8.612      112.198       80.055       49.334    12588.466     6408.760     2433.883        3.261        1.072      209.086       34.597        0.027      347.120       25.857      859.029
05/14/2013  14:20:00      -21.435     -166.169       14.708       51.873       85.427       41.769     2690.783     7297.700     1744.661        2.001        0.587      167.546       39.639        0.056      347.144       25.900      859.024
05/14/2013  14:21:00      -59.010     -106.197      -11.920       77.455       52.601       29.241     5999.209     2766.856      855.056        1.226        0.481      121.490       10.141        0.007      347.032       25.706      858.997
05/14/2013  14:22:00     -159.432      -42.553       -0.393       90.399       87.049       46.469     8171.927     7577.524     2159.408        2.257        0.895      165.013       44.025        0.071      347.090       25.806      858.992
05/14/2013  14:23:00     -189.323      -21.870        4.397       92.723       55.743       37.736     8597.609     3107.233     1424.028        2.473        0.656      190.582       48.556        0.065      347.070       25.771      858.988
05/14/2013  14:24:00     -159.778      -61.991      -13.902       69.242       53.302       21.928     4794.447     2841.144      480.839        1.884        0.406      171.382       19.007        0.012      346.918       25.509      858.990
05/14/2013  14:25:00      -63.209      -18.047       14.493       64.227       40.673       30.071     4125.151     1654.297      904.251        0.561        0.334       65.735       33.972        0.267      347.318       26.201      858.997
05/14/2013  14:26:00      -81.296      -46.637        5.160       65.494       58.703       34.840     4289.497     3446.021     1213.810        0.888        0.447       93.723       44.937        0.230      347.203       26.002      859.012
05/14/2013  14:27:00     -115.142      -37.600       -8.177       52.020       54.117       19.218     2706.098     2928.650      369.342        1.037        0.300      121.126       18.006        0.022      347.054       25.745      859.037
05/14/2013  14:28:00     -258.550      -25.006      -10.896      100.533       81.868       32.350    10106.970     6702.307     1046.523        4.272        0.893      259.757       39.286        0.023      347.053       25.742      859.055
05/14/2013  14:29:00     -234.288      -79.909      -11.633       72.528       47.112       34.613     5260.246     2219.540     1198.055        3.504        0.434      247.541       36.147        0.021      346.998       25.644      859.079
05/14/2013  14:30:00     -200.906      -83.086       -6.320       78.492       68.206       41.017     6160.964     4652.115     1682.387        2.990        0.625      217.409       29.571        0.018      347.168       25.938      859.106
05/14/2013  14:31:00     -288.149      -79.218      -25.686       53.671       55.333       30.406     2880.535     3061.773      924.506        4.841        0.343      298.840       23.800        0.006      346.998       25.644      859.143
05/14/2013  14:32:00     -163.732       13.171       -9.972       74.210      100.749       45.500     5507.082    10150.334     2070.248        2.240        0.886      164.261       45.473        0.077      347.074       25.779      859.159
05/14/2013  14:33:00     -165.921      121.593      -25.535      105.141      115.200       63.952    11054.650    13270.930     4089.826        3.569        1.421      205.705       71.930        0.122      347.136       25.884      859.153
05/14/2013  14:34:00     -221.461      -72.413       -9.386       92.900       98.799       43.796     8630.375     9761.326     1918.122        3.734        1.015      232.999       31.489        0.018      347.245       26.072      859.156
05/14/2013  14:35:00      -98.267        7.871       -0.556       70.533       74.738       45.565     4974.949     5585.706     2076.155        1.118        0.632       98.582       44.327        0.202      347.290       26.152      859.169
05/14/2013  14:36:00     -434.018      -85.800      -16.085      131.242      131.546       59.610    17224.435    17304.245     3553.348       11.703        1.904      442.418       50.959        0.013      347.127       25.868      859.174
05/14/2013  14:37:00     -369.014     -144.325      -17.011      138.948       81.259       59.421    19306.458     6603.061     3530.823        9.336        1.472      396.234       63.718        0.026      347.080       25.788      859.156
05/14/2013  14:38:00     -219.838      -52.541       -9.136       85.136       89.115       47.275     7248.146     7941.472     2234.920        3.430        0.871      226.030       47.983        0.045      347.056       25.745      859.160
05/14/2013  14:39:00     -418.307       35.567      -31.821      164.304      124.640       66.027    26995.852    15535.136     4359.631       11.207        2.345      419.816       74.341        0.031      347.049       25.733      859.210
05/14/2013  14:40:00     -313.885      -82.161      -16.007      194.069      174.159       84.087    37662.728    30331.427     7070.666        9.029        3.753      324.460       70.494        0.047      346.940       25.546      859.225
05/14/2013  14:41:00     -498.886     -147.454      -30.904      313.468      146.974      111.949    98261.955    21601.396    12532.490       20.197        6.620      520.221      129.510        0.062      346.838       25.370      859.222
05/14/2013  14:42:00     -637.258     -247.920      -24.421      242.961      205.837      105.987    59029.854    42368.893    11233.251       29.038        5.632      683.785      115.781        0.029      346.714       25.157      859.229
05/14/2013  14:43:00     -583.509      -76.887      -20.422      192.469      199.558      106.670    37044.496    39823.510    11378.483       21.751        4.412      588.552      112.883        0.037      346.696       25.125      859.255
05/14/2013  14:44:00     -397.670      -81.250      -30.827      188.138      200.418       80.910    35395.944    40167.525     6546.401       12.389        4.105      405.886       64.964        0.026      346.719       25.164      859.285
05/14/2013  14:45:00     -330.087      -25.787       11.200      214.500      132.851       84.997    46010.337    17649.407     7224.518        9.030        3.544      331.093       96.253        0.085      346.778       25.266      859.309
05/14/2013  14:46:00     -384.467      -50.201      -16.368      260.834      194.070       85.653    68034.228    37663.123     7336.480       13.180        5.652      387.730      100.226        0.067      346.715       25.159      859.306
05/14/2013  14:47:00     -336.674      -24.142      -27.558      167.803      104.581       68.484    28157.827    10937.132     4690.032        7.923        2.189      337.539       83.248        0.061      346.781       25.273      859.320
05/14/2013  14:48:00     -477.920      -70.528      -22.980      285.817      151.804       84.388    81691.549    23044.375     7121.416       17.286        5.593      483.096      114.429        0.056      346.714       25.157      859.325
05/14/2013  14:49:00     -452.709      -57.924      -20.590      164.635      132.654       78.380    27104.575    17597.098     6143.353       12.978        2.542      456.400       69.111        0.023      346.663       25.069      859.321
05/14/2013  14:50:00     -455.668     -150.174      -21.846      233.956      154.428       80.726    54735.535    23847.962     6516.754       15.787        4.255      479.776      104.975        0.048      346.699       25.130      859.334
05/14/2013  14:51:00     -492.008      -39.763      -24.877      211.218      175.988       97.744    44612.862    30971.851     9553.831       16.469        4.257      493.612      104.693        0.045      346.603       24.966      859.346
05/14/2013  14:52:00     -259.557      -73.165        6.116      173.037      129.669       71.260    29941.913    16814.014     5078.033        6.229        2.592      269.671       80.321        0.089      346.732       25.187      859.334
05/14/2013  14:53:00     -274.148      -29.883        4.158      151.921      115.995       72.209    23080.028    13454.794     5214.096        5.890        2.087      275.772       76.677        0.077      346.723       25.172      859.355
05/14/2013  14:54:00     -546.333      -95.113      -36.096      202.567      166.041       88.863    41033.505    27569.564     7896.664       19.265        3.825      554.550      101.065        0.033      346.659       25.062      859.348
05/14/2013  14:55:00     -428.109      -82.794       -0.979      222.722      180.652       88.150    49604.914    32635.160     7770.458       14.006        4.501      436.041       94.997        0.047      346.601       24.963      859.358
05/14/2013  14:56:00     -417.629      -71.272      -30.131      211.071      145.462       89.402    44551.006    21159.100     7992.738       12.704        3.685      423.667      107.307        0.064      346.618       24.991      859.364
05/14/2013  14:57:00     -230.240       -8.382        4.922      157.465      134.284       69.610    24795.162    18032.315     4845.573        5.038        2.384      230.392       77.644        0.114      346.733       25.189      859.387
05/14/2013  14:58:00     -134.654      -48.576       19.482      140.246       89.280       57.081    19669.037     7970.925     3258.209        2.588        1.545      143.148       56.009        0.153      346.707       25.147      859.408
05/14/2013  14:59:00     -281.164     -280.004      -10.302      202.467      156.428       94.559    40992.685    24469.570     8941.380       11.597        3.720      396.807      104.666        0.070      346.529       24.837      859.400
05/14/2013  15:00:00     -316.484     -241.099      -13.884      180.473      164.979       81.781    32570.468    27218.191     6688.094       11.247        3.324      397.858       97.963        0.061      346.364       24.555      859.408
05/14/2013  15:01:00     -302.214     -195.150        1.495      176.962      136.342       77.777    31315.634    18589.114     6049.302        9.268        2.798      359.745       86.863        0.058      346.342       24.517      859.405
05/14/2013  15:02:00     -289.841     -251.023       -7.181      247.342      160.119       95.594    61178.066    25638.108     9138.307       12.150        4.798      383.432      101.628        0.070      346.324       24.487      859.402
05/14/2013  15:03:00     -410.494     -244.629       -1.112      235.383      149.432       93.152    55405.190    22329.996     8677.296       15.737        4.321      477.858      112.963        0.056      346.259       24.374      859.408
05/14/2013  15:04:00     -367.057     -195.894      -10.449      161.012      145.264       85.987    25924.944    21101.516     7393.742       11.381        2.721      416.059       78.991        0.036      346.158       24.201      859.437
05/14/2013  15:05:00     -336.059     -231.746      -21.228      204.176      146.186      105.915    41687.974    21370.472    11217.941       12.067        3.714      408.218      111.705        0.075      346.094       24.091      859.429
05/14/2013  15:06:00     -382.398     -155.816       -5.293      220.882      194.517       85.336    48788.991    37836.822     7282.283       13.221        4.695      412.925       91.537        0.049      346.053       24.021      859.426
05/14/2013  15:07:00     -340.313     -179.556        4.494      181.972      186.020       85.084    33113.836    34603.418     7239.327       11.150        3.748      384.777       96.333        0.063      345.843       23.659      859.415
05/14/2013  15:08:00     -336.285     -132.576       -0.039      189.316      109.095       69.327    35840.653    11901.658     4806.212        9.160        2.627      361.475       81.544        0.051      345.742       23.486      859.410
05/14/2013  15:09:00     -407.377     -150.438      -11.929      248.814      169.318      102.418    61908.356    28668.571    10489.549       14.488        5.053      434.267      117.832        0.074      345.760       23.518      859.406
05/14/2013  15:10:00     -588.685      -68.142      -46.457      264.016      161.650      103.209    69704.514    26130.662    10652.162       22.990        5.324      592.616      120.177        0.041      345.978       23.891      859.394
05/14/2013  15:11:00     -519.245     -356.965      -35.081      233.509      204.768      105.344    54526.347    41929.779    11097.395       25.289        5.378      630.111      116.937        0.034      346.048       24.010      859.381
05/14/2013  15:12:00     -495.210      -45.053      -16.643      242.714      195.354      102.574    58910.013    38163.287    10521.346       17.755        5.380      497.255      103.502        0.043      346.095       24.091      859.380
05/14/2013  15:13:00     -493.181      -78.497       -8.978      260.745      171.009       86.788    67987.835    29244.083     7532.191       17.710        5.238      499.389      106.013        0.045      346.040       23.999      859.395
05/14/2013  15:14:00     -358.313     -157.260       -7.865      182.768      120.424       82.087    33404.127    14501.918     6738.212       10.390        2.732      391.304       79.766        0.042      346.035       23.989      859.409
05/14/2013  15:15:00     -262.718     -150.249        2.247      205.597      109.370       77.157    42270.070    11961.767     5953.249        7.588        3.009      302.647       95.468        0.100      345.998       23.925      859.390
05/14/2013  15:16:00     -247.096     -200.302       -5.906      175.608      123.058       79.400    30838.067    15143.292     6304.415        7.674        2.614      318.084       91.418        0.083      345.835       23.647      859.400
05/14/2013  15:17:00     -355.204     -256.585        5.744      191.383      146.234       92.416    36627.401    21384.292     8540.721       12.928        3.328      438.184       95.616        0.048      345.776       23.546      859.397
05/14/2013  15:18:00     -368.891     -251.586        4.476      154.687      128.320       84.509    23928.080    16465.938     7141.795       12.346        2.377      446.516       84.102        0.035      345.711       23.434      859.395
05/14/2013  15:19:00     -241.735     -207.381        5.543      178.817      113.965       91.590    31975.594    12987.977     8388.777        7.740        2.668      318.501       96.126        0.091      345.560       23.173      859.375
05/14/2013  15:20:00     -507.023     -170.964       -3.866      242.919      178.475       89.523    59009.576    31853.234     8014.421       19.258        4.944      535.071      106.751        0.040      345.858       23.686      859.380
05/14/2013  15:21:00     -350.400     -269.685       -7.541      227.851      198.840       92.113    51915.871    39537.269     8484.734       14.774        4.997      442.166       90.768        0.042      346.002       23.933      859.386
05/14/2013  15:22:00     -485.243     -262.995       -5.280      284.172      206.008      111.302    80753.485    42439.440    12388.129       22.010        6.779      551.931      126.028        0.052      346.041       23.998      859.340
05/14/2013  15:23:00     -424.849     -223.903       -7.453      228.452      171.508      103.345    52190.307    29414.978    10680.179       16.147        4.614      480.239      111.300        0.054      346.183       24.242      859.442
05/14/2013  15:24:00     -305.062      -86.202      -15.521      148.645      142.231       76.526    22095.378    20229.544     5856.201        7.445        2.409      317.007       69.017        0.047      346.206       24.282      859.461
05/14/2013  15:25:00     -283.522       -3.409      -30.002       89.552      154.226       53.880     8019.576    23785.773     2903.071        5.800        1.735      283.542       43.691        0.024      346.309       24.459      859.338
05/14/2013  15:26:00     -141.507      -15.477        0.586       84.869      104.963       46.806     7202.809    11017.325     2190.838        2.033        1.021      142.351       39.714        0.078      346.304       24.453      859.295
05/14/2013  15:27:00     -224.984     -200.739        1.541      151.618      116.636       69.141    22988.141    13603.893     4780.541        6.614        2.069      301.520       74.390        0.061      346.182       24.243      859.301
05/14/2013  15:28:00     -232.742     -152.610       -0.308      108.978       94.568       57.148    11876.177     8943.080     3265.854        5.077        1.204      278.314       42.310        0.023      346.174       24.226      859.288
05/14/2013  15:29:00     -343.138     -272.795      -23.661      126.427       92.948       62.580    15983.843     8639.354     3916.254       11.063        1.427      438.361       66.500        0.023      346.268       24.390      859.226
05/14/2013  15:30:00     -181.627     -190.788        4.781      126.696      111.520       64.215    16051.982    12436.755     4123.579        5.101        1.631      263.417       60.660        0.053      346.171       24.224      859.216
05/14/2013  15:31:00     -185.029     -236.252        1.136      196.466      148.512       72.342    38598.822    22055.875     5233.322        7.796        3.294      300.085       62.584        0.043      346.217       24.302      859.170
05/14/2013  15:32:00     -317.938     -336.359       -6.439      253.561      180.436      104.421    64293.207    32557.272    10903.780       16.099        5.388      462.841      124.630        0.073      346.416       24.645      859.243
05/14/2013  15:33:00     -223.858     -163.267        3.933      189.969      117.343       71.622    36088.166    13769.470     5129.757        6.588        2.749      277.072       70.161        0.064      346.348       24.527      859.325
05/14/2013  15:34:00     -182.476     -215.003        4.247      121.266      118.263       62.807    14705.478    13986.239     3944.763        5.608        1.632      281.999       60.639        0.046      346.332       24.501      859.361
05/14/2013  15:35:00     -417.982     -280.836      -11.127      224.233      131.747       89.201    50280.248    17357.155     7956.836       16.464        3.780      503.565       98.705        0.038      346.363       24.553      859.417
05/14/2013  15:36:00     -298.054     -121.886      -11.131      135.095      126.011       70.493    18250.664    15878.856     4969.303        7.145        1.955      322.012       64.653        0.040      346.424       24.659      859.430
05/14/2013  15:37:00     -246.032       27.408      -40.706      119.816      138.352       68.150    14355.872    19141.400     4644.481        5.053        1.907      247.554       63.582        0.066      346.458       24.716      859.369
05/14/2013  15:38:00     -328.231       83.516      -39.311      243.546      191.529       88.118    59314.538    36683.541     7764.825       10.999        5.188      338.689      104.067        0.094      346.404       24.623      859.284
05/14/2013  15:39:00     -328.463       50.774      -38.197      175.895      180.858       73.083    30939.107    32709.716     5341.187        9.045        3.450      332.364       70.239        0.045      346.388       24.597      859.278
05/14/2013  15:40:00     -217.533      395.975      -46.490      116.738      151.124       77.995    13627.704    22838.378     6083.212       12.441        2.127      451.793       75.888        0.028      346.398       24.613      859.273
05/14/2013  15:41:00     -188.256      358.521      -45.740      129.545      160.845       79.669    16781.819    25871.154     6347.122       10.753        2.450      404.941       82.255        0.041      346.527       24.836      859.214
05/14/2013  15:42:00     -260.349      100.734      -50.122      125.162      182.841       54.935    15665.565    33430.964     3017.849        6.627        2.606      279.157       51.764        0.034      346.592       24.948      859.183
05/14/2013  15:43:00     -189.652     -140.088      -70.521      133.915       84.544       48.207    17933.157     7147.620     2323.878        4.398        1.370      235.780       35.058        0.022      346.575       24.918      859.132
05/14/2013  15:44:00       32.666     -170.852      -40.629       75.960       69.479       33.558     5769.971     4827.266     1126.121        2.181        0.586      173.946       27.032        0.024      346.720       25.168      859.011
05/14/2013  15:45:00        1.850      -15.233       22.698       28.336       79.366       35.119      802.942     6298.995     1233.360        0.454        0.417       15.345       46.761        9.286      346.826       25.353      858.943
05/14/2013  15:46:00        0.651       48.732      100.784       42.090       65.300       42.848     1771.604     4264.144     1835.948        1.020        0.394       48.737       42.550        0.762      346.765       25.248      858.874
05/14/2013  15:47:00       21.383       -0.034       85.662       66.994      118.408       56.670     4488.210    14020.356     3211.440        1.475        1.086       21.383       69.524       10.571      346.928       25.528      858.828
05/14/2013  15:48:00       87.894      -80.892       38.508       84.248       98.960       68.670     7097.791     9793.006     4715.559        1.868        1.080      119.452       70.443        0.348      346.943       25.553      858.805
05/14/2013  15:49:00       77.725       -4.617       53.178       55.267       81.074       51.873     3054.434     6572.919     2690.761        1.060        0.616       77.862       59.870        0.591      346.881       25.447      858.783
05/14/2013  15:50:00       69.704      -25.139       21.358       65.198       60.165       45.781     4250.793     3619.835     2095.867        0.795        0.498       74.099       42.393        0.327      346.868       25.424      858.767
05/14/2013  15:51:00       98.368     -111.274       23.955      101.789      137.048       92.148    10360.926    18782.175     8491.230        3.013        1.882      148.520       90.202        0.369      346.909       25.493      858.725
05/14/2013  15:52:00       79.597     -141.291       20.734       94.570      138.622       84.741     8943.524    19216.192     7181.023        3.103        1.767      162.169       84.007        0.268      346.899       25.476      858.705
05/14/2013  15:53:00      131.457      -91.832       51.822      101.303      172.054      133.397    10262.330    29602.482    17794.789        4.302        2.883      160.356      117.125        0.533      346.902       25.481      858.671
05/14/2013  15:54:00      118.762       -7.301       93.972      140.651      197.354      126.333    19782.728    38948.634    15959.902        4.883        3.735      118.986      145.170        1.489      346.954       25.573      858.671
05/14/2013  15:55:00      175.287     -129.666      -10.413      119.989      168.410       94.377    14397.379    28361.868     8907.112        4.965        2.583      218.034      118.428        0.295      346.801       25.307      858.688
05/14/2013  15:56:00      221.201     -256.096      -47.778      135.629      151.345       89.307    18395.148    22905.416     7975.804        8.303        2.464      338.401      101.122        0.089      346.659       25.062      858.661
05/14/2013  15:57:00      192.490     -169.685        8.137      105.634      153.618       93.475    11158.467    23598.427     8737.597        5.470        2.175      256.603      111.370        0.188      346.735       25.193      858.632
05/14/2013  15:58:00      195.162     -199.402      -52.098      151.845      131.164       64.575    23056.971    17203.960     4169.879        6.249        2.222      279.015       76.200        0.075      346.861       25.410      858.619
05/14/2013  15:59:00       41.879      -55.732       59.817       96.899      122.676       84.417     9389.369    15049.464     7126.275        2.000        1.578       69.713       73.604        1.115      346.933       25.537      858.592
05/14/2013  16:00:00       98.162     -201.605        6.550       89.423      141.964       71.946     7996.448    20153.724     5176.179        4.182        1.666      224.233       88.835        0.157      346.884       25.449      858.620
05/14/2013  16:01:00       29.810      -59.724       30.547       57.879       92.709       65.908     3350.025     8594.971     4343.869        1.084        0.814       66.751       67.174        1.013      346.955       25.576      858.622
05/14/2013  16:02:00       11.886      -80.282       -0.046       47.188       77.879       55.187     2226.744     6065.067     3045.557        0.896        0.567       81.157       48.240        0.353      346.893       25.469      858.625
05/14/2013  16:03:00       14.259     -106.075       -6.245       54.685       68.156       36.754     2990.446     4645.280     1350.841        1.024        0.449      107.029       33.506        0.098      346.937       25.544      858.645
05/14/2013  16:04:00       35.855      -58.225       13.184       34.898       39.580       31.957     1217.894     1566.581     1021.267        0.433        0.190       68.379       25.580        0.140      347.077       25.785      858.652
05/14/2013  16:05:00       27.137      -56.496       -1.445       38.995       30.827       26.005     1520.641      950.321      676.265        0.354        0.157       62.676       10.026        0.026      347.023       25.692      858.675
05/14/2013  16:06:00      -24.205     -156.309        6.627       64.172       95.393       47.677     4118.009     9099.798     2273.142        2.027        0.775      158.172       42.413        0.072      346.904       25.486      858.695
05/14/2013  16:07:00     -188.216     -149.871       -3.859      120.340       73.756       49.845    14481.653     5439.920     2484.564        4.015        1.120      240.597       58.752        0.060      346.841       25.375      858.708
05/14/2013  16:08:00     -236.342     -231.000       -7.419      135.369      106.931       67.418    18324.729    11434.323     4545.150        7.178        1.715      330.483       62.097        0.035      346.768       25.249      858.717
05/14/2013  16:09:00     -170.781     -146.892        5.403      116.343      134.640       74.428    13535.753    18128.048     5539.546        4.398        1.860      225.263       72.206        0.103      346.758       25.232      858.759
05/14/2013  16:10:00     -159.913     -108.765        9.259       96.368       81.386       45.821     9286.749     6623.670     2099.566        2.775        0.900      193.395       50.895        0.069      346.772       25.257      858.773
05/14/2013  16:11:00     -168.934     -129.174       -0.407       68.063       66.576       41.257     4632.506     4432.314     1702.169        2.799        0.538      212.661       36.708        0.030      346.783       25.277      858.785
05/14/2013  16:12:00     -190.232     -164.698       -4.235      114.440       79.471       49.151    13096.423     6315.634     2415.805        4.258        1.091      251.622       61.032        0.059      346.742       25.205      858.795
05/14/2013  16:13:00     -249.818     -203.383       -4.365      142.986      121.768       58.847    20444.908    14827.496     3463.005        7.126        1.937      322.139       61.915        0.037      346.708       25.146      858.810
05/14/2013  16:14:00     -353.132     -275.478      -15.254      182.785      138.074       82.191    33410.374    19064.508     6755.431       13.002        2.962      447.873       85.993        0.037      346.556       24.885      858.836
05/14/2013  16:15:00     -267.308     -186.967       10.584      165.159      148.605       73.959    27277.486    22083.409     5469.916        8.067        2.742      326.205       72.006        0.049      346.524       24.829      858.843
05/14/2013  16:16:00     -142.209     -104.998       16.977      128.990      125.937       61.366    16638.477    15860.161     3765.755        3.389        1.813      176.771       43.431        0.060      346.534       24.850      858.833
05/14/2013  16:17:00     -128.528      -92.145       13.381      126.254       86.033       51.263    15940.047     7401.706     2627.919        2.558        1.298      158.145       56.156        0.126      346.574       24.918      858.813
05/14/2013  16:18:00      -35.685      -34.279       13.492       51.842       37.346       29.208     2687.629     1394.735      853.088        0.378        0.247       49.482       21.895        0.196      346.645       25.042      858.812
05/14/2013  16:19:00      -59.738     -145.507      -29.874       86.119       63.167       33.483     7416.490     3990.017     1121.130        1.908        0.626      157.292       30.221        0.037      346.593       24.952      858.801
05/14/2013  16:20:00      -48.382     -100.830        3.980       71.177       64.528       41.226     5066.118     4163.857     1699.569        1.172        0.546      111.837       36.298        0.105      346.641       25.033      858.782
05/14/2013  16:21:00      -46.979     -109.902       -2.632       62.256       84.162       40.605     3875.783     7083.227     1648.741        1.345        0.630      119.522       26.505        0.049      346.661       25.068      858.775
05/14/2013  16:22:00      -19.748      -43.465        3.618       53.570       65.834       32.481     2869.760     4334.180     1055.005        0.527        0.413       47.741       31.597        0.438      346.764       25.245      858.769
05/14/2013  16:23:00      -93.670      -49.591       16.768       82.744       83.477       55.219     6846.515     6968.485     3049.115        1.419        0.843      105.988       43.697        0.170      346.732       25.190      858.767
05/14/2013  16:24:00      -32.618      -93.070       -9.135       68.993       49.206       30.274     4759.990     2421.275      916.517        0.895        0.405       98.620       24.345        0.061      346.768       25.252      858.755
05/14/2013  16:25:00      -53.095     -158.156       -2.405       82.934       72.725       35.833     6878.050     5288.977     1283.996        2.064        0.673      166.831       18.385        0.012      346.744       25.210      858.764
05/14/2013  16:26:00      -27.728      -93.667      -10.568       74.451       65.425       38.930     5542.947     4280.382     1515.518        1.049        0.567       97.685       15.557        0.025      346.794       25.297      858.740
05/14/2013  16:27:00       11.002     -149.173       -5.456      124.079       82.906       52.468    15395.704     6873.443     2752.932        2.371        1.251      149.578       39.148        0.068      346.727       25.181      858.731
05/14/2013  16:28:00      -46.640     -218.018      -31.429       83.247       88.314       48.120     6930.071     7799.283     2315.561        3.387        0.852      222.951       50.909        0.052      346.695       25.126      858.720
05/14/2013  16:29:00      -62.755     -124.848       -8.300       67.717       76.367       48.213     4585.543     5831.934     2324.510        1.617        0.637      139.733       40.505        0.084      346.708       25.148      858.708
05/14/2013  16:30:00      -24.380     -120.641        7.299      116.949       79.118       46.022    13677.180     6259.617     2118.038        1.862        1.103      123.080       49.754        0.163      346.865       25.418      858.699
05/14/2013  16:31:00       -9.134     -107.659      -11.812       92.286      103.856       57.274     8516.695    10785.998     3280.347        1.719        1.129      108.046       34.236        0.100      346.822       25.344      858.677
05/14/2013  16:32:00      -48.984     -139.097       -4.908      110.719       76.613       51.050    12258.797     5869.566     2606.135        2.125        1.037      147.470       35.449        0.058      346.837       25.369      858.678
05/14/2013  16:33:00      -66.030      -63.502       -2.468       69.247       72.285       38.017     4795.179     5225.070     1445.267        0.993        0.573       91.611       25.580        0.078      346.815       25.334      858.675
05/14/2013  16:34:00        9.712     -145.825       -3.305      107.439      101.969       48.610    11543.155    10397.656     2362.959        2.283        1.215      146.148       18.669        0.016      346.843       25.381      858.670
05/14/2013  16:35:00        9.322     -189.581      -21.538      106.053       75.973       58.382    11247.238     5771.893     3408.437        2.846        1.021      189.810       52.021        0.075      346.719       25.165      858.647
05/14/2013  16:36:00       58.232     -161.155       15.900       99.612       82.850       56.779     9922.484     6864.044     3223.846        2.481        1.001      171.354       49.376        0.083      346.879       25.441      858.626
05/14/2013  16:37:00       15.897      -41.734       32.273       96.596       87.863       60.260     9330.841     7719.850     3631.240        1.186        1.034       44.659       36.202        0.657      347.022       25.690      858.611
05/14/2013  16:38:00       13.035     -205.863       -8.718      122.170       92.859       53.331    14925.557     8622.796     2844.236        3.450        1.320      206.275       40.615        0.039      346.734       25.192      858.614
05/14/2013  16:39:00       37.624      -81.959       22.587      100.742       79.315       46.326    10148.989     6290.879     2146.091        1.361        0.929       90.182       40.573        0.202      346.837       25.372      858.601
05/14/2013  16:40:00       68.805     -142.679       -3.006       71.350       75.973       50.879     5090.772     5771.824     2588.700        1.927        0.673      158.403       21.555        0.019      346.852       25.397      858.598
05/14/2013  16:41:00       94.193      -91.029        6.440       80.568      101.682       61.238     6491.276    10339.251     3750.092        1.889        1.029      130.991       66.258        0.256      346.813       25.329      858.580
05/14/2013  16:42:00       26.259     -105.815      -23.511       63.936       54.042       55.832     4087.810     2920.494     3117.260        1.128        0.506      109.024       34.843        0.102      346.755       25.231      858.538
05/14/2013  16:43:00       87.046     -149.568       -3.386       56.058       60.048       47.563     3142.457     3605.756     2262.251        1.948        0.451      173.054       45.984        0.071      346.812       25.328      858.523
05/14/2013  16:44:00       58.153      -53.641       28.202       61.009      108.666       60.647     3722.053    11808.213     3678.086        1.313        0.960       79.115       70.619        0.797      346.965       25.591      858.504
05/14/2013  16:45:00       95.549      -90.080       21.910       65.627       92.937       54.445     4306.915     8637.274     2964.227        1.681        0.795      131.317       61.002        0.216      346.955       25.573      858.478
05/14/2013  16:46:00       15.528      -51.679       18.654       60.286       92.186       60.286     3634.401     8498.218     3634.401        0.951        0.788       53.962       55.856        1.071      347.028       25.699      858.451
05/14/2013  16:47:00       10.598        7.640       36.495       40.442       49.896       38.957     1635.572     2489.604     1517.643        0.357        0.282       13.065       33.253        6.478      347.206       26.007      858.421
05/14/2013  16:48:00      -17.185       29.587       50.734       53.896       44.894       33.470     2904.727     2015.441     1120.266        0.489        0.302       34.216       31.827        0.865      347.203       26.001      858.390
05/14/2013  16:49:00     -260.534     -120.238       -6.521       88.211       83.772       44.939     7781.214     7017.666     2019.485        4.960        0.841      286.941       42.386        0.022      347.111       25.839      858.424
05/14/2013  16:50:00     -121.547     -107.839        5.349      109.496       68.513       47.700    11989.482     4694.016     2275.328        2.269        0.948      162.490       58.726        0.131      347.350       26.254      858.434
05/14/2013  16:51:00     -224.465      -68.878        1.775      131.775       94.389       50.361    17364.688     8909.195     2536.192        4.197        1.441      234.795       56.195        0.057      347.476       26.470      858.421
05/14/2013  16:52:00     -281.896     -241.758      -10.274      145.273      113.243       83.424    21104.262    12824.058     6959.615        8.945        2.044      371.365       76.936        0.043      347.346       26.245      858.398
05/14/2013  16:53:00     -277.273     -112.671        5.357      117.024      124.927       63.046    13694.542    15606.831     3974.753        6.143        1.664      299.291       65.161        0.047      347.324       26.207      858.381
05/14/2013  16:54:00     -387.704     -153.579      -21.068      170.234      160.430       79.633    28979.565    25737.899     6341.348       11.769        3.053      417.015       70.703        0.029      347.222       26.030      858.361
05/14/2013  16:55:00     -316.210     -186.540       -4.632      121.046      110.559       61.144    14652.086    12223.312     3738.552        8.271        1.531      367.132       60.847        0.027      347.216       26.021      858.373
05/14/2013  16:56:00     -262.557     -132.297      -13.418      153.500      102.556       58.376    23562.239    10517.779     3407.754        6.205        1.874      294.005       63.067        0.046      347.428       26.387      858.389
05/14/2013  16:57:00     -365.397     -140.451       -6.241      148.642      113.065       72.698    22094.339    12783.802     5284.977        9.671        2.008      391.460       60.804        0.024      347.430       26.389      858.384
05/14/2013  16:58:00     -248.174     -238.524        0.800      138.565      149.515       63.437    19200.200    22354.705     4024.269        8.202        2.279      344.215       62.989        0.033      347.471       26.458      858.395
05/14/2013  16:59:00     -333.559     -132.917      -11.856      210.188      156.989       87.900    44178.946    24645.455     7726.330       10.280        3.828      359.066      105.741        0.087      347.615       26.710      858.416
05/14/2013  17:00:00     -192.240     -115.634       10.871      194.738      130.442       72.929    37922.845    17015.111     5318.671        5.534        3.013      224.338       92.773        0.171      347.695       26.848      858.455
05/14/2013  17:01:00     -281.167     -155.505      -13.108      262.874      148.142       74.104    69102.813    21946.068     5491.387        9.996        4.827      321.305       97.421        0.092      347.646       26.763      858.489
05/14/2013  17:02:00     -313.080     -203.305       27.949      301.536      230.535      135.781    90923.713    53146.333    18436.507       15.129        8.125      373.299      166.612        0.199      347.329       26.217      858.482
05/14/2013  17:03:00     -237.509     -184.820       12.012      206.323      171.233       99.776    42569.320    29320.602     9955.270        8.627        4.092      300.947      126.618        0.177      347.319       26.199      858.504
05/14/2013  17:04:00     -556.748     -214.441      -17.637      294.040      223.223      105.607    86459.591    49828.410    11152.930       25.183        7.372      596.618      136.544        0.052      347.239       26.061      858.510
05/14/2013  17:05:00     -530.694      -46.595      -34.765      185.971      163.572       88.124    34585.316    26755.799     7765.752       17.705        3.455      532.736       95.048        0.032      347.286       26.142      858.564
05/14/2013  17:06:00     -353.977      -64.744      -15.200      251.923      172.630       80.488    63465.447    29801.168     6478.372       11.472        4.987      359.849      101.209        0.079      347.470       26.459      858.599
05/14/2013  17:07:00     -739.935     -105.675      -20.716      227.068      142.893       91.287    51559.760    20418.346     8333.361       31.969        4.016      747.443      108.762        0.021      347.113       25.845      858.577
05/14/2013  17:08:00     -442.870     -127.257       -7.939      195.705      151.290       80.935    38300.620    22888.763     6550.423       14.005        3.387      460.791       97.863        0.045      347.310       26.183      858.621
05/14/2013  17:09:00     -643.169     -159.757      -26.524      208.899      203.792      101.354    43638.748    41530.984    10272.594       26.765        4.772      662.714       99.889        0.023      347.108       25.833      858.618
05/14/2013  17:10:00     -347.701     -226.367       -0.046      191.833      172.898      105.796    36800.032    29893.872    11192.788       12.500        3.894      414.895      110.860        0.071      347.248       26.077      858.627
05/14/2013  17:11:00     -474.118     -241.272      -14.193      249.903      215.996      106.615    62451.361    46654.340    11366.851       20.182        6.024      531.977      113.606        0.046      347.179       25.958      858.680
05/14/2013  17:12:00     -387.621      -22.185       -8.755      218.695      186.115       97.071    47827.535    34638.737     9422.820       12.134        4.594      388.256      105.708        0.074      347.207       26.006      858.678
05/14/2013  17:13:00     -446.434      -86.214      -19.551      201.277      131.358       82.766    40512.285    17255.020     6850.176       13.586        3.231      454.682       78.101        0.030      347.114       25.844      858.668
05/14/2013  17:14:00     -304.583     -208.069      -11.625      237.319      146.163       88.450    56320.107    21363.656     7823.374       11.084        4.275      368.868      111.800        0.092      347.174       25.950      858.704
05/14/2013  17:15:00     -325.799     -213.868        8.801      198.902      137.367       89.615    39562.040    18869.647     8030.763       10.920        3.323      389.724      108.377        0.077      347.067       25.765      858.722
05/14/2013  17:16:00     -393.429     -223.935      -15.312      188.595      182.461       97.356    35567.917    33292.174     9478.255       14.174        3.917      452.696      103.979        0.053      347.052       25.739      858.705
05/14/2013  17:17:00     -364.444     -232.859       -4.781      216.243      156.285       90.890    46760.958    24424.908     8261.049       13.324        3.972      432.484      110.053        0.065      347.027       25.694      858.723
05/14/2013  17:18:00     -299.077     -148.127        3.788      162.458      106.424       77.173    26392.700    11326.005     5955.604        7.753        2.184      333.749       71.030        0.045      347.092       25.807      858.739
05/14/2013  17:19:00     -316.996     -109.498       -6.588      182.699      182.259       87.610    33378.929    33218.453     7675.590        9.338        3.714      335.375       94.565        0.080      347.113       25.844      858.751
05/14/2013  17:20:00     -243.707       -4.478       15.439      159.412      127.851       81.027    25412.116    16345.796     6565.359        5.398        2.416      243.748       77.745        0.102      347.172       25.946      858.766
05/14/2013  17:21:00     -492.361     -101.879      -16.155      199.093      215.037       88.270    39638.054    46241.104     7791.555       17.335        4.684      502.791       94.561        0.035      346.964       25.587      858.769
05/14/2013  17:22:00     -311.363     -174.701        1.291      211.180      148.061       75.388    44596.801    21921.940     5683.344        9.982        3.610      357.026       78.651        0.049      346.948       25.559      858.777
05/14/2013  17:23:00     -284.181     -169.582        9.586      218.538      120.439       89.213    47758.964    14505.524     7959.040        8.990        3.511      330.933      101.981        0.095      347.098       25.819      858.787
05/14/2013  17:24:00     -213.795     -160.522        4.277      170.361      172.992       86.528    29023.025    29926.292     7487.164        6.895        3.322      267.349       97.906        0.134      347.112       25.842      858.798
05/14/2013  17:25:00     -268.074     -189.228        7.572      143.285      123.247       66.794    20530.477    15189.710     4461.424        7.395        2.009      328.133       77.590        0.056      347.124       25.863      858.815
05/14/2013  17:26:00     -268.041     -200.645       -9.647      176.988      128.337       82.652    31324.635    16470.327     6831.280        8.340        2.731      334.820       85.791        0.066      347.097       25.817      858.813
05/14/2013  17:27:00     -291.912     -119.017       -4.405      167.544      127.524       74.575    28070.902    16262.474     5561.495        7.464        2.495      315.242       75.186        0.057      347.054       25.742      858.832
05/14/2013  17:28:00     -316.035     -153.051      -18.407      173.062      162.147       67.332    29950.319    26291.767     4533.555        9.220        3.039      351.145       70.210        0.040      347.173       25.948      858.835
05/14/2013  17:29:00     -246.279      -32.977      -13.560      137.521       93.870       60.984    18912.029     8811.649     3718.988        4.668        1.572      248.477       62.129        0.063      347.170       25.942      858.842
05/14/2013  17:30:00     -226.424     -134.573       -2.757      179.800      143.479       70.839    32328.188    20586.117     5018.132        6.365        2.897      263.397       80.517        0.093      347.290       26.150      858.855
05/14/2013  17:31:00     -367.477      -93.681      -14.746      171.905      135.805       79.447    29551.245    18442.916     6311.821        9.916        2.715      379.230       87.590        0.053      347.152       25.910      858.873
05/14/2013  17:32:00     -359.024      -86.235        6.630      203.123      153.327       74.416    41258.754    23509.278     5537.685       10.333        3.515      369.236       83.912        0.052      347.149       25.906      858.873
05/14/2013  17:33:00     -202.205      -62.868       13.251      144.591      103.055       63.658    20906.667    10620.395     4052.378        4.029        1.779      211.753       73.615        0.121      347.258       26.096      858.879
05/14/2013  17:34:00     -199.179      -99.403        2.444      153.869      107.172       48.063    23675.759    11485.816     2310.062        4.351        1.874      222.606       50.435        0.051      347.022       25.687      858.859
05/14/2013  17:35:00     -286.760     -151.258      -13.562      152.120      123.556       64.613    23140.600    15265.971     4174.796        7.393        2.129      324.207       58.453        0.033      347.083       25.792      858.852
05/14/2013  17:36:00     -447.922      -55.089      -16.636      150.513      171.036       72.065    22654.269    29253.319     5193.308       13.051        2.855      451.297       60.745        0.018      346.930       25.528      858.835
05/14/2013  17:37:00     -363.300     -129.544      -19.127      148.461      104.345       52.170    22040.740    10887.794     2721.713        9.239        1.783      385.706       30.905        0.006      347.046       25.727      858.849
05/14/2013  17:38:00     -129.962      -66.354        9.050       89.802      100.334       57.812     8064.416    10066.980     3342.185        2.142        1.074      145.921       49.807        0.117      347.344       26.243      858.870
05/14/2013  17:39:00      -71.472      -56.714        8.764      112.726      119.844       65.845    12707.081    14362.598     4335.509        1.990        1.570       91.240       68.343        0.561      347.271       26.118      858.853
05/14/2013  17:40:00     -182.499      -70.454      -13.686       82.055      107.050       64.939     6732.987    11459.777     4217.080        3.043        1.120      195.627       51.481        0.069      347.096       25.814      858.847
05/14/2013  17:41:00     -100.550     -109.366       24.484       97.323       77.233       62.434     9471.860     5964.987     3897.962        2.100        0.967      148.564       42.480        0.082      347.222       26.033      858.841
05/14/2013  17:42:00      -87.625     -112.595        3.476       95.954       74.775       51.745     9207.230     5591.281     2677.572        1.892        0.874      142.673       55.988        0.154      347.380       26.305      858.852
05/14/2013  17:43:00     -260.859      -64.644      -16.302      178.534      103.724       58.620    31874.291    10758.616     3436.300        5.927        2.303      268.749       76.821        0.082      347.051       25.736      858.834
05/14/2013  17:44:00     -226.316      -78.920       -7.090      130.094      104.401       64.145    16924.383    10899.501     4114.541        4.471        1.597      239.681       67.744        0.080      347.007       25.662      858.825
05/14/2013  17:45:00     -151.585      -58.304        3.389      111.627       99.152       54.254    12460.648     9831.172     2943.540        2.581        1.262      162.411       51.891        0.102      347.077       25.783      858.829
05/14/2013  17:46:00     -140.920      -86.209        4.701      140.199      116.088       72.112    19655.877    13476.401     5200.212        3.282        1.917      165.198       74.583        0.204      347.078       25.785      858.835
05/14/2013  17:47:00     -122.624     -126.736        4.767      170.460       72.722       56.375    29056.698     5288.512     3178.096        3.432        1.876      176.348       43.424        0.061      347.043       25.724      858.835
05/14/2013  17:48:00     -108.314     -106.456        5.179      109.104       79.083       47.115    11903.736     6254.185     2219.808        2.173        1.019      151.870       48.107        0.100      347.105       25.831      858.840
05/14/2013  17:49:00      -67.998      -64.573       10.830       85.195       43.951       42.900     7258.168     1931.703     1840.399        0.997        0.552       93.773       49.993        0.284      347.122       25.863      858.854
05/14/2013  17:50:00      -32.997      -65.630        5.040       69.443       52.372       32.137     4822.342     2742.816     1032.812        0.701        0.430       73.458       27.103        0.136      347.020       25.686      858.819
05/14/2013  17:51:00     -117.255      -98.242       -3.176      106.359       58.675       35.972    11312.168     3442.795     1294.015        1.973        0.802      152.971       38.040        0.062      347.153       25.915      858.807
05/14/2013  17:52:00     -287.328     -221.648      -22.010      134.186      110.732       50.014    18005.790    12261.490     2501.361        8.246        1.638      362.885       51.573        0.020      347.012       25.670      858.815
05/14/2013  17:53:00     -290.438      -76.451      -16.890      159.431      137.784       58.970    25418.232    18984.551     3477.491        6.917        2.394      300.332       74.091        0.061      346.906       25.487      858.807
05/14/2013  17:54:00     -156.298      -91.346        7.910      120.475       96.595       57.520    14514.307     9330.514     3308.578        2.999        1.358      181.034       62.227        0.118      346.889       25.459      858.795
05/14/2013  17:55:00     -145.112      -91.424       14.331      149.882      107.649       61.828    22464.487    11588.381     3822.746        3.374        1.894      171.510       73.569        0.184      346.970       25.598      858.802
05/14/2013  17:56:00     -312.544     -114.173      -23.889      249.330      139.063       67.771    62165.220    19338.479     4592.932        9.868        4.305      332.745       88.533        0.071      346.913       25.497      858.781
05/14/2013  17:57:00     -308.902     -139.183      -12.137      132.348      119.788       66.003    17515.896    14349.080     4356.446        7.557        1.811      338.810       74.585        0.048      346.927       25.521      858.777
05/14/2013  17:58:00     -247.394     -189.328       -6.323      161.904      122.554       82.138    26212.926    15019.516     6746.654        7.253        2.399      311.526       88.307        0.080      346.916       25.504      858.766
05/14/2013  17:59:00     -241.919     -133.533       -4.971      183.598      124.890       68.105    33708.340    15597.516     4638.352        6.515        2.697      276.326       74.113        0.072      346.949       25.560      858.756
05/14/2013  18:00:00     -140.576     -123.893        4.548      112.259      116.293       56.753    12602.074    13524.055     3220.907        3.223        1.467      187.380       60.761        0.105      346.985       25.623      858.732
05/14/2013  18:01:00     -139.360     -233.451       -0.126      129.465      150.691       66.828    16761.126    22707.684     4466.044        5.892        2.197      271.884       62.723        0.053      346.966       25.591      858.731
05/14/2013  18:02:00     -250.540     -214.890        5.375      175.367      141.082       69.735    30753.519    19904.189     4862.994        8.224        2.776      330.072       63.978        0.038      346.874       25.432      858.753
05/14/2013  18:03:00     -322.658     -224.526       -1.806      176.183      130.314       74.934    31040.380    16981.736     5615.053       10.407        2.682      393.090       69.164        0.031      346.872       25.430      858.713
05/14/2013  18:04:00     -231.722     -207.275       -7.273      185.159      180.542       77.064    34283.755    32595.247     5938.839        8.475        3.641      310.898       69.872        0.051      346.864       25.416      858.746
05/14/2013  18:05:00     -384.780     -331.113       -8.359      227.105      179.886       91.712    51576.712    32358.980     8411.024       17.504        4.617      507.633       91.140        0.032      346.813       25.327      858.717
05/14/2013  18:06:00     -502.037     -247.612      -30.644      199.808      209.642       94.048    39923.251    43949.610     8845.020       20.349        4.636      559.780      103.283        0.034      346.786       25.280      858.740
05/14/2013  18:07:00     -451.380     -279.045      -27.702      267.333      172.251      108.034    71466.688    29670.314    11671.392       19.757        5.640      530.670      139.688        0.069      346.761       25.238      858.759
05/14/2013  18:08:00     -340.713      -67.988       -6.776      183.032      144.179       86.128    33500.879    20787.667     7417.966        9.122        3.085      347.430       94.083        0.073      346.760       25.234      858.774
05/14/2013  18:09:00     -298.718      -40.321      -20.423      198.016      112.620       75.425    39210.389    12683.270     5688.996        7.442        2.879      301.427       89.666        0.088      346.792       25.291      858.760
05/14/2013  18:10:00     -245.138     -184.072      -14.603      170.276      123.360       76.963    28993.955    15217.575     5923.350        7.215        2.507      306.554       77.484        0.064      346.794       25.296      858.781
05/14/2013  18:11:00     -320.101     -162.789      -11.457      155.804      121.742       76.228    24274.748    14821.098     5810.702        8.699        2.245      359.117       61.038        0.029      346.784       25.278      858.787
05/14/2013  18:12:00     -217.972     -194.020       13.195      158.748      116.511       77.066    25201.023    13574.868     5939.115        6.501        2.236      291.814       74.436        0.065      346.765       25.245      858.793
05/14/2013  18:13:00     -296.432     -174.749        3.334      177.676      134.721       79.982    31568.641    18149.731     6397.088        8.726        2.806      344.106       92.490        0.072      346.739       25.200      858.826
05/14/2013  18:14:00     -331.852     -247.373       -2.150      182.939      136.481       95.144    33466.551    18626.965     9052.404       11.622        3.057      413.907      105.870        0.065      346.673       25.086      858.802
05/14/2013  18:15:00     -168.988      -76.274       15.263      147.295      145.678       73.069    21695.961    21222.021     5339.042        4.142        2.413      185.404       72.648        0.154      346.758       25.232      858.789
05/14/2013  18:16:00     -254.643     -108.600       -4.789      195.296      143.123       88.234    38140.556    20484.125     7785.151        7.152        3.320      276.834       96.003        0.120      346.805       25.312      858.795
05/14/2013  18:17:00     -375.584     -216.251      -17.806      228.454      118.690       77.012    52191.187    14087.404     5930.915       13.017        3.610      433.392       94.330        0.047      346.671       25.082      858.807
05/14/2013  18:18:00     -226.077      -99.424        8.400      162.792      144.378       62.463    26501.178    20844.930     3901.601        5.615        2.562      246.973       60.410        0.060      346.769       25.252      858.805
05/14/2013  18:19:00     -243.117     -103.743      -12.193      102.289      113.000       54.585    10463.007    12768.893     2979.478        4.811        1.311      264.326       52.172        0.039      346.763       25.240      858.828
05/14/2013  18:20:00     -281.102     -118.607       -9.063      174.462       88.034       65.255    30437.078     7749.964     4258.276        6.780        2.122      305.100       85.384        0.078      346.745       25.211      858.831
05/14/2013  18:21:00     -342.050     -221.940       -7.758      196.130      181.246       93.081    38467.109    32850.282     8664.019       12.314        3.999      407.745       92.835        0.052      346.707       25.145      858.835
05/14/2013  18:22:00     -441.593     -267.182      -20.134      234.287      200.842      113.907    54890.477    40337.548    12974.789       18.748        5.410      516.131      118.825        0.053      346.588       24.940      858.802
05/14/2013  18:23:00     -299.741      -76.409       14.842      209.444      168.051       75.062    43866.581    28241.052     5634.366        8.681        3.887      309.327       81.181        0.069      346.665       25.073      858.819
05/14/2013  18:24:00     -309.015     -231.242        5.202      208.740      181.852       96.023    43572.419    33070.295     9220.468       11.741        4.293      385.957      121.320        0.099      346.580       24.927      858.801
05/14/2013  18:25:00     -277.014     -167.226      -12.145      172.616      123.525       84.261    29796.111    15258.404     7099.977        7.849        2.608      323.576       87.264        0.073      346.616       24.988      858.794
05/14/2013  18:26:00     -223.390     -189.948       14.231      146.564      120.943       73.166    21480.885    14627.106     5353.270        6.382        2.073      293.229       72.192        0.061      346.657       25.057      858.789
05/14/2013  18:27:00     -232.117     -186.429       41.857      219.899      155.360       91.704    48355.356    24136.711     8409.585        8.563        4.045      297.715      111.839        0.141      346.658       25.061      858.764
05/14/2013  18:28:00     -447.004     -364.301        3.821      255.379      209.517      108.028    65218.298    43897.257    11669.965       22.664        6.039      576.653      131.450        0.052      346.507       24.801      858.761
05/14/2013  18:29:00     -467.389     -327.696      -16.593      266.575      176.566      130.543    71062.491    31175.573    17041.586       22.268        5.964      570.821      137.320        0.058      346.477       24.749      858.742
05/14/2013  18:30:00     -560.105     -351.402      -21.240      224.019      153.031       91.824    50184.380    23418.558     8431.720       25.983        4.102      661.212       96.015        0.021      346.417       24.645      858.754
05/14/2013  18:31:00     -414.113     -196.412        0.911      228.828      164.987       88.643    52362.274    27220.638     7857.666       14.874        4.372      458.331      106.875        0.054      346.503       24.795      858.752
05/14/2013  18:32:00     -353.819     -192.812        8.206      262.946      215.328      102.752    69140.848    46366.073    10558.074       14.423        6.303      402.944      122.743        0.093      346.492       24.775      858.756
05/14/2013  18:33:00     -422.588     -250.166      -16.446      205.369      176.578       86.491    42176.430    31179.666     7480.632       16.112        4.042      491.084       96.073        0.038      346.484       24.762      858.747
05/14/2013  18:34:00     -487.612     -301.374      -27.880      217.635      196.454       97.729    47365.006    38594.002     9550.890       21.242        4.775      573.229       97.394        0.029      346.466       24.730      858.738
05/14/2013  18:35:00     -480.297     -233.216      -17.615      164.173      154.375       83.869    26952.861    23831.503     7034.073       17.159        2.891      533.924       84.906        0.025      346.465       24.728      858.736
05/14/2013  18:36:00     -261.613     -189.055        2.037      178.636      151.025       82.586    31910.792    22808.451     6820.455        8.285        3.077      322.774       80.533        0.062      346.560       24.892      858.736
05/14/2013  18:37:00     -539.241     -236.888      -29.771      258.657      224.224       99.652    66903.368    50276.229     9930.427       23.743        6.356      588.980      118.566        0.041      346.469       24.736      858.724
05/14/2013  18:38:00     -341.370     -163.708      -13.554      151.330      133.753       76.399    22900.830    17889.908     5836.776        9.506        2.331      378.595       80.611        0.045      346.559       24.890      858.744
05/14/2013  18:39:00     -332.922     -172.190      -11.175      166.096      131.037       74.998    27587.813    17170.772     5624.655        9.549        2.519      374.816       69.731        0.035      346.590       24.944      858.771
05/14/2013  18:40:00     -264.298     -133.394       -0.605      184.405      148.663       73.356    34005.301    22100.714     5381.158        7.456        3.074      296.053       93.233        0.099      346.611       24.981      858.768
05/14/2013  18:41:00     -325.936     -197.085       -4.792      188.206      125.618       74.273    35421.586    15779.979     5516.488       10.090        2.836      380.889       85.393        0.050      346.601       24.962      858.754
05/14/2013  18:42:00     -342.046      -99.975       -6.484      176.102      185.054       72.489    31011.934    34245.054     5254.707        9.876        3.526      356.357       84.184        0.056      346.592       24.947      858.768
05/14/2013  18:43:00     -251.142      -73.910        3.424      132.034      109.487       63.575    17433.097    11987.412     4041.786        5.100        1.673      261.792       63.862        0.060      346.637       25.023      858.795
05/14/2013  18:44:00     -438.462     -238.033        4.063      212.176      175.079       98.644    45018.788    30652.784     9730.573       16.715        4.270      498.907      100.757        0.041      346.397       24.611      858.773
05/14/2013  18:45:00     -268.112     -197.924       15.910      180.102      136.616       92.117    32436.778    18663.861     8485.467        8.544        2.979      333.254       99.226        0.089      346.431       24.670      858.769
05/14/2013  18:46:00     -304.439     -162.067      -15.158      166.354      162.003       85.982    27673.776    26245.076     7392.836        9.023        3.066      344.890       82.540        0.057      346.491       24.775      858.755
05/14/2013  18:47:00     -280.078     -115.506       -2.903      236.598      179.956       85.297    55978.401    32384.134     7275.544        9.370        4.782      302.961       89.775        0.088      346.495       24.781      858.767
05/14/2013  18:48:00     -290.365     -107.037      -18.840      129.000      146.990       77.618    16641.110    21605.960     6024.513        7.019        2.214      309.465       67.275        0.047      346.454       24.708      858.780
05/14/2013  18:49:00     -170.653     -168.627        1.394      179.400       99.474       77.459    32184.519     9895.174     5999.921        5.281        2.404      239.912       86.337        0.130      346.532       24.843      858.778
05/14/2013  18:50:00     -409.596     -236.129      -30.582      147.157      179.582       86.975    21655.066    32249.740     7564.685       14.296        3.073      472.785       79.530        0.028      346.430       24.668      858.776
05/14/2013  18:51:00     -538.640     -271.828       -7.016      289.071      154.327      105.790    83562.119    23816.926    11191.499       24.130        5.929      603.343      125.245        0.043      346.356       24.540      858.759
05/14/2013  18:52:00     -309.741     -252.267        2.741      292.727      175.396       89.707    85689.169    30763.835     8047.345       14.202        6.225      399.472      121.823        0.093      346.391       24.602      858.779
05/14/2013  18:53:00     -446.469     -311.300       -7.364      209.769      146.244       99.080    44003.159    21387.314     9816.910       18.574        3.760      544.282      108.836        0.040      346.294       24.435      858.785
05/14/2013  18:54:00     -306.854     -126.241       -2.666      200.590      161.026       96.800    40236.361    25929.221     9370.162        9.281        3.777      331.808      108.693        0.107      346.319       24.476      858.821
05/14/2013  18:55:00     -256.968     -173.771       -6.470      168.339      135.501       77.297    28338.126    18360.469     5974.810        7.446        2.634      310.208       85.564        0.076      346.365       24.557      858.829
05/14/2013  18:56:00     -306.129     -189.506      -12.954      143.534      113.756       71.485    20601.953    12940.403     5110.161        8.422        1.933      360.039       64.062        0.032      346.311       24.463      858.833
05/14/2013  18:57:00     -259.648     -214.837        8.387      185.322      156.876       91.764    34344.215    24609.966     8420.568        9.050        3.369      337.004       82.633        0.060      346.231       24.326      858.824
05/14/2013  18:58:00     -388.696     -160.258       13.320      211.259      160.645       86.651    44630.407    25806.703     7508.439       12.743        3.897      420.437       94.648        0.051      346.215       24.297      858.837
05/14/2013  18:59:00     -215.870     -126.130       31.681      196.113      161.758       88.317    38460.151    26165.611     7799.815        6.796        3.621      250.017       97.375        0.152      346.231       24.328      858.851
05/14/2013  19:00:00     -420.613     -201.649        1.155      190.929      174.222       84.211    36453.846    30353.388     7091.500       14.573        3.695      466.452       90.613        0.038      346.162       24.206      858.857
05/14/2013  19:01:00     -244.774     -106.318       10.709      175.955      158.747       84.903    30960.006    25200.697     7208.579        6.734        3.168      266.867       93.818        0.124      346.159       24.204      858.879
05/14/2013  19:02:00     -172.334     -137.461        6.128      193.257      142.916       74.385    37348.205    20425.047     5533.116        5.596        3.165      220.442       98.080        0.198      346.149       24.187      858.896
05/14/2013  19:03:00     -418.491     -238.176       -6.648      213.668      148.388       81.642    45654.162    22018.972     6665.439       15.311        3.717      481.521       82.631        0.029      346.115       24.126      858.904
05/14/2013  19:04:00     -413.226     -272.029      -19.329      225.746      177.503       98.836    50961.434    31507.193     9768.579       16.867        4.612      494.728      114.428        0.053      346.091       24.085      858.927
05/14/2013  19:05:00     -398.022     -190.688      -20.530      153.993      147.849       80.006    23713.849    21859.336     6400.955       12.358        2.599      441.343       74.288        0.028      346.081       24.068      858.928
05/14/2013  19:06:00     -398.655     -231.200      -22.115      173.459      151.041       79.511    30088.109    22813.403     6321.928       13.604        2.961      460.846       89.161        0.037      346.065       24.039      858.963
05/14/2013  19:07:00     -281.775     -111.187       -0.455      189.117      130.311       76.728    35765.171    16980.979     5887.113        7.519        2.932      302.918       88.815        0.086      346.043       24.003      858.976
05/14/2013  19:08:00     -311.928     -258.108       -1.952      221.196      181.240       99.942    48927.773    32847.814     9988.419       12.783        4.588      404.869      117.065        0.084      346.008       23.942      858.997
05/14/2013  19:09:00     -339.019     -155.132       -6.584      197.824      184.707       92.695    39134.316    34116.521     8592.298       11.043        4.092      372.827       96.618        0.067      345.993       23.919      858.989
05/14/2013  19:10:00     -556.713     -216.964      -13.421      246.882      200.019       94.052    60950.885    40007.407     8845.811       23.348        5.490      597.497      110.640        0.034      345.945       23.835      859.020
05/14/2013  19:11:00     -217.946      -98.806       20.826      179.294      146.300       77.852    32146.463    21403.604     6060.922        5.864        2.981      239.297       71.874        0.090      345.960       23.862      859.043
05/14/2013  19:12:00     -302.041     -183.825      -26.763      166.407      153.166       80.957    27691.439    23459.859     6554.098        9.171        2.885      353.582       71.438        0.041      345.978       23.891      859.067
05/14/2013  19:13:00     -364.962     -156.482       -7.581      233.964      159.521       89.380    54739.131    25447.060     7988.842       12.294        4.409      397.094       93.115        0.055      345.944       23.833      859.064
05/14/2013  19:14:00     -289.305     -126.718       -8.208      168.532      115.227       77.708    28402.887    13277.310     6038.599        7.376        2.386      315.840       77.132        0.060      345.946       23.835      859.085
05/14/2013  19:15:00     -429.289     -190.308      -31.468      196.252      174.105       86.922    38514.970    30312.634     7555.484       14.893        3.819      469.581       94.141        0.040      345.939       23.825      859.105
05/14/2013  19:16:00     -194.533     -212.153       -5.422      176.241      136.641       94.631    31061.059    18670.769     8954.975        7.077        2.934      287.840       98.149        0.116      345.931       23.812      859.117
05/14/2013  19:17:00     -295.882     -149.836       -6.926      208.504      177.321       82.798    43474.079    31442.696     6855.499        9.589        4.089      331.658      101.563        0.094      345.943       23.833      859.128
05/14/2013  19:18:00     -278.354     -181.539       15.738      192.262      179.406       91.610    36964.865    32186.477     8392.344        9.410        3.877      332.321       92.392        0.077      345.895       23.749      859.148
05/14/2013  19:19:00     -393.215     -178.798        0.334      259.946      154.652      102.656    67571.987    23917.088    10538.243       14.429        5.101      431.957      120.890        0.078      345.886       23.734      859.141
05/14/2013  19:20:00     -376.646     -246.000       -7.808      203.330      231.210      102.758    41343.079    53458.176    10559.225       15.388        5.268      449.865      106.416        0.056      345.839       23.654      859.151
05/14/2013  19:21:00     -356.206      -82.673        3.693      246.231      165.351       90.564    60629.861    27340.794     8201.803       11.494        4.809      365.674      106.887        0.085      345.846       23.667      859.153
05/14/2013  19:22:00     -350.701     -194.327       -6.086      189.764      152.658       83.155    36010.561    23304.502     6914.828       11.350        3.311      400.942       91.599        0.052      345.807       23.597      859.165
05/14/2013  19:23:00     -470.540     -348.418       -8.272      310.432      182.627      108.748    96367.759    33352.609    11826.102       24.219        7.077      585.494      135.722        0.054      345.769       23.533      859.185
05/14/2013  19:24:00     -498.846     -240.022      -19.817      278.931      215.329      105.382    77802.483    46366.697    11105.345       22.104        6.764      553.586      113.743        0.042      345.735       23.476      859.184
05/14/2013  19:25:00     -301.200     -132.814       -8.293      165.020      161.655       77.685    27231.731    26132.323     6035.024        8.390        2.970      329.183       77.294        0.055      345.740       23.485      859.217
05/14/2013  19:26:00     -350.273     -151.764        8.906      221.771      130.977       91.522    49182.554    17154.902     8376.257       11.025        3.736      381.737      106.938        0.078      345.717       23.444      859.220
05/14/2013  19:27:00     -395.133     -274.770       -8.634      286.334      170.111      116.371    81987.023    28937.867    13542.158       17.806        6.223      481.278      148.037        0.095      345.674       23.370      859.216
05/14/2013  19:28:00     -417.174     -304.144      -12.821      240.560      181.457       94.297    57869.166    32926.805     8891.836       18.318        4.984      516.273       97.704        0.036      345.662       23.350      859.238
05/14/2013  19:29:00     -239.646     -127.964        1.844      165.236      137.879       75.359    27302.880    19010.741     5679.005        6.289        2.600      271.670       71.028        0.068      345.666       23.355      859.263
05/14/2013  19:30:00     -436.371     -122.082      -19.974      158.841      137.043       71.734    25230.548    18780.674     5145.768       12.743        2.458      453.127       69.056        0.023      345.625       23.286      859.308
05/14/2013  19:31:00     -362.552     -138.773        5.028      228.232      190.831       99.643    52089.661    36416.468     9928.687       12.456        4.922      388.203       87.851        0.051      345.593       23.231      859.315
05/14/2013  19:32:00     -303.741     -156.096      -14.525      172.606      146.672       94.228    29792.725    21512.790     8878.896        8.850        3.009      341.503       95.005        0.077      345.588       23.221      859.334
05/14/2013  19:33:00     -308.779     -110.243       -0.654      235.445      159.617       96.286    55434.467    25477.548     9271.040        9.883        4.509      327.869      115.739        0.125      345.565       23.183      859.340
05/14/2013  19:34:00     -389.007     -111.222      -10.285      154.066      177.073       81.065    23736.208    31354.879     6571.480       11.272        3.083      404.594       87.128        0.046      345.535       23.132      859.360
05/14/2013  19:35:00     -374.517      -41.549      -16.317      226.026      137.892       94.465    51087.590    19014.279     8923.627       11.063        3.951      376.814      111.554        0.088      345.503       23.076      859.339
05/14/2013  19:36:00     -254.388     -112.592        3.643      236.577      164.391       86.815    55968.737    27024.493     7536.798        8.395        4.527      278.191      105.618        0.144      345.501       23.072      859.331
05/14/2013  19:37:00     -493.883     -293.396      -17.729      231.120      170.337      102.342    53416.531    29014.838    10473.959       21.160        4.645      574.458      113.029        0.039      345.471       23.020      859.360
05/14/2013  19:38:00     -371.061     -266.296      -15.950      240.689      172.404      114.225    57931.031    29723.120    13047.296       15.476        5.035      456.727      127.920        0.078      345.476       23.029      859.360
05/14/2013  19:39:00     -350.627     -233.885      -14.180      163.169      153.829       84.045    26624.006    23663.357     7063.533       11.759        2.868      421.475       86.410        0.042      345.451       22.986      859.398
05/14/2013  19:40:00     -259.970     -174.057        7.209      267.909      177.539      119.530    71775.393    31520.212    14287.305       10.774        5.879      312.858      150.451        0.231      345.424       22.941      859.410
05/14/2013  19:41:00     -309.788      -78.265       -7.669      252.290      163.737       84.365    63650.427    26809.767     7117.428        9.985        4.879      319.522      110.364        0.119      345.436       22.962      859.450
05/14/2013  19:42:00     -409.695     -148.412      -18.267      196.915      136.709       83.580    38775.338    18689.369     6985.683       12.732        3.223      435.748       88.979        0.042      345.401       22.902      859.447
05/14/2013  19:43:00     -226.097     -146.963       -1.726      147.566      132.091       80.027    21775.680    17447.976     6404.248        5.917        2.281      269.663       77.304        0.082      345.395       22.891      859.465
05/14/2013  19:44:00     -218.427     -207.540       -3.266      153.650      127.786       75.391    23608.178    16329.360     5683.827        6.820        2.281      301.302       77.369        0.066      345.378       22.863      859.485
05/14/2013  19:45:00     -311.411     -158.160      -11.270      175.134      190.418       81.492    30671.762    36259.042     6641.011        9.783        3.679      349.273       96.757        0.077      345.344       22.805      859.499
05/14/2013  19:46:00     -238.205     -138.933        7.308      164.663      122.055       80.590    27114.066    14897.401     6494.713        6.229        2.425      275.761       90.139        0.107      345.339       22.793      859.512
05/14/2013  19:47:00     -197.390      -95.447       -1.695       96.678       99.274       49.339     9346.698     9855.411     2434.323        3.485        1.082      219.255       56.233        0.066      345.315       22.753      859.528
05/14/2013  19:48:00     -412.928     -199.137      -17.779      185.209      126.565       76.860    34302.488    16018.625     5907.475       13.335        2.811      458.438       88.881        0.038      345.315       22.753      859.527
05/14/2013  19:49:00     -283.546      -53.539       -6.044      152.691       85.280       56.483    23314.635     7272.688     3190.348        5.853        1.689      288.556       62.128        0.046      345.296       22.721      859.530
05/14/2013  19:50:00     -226.793     -200.628       16.229      209.860      149.955       90.936    44041.295    22486.576     8269.439        8.336        3.740      302.798       96.548        0.102      345.277       22.688      859.520
05/14/2013  19:51:00     -275.600     -179.080       -8.568      210.674      152.640       86.955    44383.521    23298.827     7561.195        9.166        3.762      328.671      104.771        0.102      345.267       22.672      859.510
05/14/2013  19:52:00     -155.761      -69.064        2.262      109.409      113.315       75.125    11970.372    12840.241     5643.760        2.974        1.523      170.386       58.020        0.116      345.270       22.678      859.537
05/14/2013  19:53:00     -264.013     -137.022       -2.025      200.150      162.669       86.619    40059.827    26461.200     7502.835        8.124        3.701      297.453      115.086        0.150      345.228       22.605      859.572
05/14/2013  19:54:00     -489.046     -265.565      -26.860      247.274      173.415       98.043    61144.479    30072.743     9612.364       20.560        5.041      556.499      110.868        0.040      345.228       22.606      859.573
05/14/2013  19:55:00     -407.819     -108.024      -23.689      171.764      164.246       91.517    29502.816    26976.585     8375.427       12.169        3.243      421.883       96.455        0.052      345.203       22.561      859.595
05/14/2013  19:56:00     -341.037      -87.977      -11.925      136.442      108.337       63.058    18616.403    11736.917     3976.298        7.925        1.716      352.202       59.971        0.029      345.188       22.537      859.618
05/14/2013  19:57:00     -172.144     -147.331        1.049      184.174      131.886       81.472    33920.188    17393.997     6637.702        5.464        2.898      226.584       86.438        0.146      345.165       22.497      859.642
05/14/2013  19:58:00     -327.717     -233.909      -22.959      201.171      166.457       89.547    40469.656    27708.069     8018.669       11.940        3.810      402.631       95.963        0.057      345.177       22.517      859.659
05/14/2013  19:59:00     -144.778      -45.296       13.306      153.554       78.233       64.765    23578.693     6120.352     4194.441        2.854        1.695      151.699       82.120        0.293      345.139       22.456      859.676
05/14/2013  20:00:00     -339.154       -6.914      -17.220      166.072      146.080       77.195    27579.935    21339.486     5959.088        8.512        2.744      339.225       75.316        0.049      345.130       22.437      859.695
05/14/2013  20:01:00     -271.505     -207.397       -7.060      200.663      164.832       96.791    40265.793    27169.456     9368.500        9.678        3.840      341.655      109.355        0.102      345.127       22.433      859.699
05/14/2013  20:02:00     -362.212     -286.256      -18.891      202.788      186.500      113.034    41123.134    34782.178    12776.713       15.107        4.434      461.671      129.440        0.079      345.108       22.400      859.685
05/14/2013  20:03:00     -382.605     -150.939      -16.038      185.525      149.440       84.047    34419.614    22332.462     7063.910       11.661        3.191      411.302       88.290        0.046      345.098       22.382      859.710
05/14/2013  20:04:00     -227.364      -83.284       -4.262      140.165      115.960       69.194    19646.142    13446.755     4787.795        4.826        1.894      242.137       63.812        0.069      345.078       22.349      859.740
05/14/2013  20:05:00     -242.897     -168.454       -7.694      121.662      141.274       62.475    14801.570    19958.477     3903.111        6.304        1.933      295.594       63.029        0.045      345.074       22.341      859.756
05/14/2013  20:06:00     -340.531     -169.318      -20.890      170.108      173.762       83.883    28936.618    30193.136     7036.357       10.561        3.308      380.303       85.002        0.050      345.062       22.321      859.752
05/14/2013  20:07:00     -219.020     -168.440       -6.374      163.502      145.643       96.398    26732.851    21211.820     9292.487        6.680        2.862      276.300       99.418        0.129      345.053       22.306      859.769
05/14/2013  20:08:00     -258.372     -110.290       -3.774      138.208      125.852       72.307    19101.530    15838.762     5228.256        5.954        2.008      280.927       65.077        0.054      345.034       22.276      859.789
05/14/2013  20:09:00     -317.971      -95.336      -14.346      196.355      119.463       75.678    38555.441    14271.322     5727.231        8.447        2.928      331.956       87.508        0.069      345.003       22.221      859.816
05/14/2013  20:10:00     -316.690      -83.849       -2.569      192.501      172.440       65.505    37056.773    29735.631     4290.892        8.919        3.554      327.603       84.406        0.066      344.993       22.202      859.808
05/14/2013  20:11:00     -284.607     -107.610      -23.062      148.583      123.197       54.797    22076.869    15177.513     3002.687        6.668        2.013      304.272       54.174        0.032      344.996       22.209      859.829
05/14/2013  20:12:00     -235.915      -20.888       12.417      186.377      114.979       73.379    34736.245    13220.142     5384.431        5.478        2.667      236.838       87.566        0.137      344.951       22.130      859.843
05/14/2013  20:13:00     -375.482      -46.779      -11.804      169.693      163.186       79.867    28795.608    26629.742     6378.791       10.255        3.090      378.385       81.850        0.047      344.973       22.170      859.849
05/14/2013  20:14:00     -327.226     -182.181      -16.196      165.261      153.046       84.865    27311.087    23423.059     7201.989        9.922        2.897      374.522       85.067        0.052      344.984       22.187      859.875
05/14/2013  20:15:00     -201.612     -159.995       13.399      183.382      125.660       73.520    33628.809    15790.426     5405.250        6.062        2.741      257.382       88.534        0.118      344.983       22.185      859.891
05/14/2013  20:16:00     -208.875     -150.919        6.595      176.191      161.395       80.176    31043.194    26048.401     6428.192        6.497        3.176      257.692       95.689        0.138      344.978       22.180      859.903
05/14/2013  20:17:00     -390.511     -113.585      -10.978      203.628      176.073       86.219    41464.511    31001.653     7433.631       12.270        3.995      406.695       93.068        0.052      344.993       22.204      859.902
05/14/2013  20:18:00     -340.045     -158.881      -14.513      217.592      145.198       85.594    47346.217    21082.507     7326.359       10.841        3.788      375.332       95.835        0.065      344.980       22.181      859.922
05/14/2013  20:19:00     -379.736     -155.013      -12.099      130.014      130.319       74.785    16903.736    16982.960     5592.824       10.392        1.974      410.157       65.007        0.025      344.957       22.141      859.939
05/14/2013  20:20:00     -221.978      -35.883        4.633      141.346      112.130       59.936    19978.568    12573.136     3592.325        4.336        1.807      224.860       67.612        0.090      344.918       22.074      859.933
05/14/2013  20:21:00     -274.612      -66.798        0.237      142.254      129.804       61.213    20236.215    16848.996     3747.058        6.035        2.042      282.619       65.179        0.053      344.876       22.001      859.927
05/14/2013  20:22:00     -284.358     -124.644        1.909      168.843      133.237       69.449    28507.912    17752.146     4823.102        7.373        2.554      310.477       72.604        0.055      344.900       22.042      859.934
05/14/2013  20:23:00     -394.948     -266.282      -18.382      166.464      164.671       74.314    27710.388    27116.654     5522.576       14.378        3.017      476.330       84.453        0.031      344.910       22.061      859.925
05/14/2013  20:24:00     -345.688     -178.582      -23.295      176.214      133.208       66.219    31051.412    17744.334     4384.975       10.255        2.659      389.091       72.479        0.035      344.870       21.992      859.933
05/14/2013  20:25:00     -207.787     -136.230        9.951      156.155      130.313       82.047    24384.231    16981.387     6731.741        5.496        2.405      248.463       78.220        0.099      344.867       21.988      859.896
05/14/2013  20:26:00     -109.595      -76.683       19.822      137.661      131.521       68.005    18950.677    17297.755     4624.721        2.957        2.044      133.758       71.575        0.286      344.837       21.937      859.909
05/14/2013  20:27:00     -245.903     -108.896       -1.118      209.209      128.371       80.005    43768.481    16479.071     6400.779        6.948        3.332      268.936       96.411        0.129      344.829       21.921      859.931
05/14/2013  20:28:00     -338.597     -125.961      -13.310      146.165      141.986       78.476    21364.347    20159.939     6158.557        8.918        2.384      361.268       80.259        0.049      344.851       21.960      859.920
05/14/2013  20:29:00     -354.719     -179.164       -3.143      140.719      190.400       87.460    19801.758    36252.240     7649.166       11.081        3.185      397.398       93.236        0.055      344.860       21.975      859.923
05/14/2013  20:30:00     -333.779     -219.767       12.880      299.714      171.571      115.131    89828.569    29436.545    13255.092       14.617        6.626      399.633      153.068        0.147      344.829       21.923      859.910
05/14/2013  20:31:00     -434.529     -142.447      -10.545      189.217      185.140       96.445    35803.138    34276.946     9301.634       14.429        3.969      457.282       89.470        0.038      344.876       22.003      859.887
05/14/2013  20:32:00     -390.460     -151.837       14.186      252.719      174.494       91.669    63866.775    30448.148     8403.240       13.920        5.136      418.943       98.612        0.055      344.830       21.925      859.874
05/14/2013  20:33:00     -451.852     -286.762      -39.733      223.655      178.529      102.704    50021.566    31872.758    10548.079       19.020        4.622      535.166      110.349        0.043      344.873       21.998      859.903
05/14/2013  20:34:00     -289.269      -73.587      -11.435      157.126      137.159       65.528    24688.458    18812.473     4293.868        6.850        2.390      298.482       72.837        0.060      344.830       21.924      859.952
05/14/2013  20:35:00     -135.330       -9.131       16.049      133.801      130.953       67.735    17902.761    17148.772     4587.988        2.914        1.982      135.638       62.586        0.213      344.692       21.688      859.962
05/14/2013  20:36:00     -159.077      -40.786        3.340      137.140       83.120       57.445    18807.362     6908.996     3299.897        2.799        1.451      164.222       72.279        0.194      344.750       21.789      859.947
05/14/2013  20:37:00     -213.958     -102.634       -6.321      165.056      100.573       55.274    27243.448    10114.986     3055.264        4.838        2.021      237.301       24.902        0.011      344.723       21.740      859.974
05/14/2013  20:38:00     -458.796     -129.600        4.411      286.969      173.493      106.430    82351.304    30099.811    11327.386       17.552        6.189      476.750      116.539        0.060      344.741       21.772      859.939
05/14/2013  20:39:00     -342.381     -200.461      -26.020      180.404      121.480       65.478    32545.629    14757.493     4287.356       10.483        2.580      396.748       60.958        0.024      344.753       21.793      859.964
05/14/2013  20:40:00     -278.774     -194.121      -10.283      182.611      169.425      100.977    33346.933    28704.988    10196.441        9.386        3.612      339.703      115.248        0.115      344.735       21.760      859.953
05/14/2013  20:41:00     -424.315     -126.952      -11.267      182.534      152.098       86.681    33318.829    23133.777     7513.668       13.012        3.198      442.899       83.934        0.036      344.728       21.749      859.974
05/14/2013  20:42:00     -461.984     -127.761      -25.219      167.835      128.250       73.738    28168.427    16448.037     5437.327       14.021        2.503      479.324       70.221        0.021      344.706       21.712      859.970
05/14/2013  20:43:00     -247.784     -153.179        8.238      208.730      141.855       84.369    43568.009    20122.768     7118.113        7.786        3.540      291.309      109.574        0.141      344.674       21.657      859.971
05/14/2013  20:44:00     -274.596      -68.897      -11.881      134.939       87.190       66.914    18208.600     7602.099     4477.434        5.528        1.514      283.108       71.576        0.064      344.611       21.551      859.989
05/14/2013  20:45:00     -407.407     -126.023       -8.218      281.918      184.244       84.083    79477.712    33945.793     7069.969       15.119        6.025      426.453      102.259        0.057      344.592       21.517      859.987
05/14/2013  20:46:00     -565.354      -76.765      -35.382      164.873      157.071       85.808    27183.016    24671.293     7363.073       19.298        2.961      570.541       83.186        0.021      344.627       21.577      859.985
05/14/2013  20:47:00     -391.401      -92.673      -10.511      141.068      127.645       70.006    19900.242    16293.168     4900.888       10.149        2.055      402.223       73.418        0.033      344.550       21.445      860.016
05/14/2013  20:48:00     -226.633      -53.517        5.942      124.739      114.205       61.891    15559.798    13042.887     3830.551        4.334        1.622      232.866       56.777        0.059      344.537       21.423      860.016
05/14/2013  20:49:00     -364.010     -123.465       -2.412      145.133      133.031       75.935    21063.476    17697.223     5766.168        9.613        2.226      384.379       71.337        0.034      344.568       21.476      860.003
05/14/2013  20:50:00     -428.026      -43.754       -7.659      224.335      152.732       78.059    50326.315    23327.198     6093.180       13.245        3.987      430.257       88.402        0.042      344.530       21.410      860.005
05/14/2013  20:51:00     -366.138     -111.338       -8.812      224.289      196.770       86.527    50305.477    38718.376     7486.902       12.150        4.826      382.692       91.478        0.057      344.542       21.433      859.985
05/14/2013  20:52:00     -395.504      -30.526      -17.006      233.256      148.025       84.907    54408.534    21911.492     7209.254       12.057        4.176      396.680       72.273        0.033      344.541       21.430      860.003
05/14/2013  20:53:00     -370.254      -69.527        3.423      189.213      124.316       75.039    35801.741    15454.501     5630.870        9.940        2.844      376.725       86.229        0.052      344.520       21.394      859.996
05/14/2013  20:54:00     -310.983     -108.690       -4.575      149.663      172.255       75.078    22399.060    29671.683     5636.689        8.312        2.885      329.430       67.114        0.042      344.528       21.409      859.987
05/14/2013  20:55:00     -369.079     -113.917      -13.019      179.599      174.987       82.833    32255.837    30620.479     6861.259       10.954        3.487      386.260       79.017        0.042      344.507       21.370      859.994
05/14/2013  20:56:00     -403.625      -78.191      -33.684      216.457      123.647       80.267    46853.581    15288.626     6442.722       11.936        3.429      411.129      105.596        0.066      344.506       21.370      860.012
05/14/2013  20:57:00     -330.044      -44.514        4.528      196.603      143.824       73.973    38652.703    20685.402     5472.019        8.786        3.241      333.032       83.631        0.063      344.460       21.292      860.009
05/14/2013  20:58:00     -498.465     -205.150      -33.565      209.359      181.525       92.516    43831.287    32951.292     8559.138       18.850        4.267      539.031      107.771        0.040      344.487       21.338      860.016
05/14/2013  20:59:00     -340.349     -120.457        4.733      184.134      160.694       81.958    33905.411    25822.452     6717.055        9.840        3.322      361.037       88.520        0.060      344.443       21.262      860.064
05/14/2013  21:00:00     -260.532      -17.384        3.839      123.966       99.338       67.731    15367.527     9868.048     4587.503        4.900        1.491      261.112       61.301        0.055      344.423       21.227      860.075
05/14/2013  21:01:00     -121.855      -88.411       10.615      124.735      106.114       56.391    15558.879    11260.113     3179.945        2.638        1.500      150.549       44.599        0.088      344.447       21.271      860.059
05/14/2013  21:02:00     -242.039      -76.103        1.455      148.658      109.256       77.657    22099.297    11936.949     6030.539        5.222        2.003      253.721       86.033        0.115      344.436       21.250      860.065
05/14/2013  21:03:00     -319.234       33.141        3.014      205.952      118.982       78.464    42416.176    14156.800     6156.528        8.286        3.136      320.949       90.761        0.080      344.379       21.154      860.101
05/14/2013  21:04:00     -257.824      -70.241      -11.222      162.808       93.810       56.390    26506.422     8800.224     3179.788        5.500        1.924      267.221       64.926        0.059      344.373       21.143      860.116
05/14/2013  21:05:00     -358.558     -175.785      -17.453      192.478      149.862       77.640    37047.854    22458.644     6027.926       11.264        3.277      399.330       82.819        0.043      344.436       21.249      860.108
05/14/2013  21:06:00     -294.605     -133.088        2.137      193.887      134.436       75.962    37592.141    18073.131     5770.186        8.296        3.072      323.271       77.452        0.057      344.396       21.182      860.141
05/14/2013  21:07:00     -320.765      -99.250      -13.244      182.915      128.534       77.292    33458.022    16521.009     5974.023        8.443        2.798      335.769       88.959        0.070      344.383       21.161      860.159
05/14/2013  21:08:00     -391.428     -121.393      -17.484      115.846      124.339       66.952    13420.366    15460.284     4482.525       10.081        1.668      409.820       63.028        0.024      344.362       21.123      860.173
05/14/2013  21:09:00     -265.692     -196.170        8.351      188.059      191.826       98.282    35366.293    36797.072     9659.280        9.547        4.091      330.265      114.413        0.120      344.407       21.201      860.169
05/14/2013  21:10:00     -432.437     -160.963       -7.408      184.683      137.930       77.053    34107.909    19024.550     5937.093       13.601        2.953      461.423       84.852        0.034      344.401       21.190      860.175
05/14/2013  21:11:00     -375.617     -127.020       -7.730      199.025      125.595       82.987    39611.103    15774.136     6886.901       10.977        3.114      396.512       93.865        0.056      344.362       21.125      860.190
05/14/2013  21:12:00     -224.024      -34.565        7.810      145.881       95.253       68.528    21281.138     9073.182     4696.140        4.324        1.753      226.675       79.792        0.124      344.317       21.048      860.216
05/14/2013  21:13:00     -386.384     -117.848      -22.967      195.372      146.007       77.502    38170.052    21318.055     6006.574       11.459        3.275      403.957       82.311        0.042      344.355       21.111      860.212
05/14/2013  21:14:00     -373.968      -98.155      -11.996      143.856      149.292       77.154    20694.666    22288.221     5952.703        9.927        2.447      386.635       71.704        0.034      344.350       21.102      860.236
05/14/2013  21:15:00     -371.938     -160.245        0.789      232.231      188.634       92.973    53931.435    35582.778     8644.009       13.107        4.908      404.990      115.402        0.081      344.342       21.089      860.270
05/14/2013  21:16:00     -364.726      -41.003      -16.155      148.099      155.020       74.992    21933.399    24031.064     5623.740        9.327        2.579      367.024       72.109        0.039      344.345       21.095      860.295
05/14/2013  21:17:00     -353.384      -56.737       -2.979      144.744      117.317       71.656    20950.900    13763.333     5134.639        8.397        1.992      357.910       63.394        0.031      344.377       21.150      860.278
05/14/2013  21:18:00     -269.166     -107.821        9.796      179.703      121.596       76.694    32293.331    14785.566     5882.033        6.856        2.648      289.958       93.989        0.105      344.344       21.092      860.291
05/14/2013  21:19:00     -473.695     -123.651      -11.182      232.164      175.604      117.043    53900.156    30836.858    13699.110       16.910        4.922      489.568      133.080        0.074      344.375       21.145      860.276
05/14/2013  21:20:00     -504.230     -101.726      -10.941      258.375      192.760       85.038    66757.834    37156.513     7231.454       18.791        5.557      514.389      103.982        0.041      344.387       21.167      860.287
05/14/2013  21:21:00     -573.156      -88.713      -20.004      202.111      141.297      102.676    40848.922    19964.970    10542.344       20.405        3.568      579.980      109.046        0.035      344.371       21.140      860.302
05/14/2013  21:22:00     -465.918     -137.824      -15.102      265.838      150.781       85.450    70669.740    22735.000     7301.708       16.849        5.035      485.875      108.942        0.050      344.353       21.109      860.341
05/14/2013  21:23:00     -470.008     -110.975      -24.658      208.936      129.424       84.400    43654.309    16750.649     7123.329       15.067        3.376      482.932      104.031        0.046      344.356       21.114      860.396
05/14/2013  21:24:00     -482.917     -174.136      -27.048      198.361      173.827       79.738    39347.188    30215.773     6358.112       17.008        3.796      513.354       84.945        0.027      344.352       21.107      860.400
05/14/2013  21:25:00     -254.852     -101.667      -12.689      148.812      142.963       79.721    22144.948    20438.450     6355.373        6.218        2.447      274.383       83.658        0.093      344.340       21.086      860.390
05/14/2013  21:26:00     -466.732      -95.355      -33.975      230.087      155.318       90.231    52940.241    24123.572     8141.711       15.663        4.260      476.373      108.289        0.052      344.316       21.045      860.375
05/14/2013  21:27:00     -398.577     -149.955        2.934      236.561      202.998      107.943    55961.249    41208.081    11651.797       14.507        5.441      425.852      119.561        0.079      344.329       21.068      860.365
05/14/2013  21:28:00     -249.633     -166.232       -5.666      176.083      127.145       74.845    31005.372    16165.955     5601.801        7.137        2.639      299.916       77.725        0.067      344.311       21.036      860.404
05/14/2013  21:29:00     -236.385      -72.689        1.168      143.864      120.376       61.429    20696.945    14490.379     3773.506        5.006        1.948      247.308       68.582        0.077      344.298       21.015      860.431
05/14/2013  21:30:00     -257.306      -46.608      -15.669      157.097      139.253       47.295    24679.533    19391.494     2236.840        5.746        2.315      261.493       59.278        0.051      344.297       21.013      860.423
05/14/2013  21:31:00     -301.857      -91.069      -13.262      129.798      127.796       66.532    16847.643    16331.793     4426.545        6.859        1.880      315.295       64.863        0.042      344.280       20.984      860.414
05/14/2013  21:32:00     -441.024     -125.052      -14.479      186.818      129.346       67.518    34900.825    16730.503     4558.748       13.326        2.810      458.411       74.662        0.027      344.259       20.948      860.434
05/14/2013  21:33:00     -288.777     -128.384      -21.799      170.489       94.543       68.535    29066.646     8938.299     4696.991        7.152        2.135      316.030       84.386        0.071      344.272       20.972      860.431
05/14/2013  21:34:00     -328.251     -112.455        3.321      251.588      145.895       89.854    63296.299    21285.326     8073.719       10.652        4.633      346.979      111.030        0.102      344.243       20.921      860.460
05/14/2013  21:35:00     -353.868     -111.283       -7.440      169.623      141.713       71.920    28771.856    20082.575     5172.475        9.584        2.701      370.953       73.809        0.040      344.236       20.908      860.479
05/14/2013  21:36:00     -292.075      -46.630        1.433      156.825       97.640       67.743    24594.000     9533.491     4589.082        6.309        1.936      295.773       82.614        0.078      344.190       20.831      860.482
05/14/2013  21:37:00     -294.009        2.873      -18.004      164.605      120.609       63.501    27094.845    14546.590     4032.319        6.622        2.284      294.023       74.985        0.065      344.209       20.862      860.506
05/14/2013  21:38:00     -217.102     -102.219      -14.220      130.862       97.767       63.410    17124.987     9558.303     4020.868        4.424        1.535      239.963       69.342        0.084      344.217       20.876      860.501
05/14/2013  21:39:00     -270.803      -33.450      -22.455       99.753       82.746       54.376     9950.615     6846.823     2956.798        4.735        0.988      272.861       45.533        0.028      344.211       20.866      860.514
05/14/2013  21:40:00     -288.314     -142.649        0.740      177.776      159.020       72.457    31604.482    25287.379     5250.006        8.280        3.107      321.673       83.891        0.068      344.182       20.816      860.532
05/14/2013  21:41:00     -243.766      -12.451       -0.281      120.498      102.390       63.369    14519.699    10483.783     4015.628        4.429        1.451      244.084       58.830        0.058      344.168       20.793      860.546
05/14/2013  21:42:00     -145.202       -3.978       -6.242       99.790       61.700       39.324     9957.955     3806.838     1546.342        1.822        0.766      145.256       47.512        0.107      344.113       20.700      860.553
05/14/2013  21:43:00     -189.104      -47.385        3.030      114.233       76.091       45.346    13049.237     5789.798     2056.274        2.945        1.045      194.950       44.442        0.052      344.086       20.654      860.574
05/14/2013  21:44:00     -310.223      -72.388       -8.379      145.962       89.469       67.251    21304.883     8004.781     4522.721        6.768        1.692      318.557       63.154        0.039      344.131       20.730      860.581
05/14/2013  21:45:00     -333.286     -126.492      -16.929      146.310      148.545       70.956    21406.554    22065.598     5034.696        8.793        2.425      356.483       72.945        0.042      344.174       20.802      860.581
05/14/2013  21:46:00     -296.566      -60.272       18.426      184.265      191.029       85.151    33953.676    36492.087     7250.687        8.480        3.885      302.629       91.567        0.092      344.199       20.846      860.594
05/14/2013  21:47:00     -259.330      -44.319        1.689      164.104      108.286       66.476    26930.278    11725.904     4419.014        5.614        2.154      263.090       63.235        0.058      344.203       20.852      860.618
05/14/2013  21:48:00     -408.784      -71.809      -19.836      191.362      153.459       75.495    36619.465    23549.622     5699.466       11.925        3.293      415.043       89.008        0.046      344.233       20.903      860.656
05/14/2013  21:49:00     -485.825     -120.712      -29.925      176.517      142.632       71.664    31158.202    20343.779     5135.775       15.406        2.832      500.597       66.341        0.018      344.250       20.933      860.685
05/14/2013  21:50:00     -298.859     -104.576       -0.724      145.498      109.777       65.603    21169.597    12050.990     4303.731        6.888        1.876      316.627       69.164        0.048      344.222       20.886      860.688
05/14/2013  21:51:00     -318.702      -84.245       -3.415      115.878       91.794       60.359    13427.777     8426.217     3643.225        6.708        1.275      329.648       64.044        0.038      344.207       20.857      860.714
05/14/2013  21:52:00     -352.833      -58.768      -16.368      106.237       90.289       51.253    11286.353     8152.189     2626.836        7.514        1.103      357.694       52.317        0.021      344.168       20.790      860.736
05/14/2013  21:53:00     -380.209      -80.745      -20.968      164.901      139.311       71.622    27192.409    19407.417     5129.711       10.162        2.586      388.688       91.312        0.055      344.160       20.777      860.748
05/14/2013  21:54:00     -442.591      -50.770      -25.309      160.890      116.736       64.233    25885.451    13627.359     4125.822       12.136        2.182      445.493       70.760        0.025      344.151       20.763      860.768
05/14/2013  21:55:00     -271.665      -30.346      -10.442      122.517      103.428       54.284    15010.312    10697.358     2946.726        5.174        1.433      273.354       43.365        0.025      344.136       20.739      860.796
05/14/2013  21:56:00     -266.286        6.973      -18.570       92.748       87.910       43.813     8602.148     7728.148     1919.605        4.477        0.912      266.377       42.413        0.025      344.094       20.667      860.805
05/14/2013  21:57:00     -318.070      -42.650      -28.843      107.658       93.129       50.581    11590.264     8673.040     2558.474        6.332        1.141      320.917       48.025        0.022      344.077       20.637      860.811
05/14/2013  21:58:00     -369.665      -70.119      -13.579      133.942      135.085       59.641    17940.398    18247.912     3557.028        9.074        1.987      376.256       68.544        0.033      344.069       20.624      860.803
05/14/2013  21:59:00     -297.703        5.363       -1.357      202.154      124.312       83.887    40866.326    15453.484     7037.040        7.600        3.168      297.751      108.001        0.132      344.068       20.622      860.807
05/14/2013  22:00:00     -251.713      -26.847      -14.980      137.378      117.447       58.997    18872.728    13793.838     3480.606        5.022        1.807      253.140       63.139        0.062      344.041       20.575      860.824
05/14/2013  22:01:00     -314.948     -117.876       -8.029      172.792      108.028       63.957    29856.924    11670.066     4090.542        7.938        2.281      336.285       81.402        0.059      344.057       20.604      860.802
05/14/2013  22:02:00     -363.143     -150.392       -7.319      133.316      120.571       58.304    17773.165    14537.354     3399.381        9.512        1.785      393.052       59.720        0.023      344.028       20.553      860.801
05/14/2013  22:03:00     -324.783     -142.728      -31.202      152.347      117.082       62.231    23209.714    13708.246     3872.712        8.380        2.040      354.760       57.850        0.027      344.052       20.594      860.797
05/14/2013  22:04:00     -415.908      -15.593      -19.076      186.658      113.208       78.147    34841.116    12815.959     6106.955       11.367        2.688      416.200       99.497        0.057      344.040       20.576      860.814
05/14/2013  22:05:00     -358.021     -110.083      -17.012      131.136      113.322       65.073    17196.577    12841.834     4234.445        8.742        1.714      374.563       64.730        0.030      344.053       20.596      860.821
05/14/2013  22:06:00     -371.455      -48.873      -14.008      160.479      124.280       73.801    25753.386    15445.400     5446.660        9.360        2.332      374.656       81.010        0.047      344.021       20.542      860.823
05/14/2013  22:07:00     -242.323      -75.749       -3.570      135.832       95.506       56.398    18450.444     9121.351     3180.714        4.761        1.538      253.886       56.089        0.049      344.030       20.557      860.833
05/14/2013  22:08:00     -610.584      -94.895      -34.507      249.797      148.575       96.469    62398.501    22074.495     9306.245       23.838        4.689      617.915      125.188        0.041      344.140       20.745      860.823
05/14/2013  22:09:00     -344.277      -60.272      -12.115      176.381      119.866       76.905    31110.421    14367.898     5914.388        8.684        2.570      349.513       79.173        0.051      344.074       20.633      860.863
05/14/2013  22:10:00     -250.950      -12.974       -6.558      111.379       81.129       47.646    12405.180     6581.972     2270.170        4.222        1.063      251.285       56.118        0.050      344.027       20.552      860.884
05/14/2013  22:11:00     -145.924      -24.921        8.761      106.168       61.726       49.788    11271.726     3810.085     2478.855        1.977        0.878      148.036       54.758        0.137      344.029       20.558      860.885
05/14/2013  22:12:00     -278.146     -114.008       -9.173      113.809      100.583       58.891    12952.555    10116.972     3468.194        5.849        1.327      300.605       56.665        0.036      344.081       20.642      860.879
05/14/2013  22:13:00     -259.271      -72.648       -7.244      141.135      125.491       64.289    19919.091    15748.042     4133.062        5.617        1.990      269.257       71.243        0.070      344.038       20.571      860.883
05/14/2013  22:14:00     -217.099      -72.930        2.789      133.116       94.967       50.501    17719.964     9018.748     2550.335        4.087        1.464      229.021       56.473        0.061      343.980       20.472      860.896
05/14/2013  22:15:00     -297.131      -48.557       -2.015      118.495       97.342       55.591    14041.043     9475.523     3090.341        5.862        1.330      301.073       62.138        0.043      344.002       20.509      860.891
05/14/2013  22:16:00     -241.717     -110.875        0.903      105.550      120.147       54.037    11140.737    14435.223     2919.966        4.960        1.425      265.933       52.449        0.039      343.943       20.408      860.895
05/14/2013  22:17:00     -386.365      -62.151      -21.503      171.261      123.840       81.614    29330.275    15336.234     6660.816       10.246        2.566      391.332       91.922        0.055      343.993       20.493      860.900
05/14/2013  22:18:00     -204.600        6.410        8.277      126.856       85.657       59.836    16092.369     7337.139     3580.335        3.449        1.350      204.701       69.968        0.117      343.950       20.421      860.905
05/14/2013  22:19:00     -246.818      -93.122      -15.576      169.320       89.956       60.806    28669.171     8092.147     3697.396        5.514        2.023      263.801       68.139        0.067      343.966       20.445      860.892
05/14/2013  22:20:00     -363.178     -135.360      -15.193      139.749      134.207       65.072    19529.767    18011.641     4234.408        9.611        2.089      387.583       63.675        0.027      343.983       20.475      860.882
05/14/2013  22:21:00     -202.578      -54.592       10.731      128.149       94.139       52.481    16422.093     8862.215     2754.300        3.608        1.402      209.805       58.639        0.078      343.953       20.425      860.894
05/14/2013  22:22:00     -241.507      -28.886       -5.181      161.219      108.496       77.397    25991.589    11771.395     5990.225        5.146        2.188      243.228       80.167        0.109      343.962       20.441      860.878
05/14/2013  22:23:00     -265.786     -174.613       -2.371      151.562      128.684       70.634    22971.029    16559.607     4989.179        7.282        2.226      318.012       76.522        0.058      343.953       20.425      860.875
05/14/2013  22:24:00     -298.015     -128.789       -7.795      118.725      142.835       56.088    14095.562    20401.754     3145.891        7.155        1.882      324.653       50.501        0.024      343.922       20.371      860.878
05/14/2013  22:25:00     -192.123     -103.946       20.269      169.207       93.077       64.013    28631.017     8663.249     4097.657        4.475        2.070      218.439       74.331        0.116      343.916       20.362      860.871
05/14/2013  22:26:00     -218.775      -50.707       -4.045      127.897      103.274       53.889    16357.706    10665.460     2903.995        4.018        1.496      224.574       63.367        0.080      343.893       20.321      860.872
05/14/2013  22:27:00     -182.514     -107.254       -0.838      141.489      104.060       61.259    20019.222    10828.435     3752.608        3.970        1.730      211.695       73.008        0.119      343.916       20.363      860.866
05/14/2013  22:28:00     -269.392      -99.282        3.749      165.301      127.268       66.715    27324.483    16197.248     4450.867        6.520        2.399      287.104       81.052        0.080      343.914       20.359      860.872
05/14/2013  22:29:00     -277.500     -163.466      -23.597      137.189      133.340       68.321    18820.746    17779.571     4667.692        7.277        2.063      322.067       62.813        0.038      343.928       20.381      860.866
05/14/2013  22:30:00     -349.237     -143.929      -33.504      112.123      151.548       65.889    12571.521    22966.722     4341.306        9.184        1.994      377.733       73.030        0.037      343.912       20.354      860.880
05/14/2013  22:31:00     -211.759      -64.137       -0.698      151.646       86.030       57.668    22996.598     7401.104     3325.579        4.133        1.686      221.259       78.805        0.127      343.881       20.302      860.888
05/14/2013  22:32:00     -135.846      -57.106       11.380      150.775       91.974       68.411    22733.021     8459.149     4680.128        2.885        1.794      147.361       78.809        0.286      343.895       20.328      860.885
05/14/2013  22:33:00     -172.959     -101.394        3.305       95.776       95.486       62.087     9173.043     9117.665     3854.734        3.117        1.107      200.488       56.067        0.078      343.864       20.274      860.891
05/14/2013  22:34:00     -224.495      -45.816      -15.387       79.643       59.014       48.381     6343.024     3482.617     2340.681        3.245        0.608      229.122       43.528        0.036      343.851       20.252      860.907
05/14/2013  22:35:00     -223.213       -7.146        5.752      121.574      113.813       52.802    14780.299    12953.373     2788.071        4.021        1.526      223.327       51.022        0.052      343.841       20.234      860.914
05/14/2013  22:36:00     -265.190      -71.444       -4.738      159.348       94.320       47.429    25391.920     8896.172     2249.535        5.599        1.827      274.645       53.210        0.038      343.837       20.229      860.918
05/14/2013  22:37:00     -278.354      -50.143      -12.233      152.260      100.139       54.044    23183.179    10027.732     2920.785        5.813        1.807      282.834       66.309        0.055      343.802       20.168      860.920
05/14/2013  22:38:00     -217.410       -9.083        2.107      117.172       99.506       59.860    13729.323     9901.543     3583.240        3.728        1.361      217.600       58.417        0.072      343.762       20.100      860.931
05/14/2013  22:39:00     -350.289      -71.791      -25.452      130.129       89.562       60.508    16933.624     8021.322     3661.188        7.856        1.431      357.570       64.237        0.032      343.800       20.164      860.938
05/14/2013  22:40:00     -229.883      -72.912        1.879      137.784       71.700       51.685    18984.550     5140.856     2671.329        4.248        1.340      241.169       62.532        0.067      343.759       20.095      860.945
05/14/2013  22:41:00     -187.995      -31.385      -10.993      117.983       82.503       43.548    13919.924     6806.692     1896.415        2.953        1.131      190.596       52.287        0.075      343.730       20.045      860.955
05/14/2013  22:42:00     -193.277      -98.027        1.638      126.850      106.827       52.365    16090.964    11411.979     2742.060        3.860        1.512      216.715       65.582        0.092      343.713       20.015      860.956
05/14/2013  22:43:00     -272.862       15.442      -15.584      134.317      106.041       56.741    18041.083    11244.670     3219.590        5.371        1.625      273.299       63.728        0.054      343.691       19.977      860.951
05/14/2013  22:44:00     -175.911      -99.938        7.002      127.432       83.564       61.563    16238.969     6982.946     3790.018        3.399        1.351      202.317       68.944        0.116      343.651       19.911      860.939
05/14/2013  22:45:00     -336.609      -32.684      -14.283      118.116      105.854       49.498    13951.351    11205.027     2450.078        7.109        1.380      338.192       51.698        0.023      343.681       19.959      860.939
05/14/2013  22:46:00     -239.963      -23.339      -12.687      119.376      145.888       62.457    14250.666    21283.364     3900.895        4.885        1.972      241.096       55.810        0.054      343.705       20.001      860.927
05/14/2013  22:47:00     -214.120      -61.605       -9.856      116.858      109.628       55.973    13655.692    12018.397     3133.027        3.927        1.440      222.806       59.117        0.070      343.700       19.992      860.920
05/14/2013  22:48:00     -174.976      -15.541        2.998       89.882       61.616       39.405     8078.724     3796.544     1552.784        2.215        0.671      175.664       39.419        0.050      343.671       19.945      860.924
05/14/2013  22:49:00     -308.003      -48.809      -14.900      128.551       72.699       45.685    16525.476     5285.173     2087.121        6.068        1.195      311.846       56.410        0.033      343.663       19.932      860.924
05/14/2013  22:50:00     -242.522      -37.668       -1.384       91.405       66.137       47.903     8354.935     4374.169     2294.690        3.763        0.751      245.430       46.380        0.036      343.633       19.878      860.922
05/14/2013  22:51:00     -254.164      -58.625       -7.112       85.627       52.206       35.063     7331.992     2725.477     1229.412        3.968        0.564      260.837       35.544        0.019      343.604       19.829      860.930
05/14/2013  22:52:00     -208.554      -30.322        0.599       96.231       66.388       38.261     9260.372     4407.309     1463.907        2.977        0.757      210.747       44.618        0.045      343.625       19.865      860.910
05/14/2013  22:53:00     -232.386     -125.761       -7.827      132.132       91.624       59.865    17458.886     8395.003     3583.874        4.965        1.472      264.233       69.055        0.068      343.648       19.904      860.888
05/14/2013  22:54:00     -135.537      -58.857        5.539       81.736       49.840       38.363     6680.824     2484.000     1471.711        1.625        0.532      147.765       42.652        0.083      343.650       19.910      860.877
05/14/2013  22:55:00      -97.374      -19.917       -6.294      109.459       72.866       39.020    11981.321     5309.427     1522.552        1.436        0.941       99.390       36.148        0.132      343.612       19.845      860.895
05/14/2013  22:56:00     -135.834        0.395        0.415       79.024       60.212       40.049     6244.858     3625.468     1603.904        1.496        0.574      135.835       28.497        0.044      343.564       19.764      860.897
05/14/2013  22:57:00     -249.647      -88.744       -7.335      101.350       92.067       43.732    10271.848     8476.368     1912.448        4.545        1.033      264.951       31.565        0.014      343.588       19.802      860.890
05/14/2013  22:58:00     -189.989      -71.995        0.117       87.073       67.223       37.492     7581.686     4518.967     1405.669        2.739        0.675      203.173       41.353        0.041      343.559       19.752      860.889
05/14/2013  22:59:00     -205.967      -71.296      -19.721      106.835       88.807       56.314    11413.813     7886.598     3171.302        3.518        1.124      217.958       46.802        0.046      343.622       19.860      860.876
05/14/2013  23:00:00     -378.520      -30.503      -19.851      129.112       85.205       52.072    16669.789     7259.814     2711.507        8.562        1.332      379.747       46.365        0.015      343.610       19.838      860.902
05/14/2013  23:01:00     -255.098      -29.975       -6.597      103.494      103.470       64.512    10710.917    10706.111     4161.807        4.579        1.279      256.853       51.086        0.040      343.614       19.845      860.886
05/14/2013  23:02:00     -155.453      -27.238       -9.114       65.894       49.451       36.643     4342.084     2445.416     1342.700        1.656        0.407      157.821       31.670        0.040      343.616       19.853      860.863
05/14/2013  23:03:00     -253.631      -29.193      -26.627       81.870       56.143       31.114     6702.713     3152.091      968.069        3.835        0.541      255.306       26.727        0.011      343.604       19.828      860.854
05/14/2013  23:04:00     -238.693       10.619       -8.831      102.048      107.563       54.955    10413.708    11569.838     3020.095        4.108        1.250      238.929       48.785        0.042      343.538       19.716      860.860
05/14/2013  23:05:00     -258.420      -41.770       -6.370      118.283       73.752       51.918    13990.943     5439.413     2695.460        4.534        1.106      261.774       56.314        0.046      343.517       19.681      860.859
05/14/2013  23:06:00     -238.979     -104.210       -9.889      130.108      107.475       64.816    16928.175    11550.917     4201.142        5.037        1.634      260.712       70.226        0.073      343.576       19.780      860.843
05/14/2013  23:07:00     -155.012      -94.893        9.791      101.650       79.731       57.792    10332.779     6357.098     3339.864        2.658        1.001      181.751       58.455        0.103      343.539       19.721      860.834
05/14/2013  23:08:00     -223.419      -37.355      -10.707       81.269       94.214       46.593     6604.704     8876.257     2170.930        3.454        0.883      226.520       40.646        0.032      343.527       19.698      860.830
05/14/2013  23:09:00      -96.406      -11.263       13.798      100.113       85.167       44.630    10022.686     7253.378     1991.813        1.444        0.963       97.062       38.382        0.156      343.476       19.614      860.835
05/14/2013  23:10:00     -255.645      -19.394       -5.907      108.471       70.418       56.430    11765.909     4958.638     3184.363        4.283        0.995      256.379       47.190        0.034      343.511       19.672      860.819
05/14/2013  23:11:00     -318.705      -96.034      -14.235      144.692      117.821       58.263    20935.726    13881.870     3394.561        7.460        1.911      332.859       67.036        0.041      343.533       19.709      860.825
05/14/2013  23:12:00     -150.112       -4.941       19.421      134.755      102.360       68.883    18158.888    10477.576     4744.877        2.815        1.669      150.194       69.950        0.217      343.544       19.728      860.836
05/14/2013  23:13:00     -260.438      -53.589      -10.817       90.450      100.421       48.143     8181.172    10084.323     2317.724        4.570        1.029      265.894       46.674        0.031      343.542       19.724      860.833
05/14/2013  23:14:00     -309.662      -77.574      -22.964      110.136       83.649       40.649    12129.918     6997.145     1652.373        6.160        1.039      319.231       40.920        0.016      343.540       19.721      860.823
05/14/2013  23:15:00     -197.789       19.740       -0.549       80.177       83.921       47.350     6428.418     7042.678     2242.054        2.761        0.786      198.772       32.412        0.027      343.499       19.650      860.795
05/14/2013  23:16:00     -270.263       16.273      -13.218      125.074       88.545       51.477    15643.620     7840.146     2649.886        4.980        1.307      270.752       42.733        0.025      343.476       19.611      860.790
05/14/2013  23:17:00     -164.976      -74.842       -6.816       93.128       94.793       43.991     8672.823     8985.664     1935.173        2.623        0.980      181.159       41.892        0.053      343.470       19.602      860.805
05/14/2013  23:18:00     -339.659      -54.234       -7.348      162.836      113.617       77.739    26515.716    12908.808     6043.381        8.191        2.273      343.961       84.792        0.061      343.471       19.603      860.813
05/14/2013  23:19:00     -200.466      -51.391        6.055      120.626       85.408       51.392    14550.602     7294.578     2641.094        3.367        1.224      206.949       53.904        0.068      343.463       19.589      860.816
05/14/2013  23:20:00     -301.018     -133.011      -15.112      126.997      119.914       60.645    16128.327    14379.402     3677.832        7.135        1.709      329.095       59.988        0.033      343.486       19.628      860.811
05/14/2013  23:21:00     -351.204      -21.247      -15.580      154.359       88.928       59.552    23826.784     7908.224     3546.459        7.965        1.764      351.846       74.603        0.045      343.489       19.633      860.824
05/14/2013  23:22:00     -300.067      -41.730       -7.252      118.674       86.937       53.514    14083.426     7558.073     2863.761        5.817        1.225      302.955       57.525        0.036      343.472       19.604      860.842
05/14/2013  23:23:00     -339.489      -50.890       -7.544      139.539       87.292       53.972    19471.243     7619.940     2912.977        7.395        1.500      343.282       66.720        0.038      343.488       19.634      860.829
05/14/2013  23:24:00     -298.927      -25.847       -1.520      127.278      132.782       58.439    16199.644    17631.022     3415.060        6.363        1.862      300.043       43.564        0.021      343.463       19.589      860.820
05/14/2013  23:25:00     -171.447      -50.501       14.402      162.790      106.857       66.246    26500.669    11418.476     4388.558        3.722        2.115      178.730       79.505        0.198      343.458       19.582      860.821
05/14/2013  23:26:00     -315.785      -64.643      -15.245      143.281       86.355       58.797    20529.492     7457.224     3457.080        6.778        1.572      322.333       65.601        0.041      343.455       19.577      860.819
05/14/2013  23:27:00     -312.072        0.319      -21.409       97.803      105.064       55.117     9565.370    11038.346     3037.901        6.074        1.182      312.072       59.464        0.036      343.430       19.532      860.823
05/14/2013  23:28:00     -251.205      -55.599      -15.485      105.703       85.749       59.382    11173.121     7352.856     3526.276        4.424        1.103      257.284       55.077        0.046      343.422       19.517      860.840
05/14/2013  23:29:00     -255.377      -71.133       -5.405      128.823      107.049       41.435    16595.416    11459.557     1716.852        5.003        1.489      265.099       46.284        0.030      343.376       19.441      860.830
05/14/2013  23:30:00     -278.822     -129.348       -1.896      141.620      111.694       64.068    20056.351    12475.653     4104.703        6.555        1.832      307.364       63.351        0.042      343.354       19.403      860.821
05/14/2013  23:31:00     -223.978      -89.218       -1.600      105.908      102.342       52.503    11216.517    10473.874     2756.562        4.128        1.222      241.093       45.673        0.036      343.333       19.368      860.827
05/14/2013  23:32:00     -226.726      -46.595      -18.132       96.188       61.670       34.650     9252.202     3803.168     1200.595        3.408        0.713      231.464       32.248        0.019      343.327       19.358      860.829
05/14/2013  23:33:00     -167.803      -45.154      -17.779       65.291       71.819       50.398     4262.880     5157.948     2539.920        2.123        0.598      173.772       27.083        0.024      343.346       19.390      860.818
05/14/2013  23:34:00     -272.774      -72.621      -12.231      133.399       93.283       44.888    17795.351     8701.733     2014.943        5.417        1.426      282.276       47.670        0.029      343.314       19.335      860.840
05/14/2013  23:35:00     -353.982      -32.016      -20.874      127.675       81.389       50.473    16300.855     6624.136     2547.502        7.611        1.274      355.427       59.144        0.028      343.317       19.341      860.845
05/14/2013  23:36:00     -304.044     -101.096      -16.045      118.537      105.560       55.398    14051.004    11142.892     3068.917        6.559        1.413      320.411       56.477        0.031      343.314       19.336      860.857
05/14/2013  23:37:00     -279.574      -98.528      -13.872      132.608      107.616       56.323    17584.914    11581.245     3172.240        6.019        1.617      296.428       57.072        0.037      343.342       19.383      860.863
05/14/2013  23:38:00     -358.930     -129.032      -11.368      160.291      125.744       68.526    25693.111    15811.637     4695.810        9.590        2.310      381.419       69.297        0.033      343.385       19.456      860.847
05/14/2013  23:39:00     -242.719       -7.761       -4.173       91.748      103.405       56.892     8417.759    10692.624     3236.666        4.066        1.117      242.843       50.731        0.044      343.353       19.402      860.851
05/14/2013  23:40:00     -260.558      -75.274      -14.508      116.272      103.112       54.365    13519.194    10632.038     2955.607        5.043        1.355      271.214       64.444        0.056      343.342       19.384      860.876
05/14/2013  23:41:00     -383.739       31.465      -32.671      115.828       85.867       55.937    13416.075     7373.076     3128.957        8.661        1.196      385.027       58.722        0.023      343.373       19.436      860.888
05/14/2013  23:42:00     -179.188       -5.213       -8.123       72.697       90.516       46.257     5284.897     8193.118     2139.735        2.391        0.781      179.263       40.621        0.051      343.321       19.348      860.885
05/14/2013  23:43:00     -212.739        3.630       -5.327       99.082       80.901       41.506     9817.190     6544.996     1722.758        3.169        0.904      212.770       39.526        0.035      343.330       19.364      860.894
05/14/2013  23:44:00     -161.442      -44.678       12.959      131.938      106.374       59.626    17407.684    11315.498     3555.307        3.025        1.614      167.510       68.896        0.169      343.278       19.276      860.923
05/14/2013  23:45:00     -244.605      -43.103      -11.925      135.578       97.697       51.456    18381.307     9544.787     2647.701        4.620        1.529      248.373       56.095        0.051      343.298       19.310      860.937
05/14/2013  23:46:00     -290.731      -21.479      -22.590       98.801       86.610       42.397     9761.656     7501.231     1797.547        5.228        0.953      291.523       34.360        0.014      343.292       19.298      860.972
05/14/2013  23:47:00     -193.694      -49.481      -11.199       69.091       55.819       39.042     4773.562     3115.758     1524.266        2.475        0.471      199.914       31.081        0.024      343.273       19.267      860.985
05/14/2013  23:48:00     -205.121       -3.095      -12.307       99.587       90.485       49.404     9917.537     8187.491     2440.739        3.139        1.027      205.144       49.718        0.059      343.292       19.298      860.979
05/14/2013  23:49:00     -170.232      -22.399      -23.602      128.606       93.352       57.253    16539.410     8714.651     3277.869        2.928        1.427      171.700       72.969        0.181      343.301       19.314      860.984
05/14/2013  23:50:00     -308.535       -4.016      -25.155      140.204       91.744       47.726    19657.126     8416.889     2277.815        6.309        1.518      308.561       54.641        0.031      343.339       19.377      860.996
05/14/2013  23:51:00     -225.315      -46.632      -19.276       80.609       63.923       35.501     6497.879     4086.110     1260.343        3.258        0.592      230.090       25.058        0.012      343.371       19.432      861.006
05/14/2013  23:52:00     -183.592      -43.431      -14.396      106.049       88.670       47.897    11246.478     7862.452     2294.108        2.860        1.070      188.659       44.895        0.057      343.289       19.294      861.014
05/14/2013  23:53:00     -285.799      -92.206      -22.969       95.612       95.490       60.518     9141.590     9118.294     3662.424        5.631        1.096      300.305       47.499        0.025      343.304       19.317      861.041
05/14/2013  23:54:00     -379.182     -137.496      -10.629      175.933      126.623       71.135    30952.382    16033.361     5060.233       10.741        2.602      403.341       70.140        0.030      343.346       19.389      861.061
05/14/2013  23:55:00     -199.243      -30.705      -12.436      106.176      106.377       48.645    11273.261    11316.165     2366.344        3.287        1.248      201.595       45.319        0.051      343.305       19.319      861.074
05/14/2013  23:56:00     -192.950      -59.810       -0.893       87.509       91.506       47.632     7657.747     8373.318     2268.760        2.955        0.915      202.007       42.564        0.044      343.268       19.256      861.080
05/14/2013  23:57:00     -267.464     -103.788        0.246      132.532       82.223       56.072    17564.741     6760.686     3144.051        5.488        1.373      286.895       59.795        0.043      343.282       19.279      861.078
05/14/2013  23:58:00     -261.258      -38.446      -32.776       91.374       71.074       44.646     8349.121     5051.577     1993.258        4.310        0.770      264.072       27.057        0.010      343.296       19.304      861.071
05/14/2013  23:59:00     -232.507      -88.955      -20.167       68.556       63.084       41.131     4699.879     3979.541     1691.797        3.637        0.519      248.943       33.895        0.019      343.276       19.268      861.077
